GEFSSE_prec_meanprec_006.txt.gz
QPF
0.00 0.00 0.00 0.00 0.00 0.00 0.00 0.00 0.01 0.01 0.00 0.00 0.00 0.00 0.00 0.00 0.00 0.00 0.00 0.00 0.00 0.01 0.01 0.01 0.01 0.02 0.01 0.01 0.01 0.00 0.00 0.00 0.00 0.00 0.00 0.01 0.00 0.01 0.02 0.02 0.09 0.11 0.01
0.00 0.00 0.00 0.00 0.00 0.00 0.00 0.00 0.01 0.01 0.00 0.00 0.00 0.00 0.00 0.00 0.00 0.00 0.00 0.00 0.00 0.00 0.00 0.00 0.00 0.00 0.01 0.01 0.00 0.00 0.00 0.00 0.00 0.00 0.00 0.00 0.00 0.00 0.00 0.01 0.07 0.12 0.01
0.00 0.00 0.00 0.00 0.00 0.00 0.00 0.00 0.00 0.00 0.00 0.00 0.00 0.00 0.00 0.00 0.00 0.00 0.00 0.00 0.00 0.00 0.00 0.00 0.00 0.00 0.00 0.00 0.00 0.00 0.00 0.00 0.00 0.00 0.00 0.01 0.01 0.00 0.00 0.00 0.01 0.01 0.00
0.00 0.00 0.00 0.00 0.00 0.00 0.00 0.00 0.00 0.00 0.00 0.00 0.00 0.00 0.00 0.00 0.00 0.00 0.00 0.00 0.00 0.00 0.00 0.00 0.00 0.00 0.00 0.00 0.00 0.00 0.00 0.00 0.00 0.00 0.01 0.08 0.05 0.00 0.00 0.00 0.00 0.00 0.00
0.00 0.00 0.00 0.00 0.00 0.00 0.00 0.00 0.00 0.00 0.00 0.00 0.00 0.00 0.00 0.00 0.00 0.00 0.00 0.00 0.00 0.00 0.00 0.00 0.00 0.00 0.00 0.00 0.00 0.00 0.00 0.00 0.00 0.00 0.01 0.06 0.07 0.05 0.00 0.00 0.00 0.00 0.00
0.00 0.00 0.00 0.00 0.00 0.00 0.00 0.00 0.00 0.00 0.00 0.00 0.00 0.00 0.00 0.00 0.00 0.00 0.00 0.00 0.00 0.00 0.00 0.00 0.00 0.00 0.00 0.00 0.00 0.00 0.00 0.00 0.00 0.00 0.00 0.00 0.04 0.06 0.01 0.00 0.00 0.00 0.00
0.00 0.00 0.00 0.00 0.00 0.00 0.00 0.00 0.00 0.00 0.00 0.00 0.00 0.00 0.00 0.00 0.00 0.00 0.00 0.00 0.00 0.00 0.00 0.00 0.01 0.01 0.02 0.02 0.02 0.02 0.01 0.00 0.00 0.00 0.00 0.00 0.01 0.01 0.02 0.01 0.00 0.00 0.00
0.00 0.00 0.00 0.00 0.00 0.00 0.00 0.00 0.00 0.00 0.00 0.00 0.00 0.00 0.00 0.00 0.00 0.00 0.00 0.00 0.00 0.00 0.00 0.00 0.00 0.00 0.00 0.02 0.03 0.04 0.04 0.02 0.01 0.01 0.00 0.02 0.10 0.04 0.05 0.05 0.04 0.02 0.03
0.00 0.00 0.00 0.00 0.00 0.00 0.00 0.00 0.00 0.00 0.00 0.00 0.00 0.00 0.00 0.00 0.00 0.00 0.00 0.00 0.00 0.00 0.00 0.00 0.00 0.00 0.00 0.01 0.02 0.02 0.03 0.02 0.00 0.02 0.01 0.01 0.08 0.07 0.06 0.04 0.04 0.07 0.09
0.00 0.00 0.00 0.00 0.00 0.00 0.00 0.00 0.00 0.00 0.00 0.00 0.00 0.00 0.00 0.00 0.00 0.00 0.00 0.01 0.01 0.01 0.01 0.00 0.00 0.01 0.01 0.03 0.05 0.06 0.08 0.03 0.00 0.00 0.00 0.01 0.04 0.07 0.09 0.07 0.04 0.05 0.10
0.00 0.00 0.00 0.00 0.00 0.00 0.00 0.00 0.00 0.00 0.00 0.00 0.00 0.00 0.00 0.00 0.02 0.04 0.07 0.06 0.04 0.03 0.02 0.01 0.02 0.04 0.05 0.04 0.10 0.14 0.09 0.01 0.00 0.00 0.00 0.02 0.04 0.08 0.07 0.05 0.03 0.03 0.05
0.00 0.00 0.00 0.00 0.00 0.00 0.00 0.00 0.00 0.00 0.00 0.01 0.02 0.06 0.08 0.08 0.06 0.06 0.15 0.10 0.06 0.08 0.07 0.05 0.07 0.08 0.06 0.06 0.15 0.22 0.12 0.05 0.01 0.01 0.01 0.02 0.03 0.07 0.09 0.05 0.04 0.05 0.03
0.00 0.00 0.00 0.00 0.00 0.00 0.00 0.00 0.00 0.00 0.01 0.02 0.06 0.13 0.20 0.18 0.16 0.15 0.28 0.31 0.23 0.15 0.09 0.15 0.18 0.14 0.11 0.10 0.08 0.10 0.12 0.07 0.03 0.02 0.02 0.03 0.04 0.12 0.14 0.08 0.10 0.10 0.03
0.00 0.00 0.00 0.00 0.00 0.00 0.00 0.00 0.00 0.00 0.01 0.02 0.06 0.15 0.21 0.17 0.09 0.13 0.26 0.24 0.18 0.14 0.20 0.18 0.21 0.12 0.05 0.02 0.02 0.01 0.02 0.03 0.02 0.03 0.06 0.09 0.09 0.13 0.13 0.11 0.13 0.12 0.07
0.00 0.00 0.00 0.00 0.00 0.00 0.01 0.02 0.02 0.03 0.02 0.01 0.04 0.20 0.27 0.21 0.16 0.15 0.17 0.15 0.08 0.15 0.27 0.23 0.13 0.05 0.03 0.03 0.03 0.02 0.02 0.04 0.04 0.02 0.01 0.11 0.11 0.11 0.13 0.14 0.17 0.15 0.15
0.00 0.00 0.00 0.00 0.01 0.02 0.05 0.08 0.13 0.14 0.16 0.17 0.16 0.21 0.28 0.28 0.24 0.24 0.26 0.20 0.20 0.25 0.31 0.20 0.09 0.04 0.03 0.01 0.01 0.02 0.04 0.06 0.06 0.04 0.02 0.06 0.10 0.07 0.08 0.10 0.14 0.13 0.17
0.00 0.01 0.01 0.03 0.05 0.12 0.16 0.12 0.11 0.13 0.16 0.18 0.24 0.19 0.18 0.23 0.22 0.28 0.28 0.25 0.30 0.30 0.26 0.17 0.09 0.04 0.02 0.01 0.00 0.00 0.01 0.02 0.01 0.01 0.02 0.02 0.03 0.07 0.09 0.11 0.11 0.09 0.11
0.01 0.02 0.04 0.06 0.10 0.12 0.10 0.05 0.03 0.04 0.09 0.09 0.12 0.10 0.05 0.09 0.11 0.15 0.17 0.18 0.18 0.19 0.20 0.13 0.07 0.04 0.02 0.01 0.01 0.00 0.00 0.01 0.01 0.01 0.01 0.01 0.00 0.04 0.16 0.18 0.16 0.13 0.12
0.05 0.09 0.13 0.13 0.09 0.06 0.05 0.03 0.03 0.03 0.05 0.04 0.03 0.03 0.02 0.01 0.02 0.06 0.08 0.09 0.09 0.11 0.12 0.08 0.05 0.04 0.02 0.02 0.02 0.01 0.01 0.02 0.03 0.02 0.02 0.02 0.01 0.01 0.04 0.09 0.15 0.15 0.14
0.09 0.12 0.14 0.11 0.05 0.02 0.01 0.02 0.01 0.01 0.00 0.00 0.00 0.01 0.00 0.00 0.00 0.01 0.02 0.02 0.01 0.01 0.03 0.04 0.06 0.06 0.04 0.03 0.02 0.02 0.02 0.01 0.02 0.05 0.06 0.03 0.02 0.03 0.03 0.03 0.09 0.13 0.13
0.06 0.10 0.10 0.08 0.03 0.00 0.00 0.00 0.00 0.00 0.00 0.00 0.00 0.00 0.00 0.00 0.00 0.00 0.00 0.00 0.00 0.00 0.00 0.00 0.01 0.02 0.02 0.03 0.03 0.02 0.02 0.02 0.03 0.06 0.06 0.02 0.03 0.10 0.13 0.08 0.08 0.18 0.23
0.06 0.07 0.03 0.02 0.01 0.00 0.00 0.00 0.00 0.00 0.00 0.00 0.00 0.00 0.00 0.00 0.00 0.00 0.00 0.00 0.00 0.00 0.00 0.00 0.00 0.00 0.00 0.00 0.01 0.01 0.00 0.00 0.01 0.03 0.05 0.05 0.06 0.13 0.15 0.12 0.13 0.19 0.18
0.05 0.05 0.02 0.01 0.01 0.00 0.00 0.00 0.00 0.00 0.00 0.00 0.00 0.00 0.00 0.00 0.00 0.00 0.00 0.00 0.00 0.00 0.00 0.00 0.00 0.00 0.00 0.00 0.00 0.00 0.01 0.00 0.00 0.02 0.06 0.08 0.09 0.12 0.09 0.10 0.11 0.12 0.16
0.05 0.06 0.09 0.08 0.02 0.00 0.00 0.00 0.00 0.00 0.00 0.00 0.00 0.00 0.00 0.00 0.00 0.00 0.00 0.00 0.00 0.00 0.00 0.00 0.00 0.01 0.01 0.01 0.00 0.01 0.01 0.01 0.02 0.02 0.05 0.11 0.13 0.12 0.11 0.09 0.07 0.10 0.12
0.10 0.19 0.32 0.23 0.08 0.04 0.02 0.01 0.01 0.00 0.00 0.00 0.00 0.00 0.00 0.00 0.00 0.00 0.00 0.00 0.00 0.00 0.00 0.00 0.00 0.01 0.02 0.02 0.03 0.03 0.03 0.04 0.06 0.07 0.04 0.07 0.12 0.08 0.05 0.04 0.02 0.04 0.05
0.16 0.17 0.19 0.19 0.23 0.18 0.14 0.10 0.09 0.06 0.04 0.02 0.01 0.00 0.00 0.00 0.00 0.00 0.00 0.00 0.00 0.00 0.00 0.00 0.01 0.02 0.03 0.04 0.05 0.06 0.05 0.04 0.04 0.09 0.08 0.08 0.07 0.03 0.04 0.05 0.05 0.05 0.05

GEFSSE_prec_meanprec_012.txt.gz
QPF
0.00 0.00 0.00 0.00 0.00 0.00 0.00 0.00 0.00 0.00 0.00 0.00 0.00 0.00 0.00 0.00 0.00 0.00 0.00 0.00 0.00 0.00 0.00 0.00 0.00 0.00 0.00 0.00 0.00 0.00 0.00 0.00 0.00 0.00 0.01 0.01 0.01 0.00 0.00 0.00 0.00 0.00 0.00
0.00 0.00 0.00 0.00 0.00 0.00 0.00 0.00 0.00 0.00 0.00 0.00 0.00 0.00 0.00 0.00 0.00 0.00 0.00 0.00 0.00 0.01 0.00 0.00 0.00 0.00 0.00 0.00 0.00 0.00 0.00 0.00 0.00 0.00 0.00 0.00 0.00 0.00 0.00 0.00 0.00 0.00 0.00
0.00 0.00 0.00 0.00 0.00 0.00 0.00 0.00 0.00 0.00 0.00 0.00 0.00 0.00 0.00 0.00 0.00 0.00 0.00 0.00 0.00 0.00 0.00 0.00 0.00 0.00 0.00 0.00 0.00 0.00 0.00 0.00 0.00 0.00 0.00 0.01 0.01 0.00 0.00 0.00 0.00 0.00 0.00
0.00 0.00 0.00 0.00 0.00 0.00 0.00 0.00 0.00 0.00 0.00 0.00 0.00 0.00 0.00 0.00 0.00 0.00 0.00 0.00 0.00 0.00 0.00 0.00 0.00 0.00 0.00 0.00 0.00 0.00 0.00 0.00 0.00 0.00 0.02 0.14 0.12 0.01 0.01 0.00 0.00 0.00 0.00
0.00 0.00 0.00 0.00 0.00 0.00 0.00 0.00 0.00 0.00 0.00 0.00 0.00 0.00 0.00 0.00 0.00 0.00 0.00 0.00 0.00 0.00 0.00 0.00 0.00 0.00 0.00 0.00 0.00 0.00 0.00 0.00 0.00 0.00 0.02 0.13 0.11 0.03 0.02 0.00 0.00 0.00 0.00
0.00 0.00 0.00 0.00 0.00 0.00 0.00 0.00 0.00 0.00 0.00 0.00 0.00 0.00 0.00 0.00 0.00 0.00 0.00 0.00 0.00 0.00 0.00 0.00 0.00 0.00 0.00 0.00 0.00 0.00 0.00 0.00 0.00 0.00 0.00 0.03 0.02 0.04 0.03 0.02 0.00 0.00 0.00
0.00 0.00 0.00 0.00 0.00 0.00 0.00 0.00 0.00 0.00 0.00 0.00 0.00 0.00 0.00 0.00 0.00 0.00 0.00 0.00 0.00 0.00 0.00 0.00 0.00 0.00 0.00 0.00 0.00 0.00 0.00 0.00 0.00 0.00 0.00 0.01 0.01 0.05 0.05 0.02 0.00 0.00 0.00
0.00 0.00 0.00 0.00 0.00 0.00 0.00 0.00 0.00 0.00 0.00 0.00 0.00 0.00 0.00 0.00 0.00 0.00 0.00 0.00 0.00 0.00 0.00 0.00 0.00 0.00 0.00 0.00 0.00 0.00 0.00 0.00 0.00 0.00 0.00 0.01 0.03 0.06 0.07 0.03 0.01 0.00 0.00
0.00 0.00 0.00 0.00 0.00 0.00 0.00 0.00 0.00 0.00 0.00 0.00 0.00 0.00 0.00 0.00 0.00 0.00 0.00 0.00 0.00 0.00 0.00 0.00 0.00 0.00 0.00 0.00 0.00 0.00 0.00 0.00 0.00 0.00 0.00 0.00 0.03 0.08 0.13 0.07 0.03 0.01 0.01
0.00 0.00 0.00 0.00 0.00 0.00 0.00 0.00 0.00 0.00 0.00 0.00 0.00 0.00 0.00 0.00 0.00 0.00 0.00 0.00 0.00 0.00 0.00 0.00 0.00 0.00 0.00 0.00 0.00 0.00 0.00 0.00 0.00 0.00 0.00 0.00 0.03 0.12 0.15 0.09 0.05 0.05 0.04
0.00 0.00 0.00 0.00 0.00 0.00 0.00 0.00 0.00 0.00 0.00 0.00 0.00 0.00 0.00 0.00 0.00 0.00 0.00 0.02 0.04 0.05 0.05 0.06 0.04 0.02 0.01 0.01 0.01 0.03 0.02 0.00 0.00 0.00 0.00 0.00 0.04 0.15 0.16 0.12 0.09 0.08 0.06
0.00 0.00 0.00 0.00 0.00 0.00 0.00 0.00 0.00 0.00 0.00 0.00 0.00 0.00 0.00 0.00 0.00 0.01 0.02 0.08 0.17 0.20 0.15 0.14 0.18 0.13 0.06 0.01 0.02 0.07 0.04 0.02 0.01 0.02 0.02 0.01 0.05 0.17 0.20 0.15 0.11 0.09 0.08
0.00 0.00 0.00 0.00 0.00 0.00 0.00 0.00 0.00 0.00 0.00 0.00 0.00 0.00 0.01 0.02 0.02 0.03 0.05 0.09 0.14 0.14 0.09 0.13 0.20 0.13 0.09 0.08 0.06 0.09 0.12 0.12 0.08 0.08 0.09 0.08 0.10 0.18 0.21 0.13 0.10 0.08 0.06
0.00 0.00 0.00 0.00 0.00 0.00 0.00 0.00 0.00 0.00 0.00 0.01 0.01 0.03 0.07 0.09 0.10 0.12 0.11 0.06 0.05 0.04 0.06 0.06 0.07 0.09 0.13 0.14 0.14 0.19 0.26 0.25 0.20 0.19 0.23 0.24 0.19 0.18 0.20 0.15 0.10 0.06 0.04
0.02 0.03 0.02 0.01 0.01 0.01 0.01 0.01 0.01 0.02 0.03 0.04 0.05 0.07 0.08 0.10 0.15 0.18 0.14 0.09 0.07 0.10 0.09 0.08 0.09 0.13 0.17 0.21 0.26 0.34 0.34 0.23 0.18 0.17 0.20 0.23 0.22 0.17 0.17 0.17 0.14 0.10 0.06
0.12 0.17 0.16 0.10 0.05 0.04 0.05 0.06 0.06 0.07 0.07 0.08 0.08 0.07 0.08 0.11 0.15 0.14 0.12 0.11 0.10 0.10 0.07 0.06 0.08 0.14 0.18 0.21 0.17 0.17 0.16 0.15 0.15 0.10 0.10 0.12 0.17 0.16 0.17 0.20 0.20 0.17 0.14
0.42 0.56 0.60 0.46 0.32 0.21 0.18 0.17 0.16 0.13 0.11 0.09 0.06 0.06 0.08 0.11 0.09 0.08 0.08 0.08 0.07 0.04 0.03 0.03 0.05 0.09 0.12 0.12 0.08 0.05 0.04 0.04 0.05 0.04 0.03 0.03 0.08 0.14 0.15 0.17 0.19 0.18 0.16
1.04 1.31 1.40 1.24 0.91 0.53 0.33 0.25 0.19 0.15 0.12 0.08 0.05 0.03 0.04 0.04 0.02 0.02 0.02 0.03 0.03 0.02 0.01 0.02 0.03 0.03 0.04 0.04 0.03 0.02 0.01 0.02 0.03 0.02 0.02 0.02 0.03 0.05 0.09 0.16 0.18 0.17 0.17
2.28 2.65 2.42 1.84 1.32 0.77 0.41 0.21 0.15 0.11 0.08 0.06 0.04 0.02 0.01 0.01 0.00 0.00 0.00 0.01 0.01 0.01 0.00 0.01 0.01 0.01 0.01 0.01 0.00 0.00 0.01 0.01 0.01 0.01 0.01 0.02 0.03 0.04 0.04 0.07 0.12 0.13 0.18
2.99 3.53 3.29 2.53 1.68 1.06 0.68 0.41 0.21 0.11 0.05 0.03 0.02 0.01 0.00 0.00 0.00 0.00 0.00 0.00 0.00 0.00 0.00 0.00 0.00 0.00 0.00 0.00 0.00 0.00 0.00 0.00 0.00 0.00 0.00 0.00 0.01 0.02 0.03 0.03 0.04 0.06 0.14
2.47 2.83 2.79 2.12 1.50 1.04 0.63 0.30 0.14 0.08 0.03 0.01 0.01 0.00 0.00 0.00 0.00 0.00 0.00 0.00 0.00 0.00 0.00 0.00 0.00 0.00 0.00 0.00 0.00 0.00 0.00 0.00 0.00 0.00 0.00 0.00 0.01 0.01 0.02 0.03 0.04 0.05 0.06
1.56 1.66 1.31 0.97 0.73 0.52 0.33 0.20 0.12 0.06 0.03 0.01 0.01 0.00 0.00 0.00 0.00 0.00 0.00 0.00 0.00 0.00 0.00 0.00 0.00 0.00 0.00 0.00 0.00 0.00 0.00 0.00 0.00 0.00 0.00 0.01 0.02 0.02 0.04 0.06 0.07 0.05 0.06
0.97 0.84 0.57 0.40 0.38 0.31 0.22 0.12 0.08 0.05 0.02 0.01 0.01 0.01 0.00 0.00 0.00 0.00 0.00 0.00 0.00 0.00 0.00 0.00 0.00 0.00 0.00 0.00 0.00 0.00 0.01 0.00 0.00 0.00 0.00 0.01 0.02 0.03 0.04 0.06 0.07 0.06 0.07
0.42 0.40 0.39 0.38 0.31 0.21 0.17 0.09 0.05 0.03 0.02 0.01 0.02 0.01 0.01 0.01 0.00 0.00 0.00 0.00 0.00 0.00 0.00 0.00 0.00 0.00 0.00 0.00 0.00 0.00 0.01 0.02 0.02 0.01 0.00 0.00 0.01 0.01 0.02 0.03 0.04 0.05 0.07
0.18 0.26 0.33 0.38 0.31 0.20 0.15 0.12 0.11 0.10 0.08 0.06 0.05 0.04 0.03 0.02 0.02 0.01 0.00 0.00 0.00 0.00 0.00 0.00 0.00 0.00 0.00 0.00 0.00 0.00 0.00 0.01 0.02 0.02 0.01 0.00 0.01 0.01 0.01 0.01 0.02 0.03 0.06
0.10 0.16 0.23 0.29 0.31 0.30 0.28 0.22 0.18 0.18 0.16 0.14 0.12 0.10 0.09 0.07 0.06 0.03 0.01 0.01 0.01 0.00 0.00 0.00 0.00 0.00 0.00 0.00 0.00 0.00 0.00 0.00 0.00 0.01 0.01 0.01 0.01 0.00 0.00 0.02 0.04 0.06 0.10

GEFSSE_prec_meanprec_018.txt.gz
QPF
0.00 0.00 0.00 0.00 0.00 0.00 0.00 0.00 0.00 0.00 0.00 0.00 0.00 0.00 0.00 0.00 0.00 0.00 0.00 0.00 0.00 0.00 0.00 0.00 0.00 0.00 0.00 0.00 0.00 0.00 0.00 0.00 0.00 0.00 0.00 0.02 0.03 0.02 0.01 0.01 0.01 0.01 0.01
0.00 0.00 0.00 0.00 0.00 0.00 0.00 0.00 0.00 0.00 0.00 0.00 0.00 0.00 0.00 0.00 0.00 0.00 0.00 0.00 0.00 0.00 0.00 0.00 0.00 0.00 0.00 0.00 0.00 0.00 0.00 0.00 0.00 0.00 0.00 0.01 0.03 0.05 0.02 0.00 0.00 0.01 0.01
0.00 0.00 0.00 0.00 0.00 0.00 0.00 0.00 0.00 0.00 0.00 0.00 0.00 0.00 0.00 0.00 0.00 0.00 0.00 0.00 0.00 0.00 0.00 0.00 0.00 0.00 0.00 0.00 0.00 0.00 0.00 0.00 0.00 0.00 0.00 0.00 0.01 0.04 0.05 0.01 0.00 0.00 0.00
0.00 0.00 0.00 0.00 0.00 0.00 0.00 0.00 0.00 0.00 0.00 0.00 0.00 0.00 0.00 0.00 0.00 0.00 0.00 0.00 0.00 0.00 0.00 0.00 0.00 0.00 0.00 0.00 0.00 0.00 0.00 0.00 0.00 0.00 0.00 0.00 0.00 0.01 0.04 0.02 0.00 0.00 0.00
0.00 0.00 0.00 0.00 0.00 0.00 0.00 0.00 0.00 0.00 0.00 0.00 0.00 0.00 0.00 0.00 0.00 0.00 0.00 0.00 0.00 0.00 0.00 0.00 0.00 0.00 0.00 0.00 0.00 0.00 0.00 0.00 0.00 0.00 0.00 0.00 0.00 0.00 0.01 0.01 0.00 0.00 0.00
0.00 0.00 0.00 0.00 0.00 0.00 0.00 0.00 0.00 0.00 0.00 0.00 0.00 0.00 0.00 0.00 0.00 0.00 0.00 0.00 0.00 0.00 0.00 0.00 0.00 0.00 0.00 0.00 0.00 0.00 0.00 0.00 0.00 0.00 0.00 0.01 0.00 0.01 0.01 0.01 0.00 0.00 0.00
0.00 0.00 0.00 0.00 0.00 0.00 0.00 0.00 0.00 0.00 0.00 0.00 0.00 0.00 0.00 0.00 0.00 0.00 0.00 0.00 0.00 0.00 0.00 0.00 0.00 0.00 0.00 0.00 0.00 0.00 0.00 0.00 0.00 0.00 0.00 0.01 0.01 0.01 0.02 0.02 0.01 0.00 0.00
0.00 0.00 0.00 0.00 0.00 0.00 0.00 0.00 0.00 0.00 0.00 0.00 0.00 0.00 0.00 0.00 0.00 0.00 0.00 0.00 0.00 0.00 0.00 0.00 0.00 0.00 0.00 0.00 0.00 0.00 0.00 0.00 0.00 0.00 0.00 0.01 0.01 0.01 0.06 0.06 0.03 0.01 0.00
0.00 0.00 0.00 0.00 0.00 0.00 0.00 0.00 0.00 0.00 0.00 0.00 0.00 0.00 0.00 0.00 0.00 0.00 0.00 0.00 0.00 0.00 0.00 0.00 0.00 0.00 0.00 0.00 0.00 0.00 0.00 0.00 0.00 0.00 0.00 0.00 0.00 0.02 0.12 0.13 0.08 0.04 0.02
0.00 0.00 0.00 0.00 0.00 0.01 0.01 0.01 0.01 0.01 0.01 0.01 0.00 0.00 0.00 0.00 0.00 0.00 0.00 0.00 0.00 0.00 0.00 0.00 0.00 0.00 0.00 0.01 0.01 0.00 0.00 0.00 0.01 0.01 0.00 0.00 0.00 0.03 0.13 0.18 0.14 0.10 0.08
0.00 0.00 0.01 0.01 0.01 0.01 0.01 0.01 0.02 0.02 0.02 0.02 0.01 0.01 0.01 0.00 0.00 0.00 0.00 0.00 0.00 0.01 0.01 0.01 0.01 0.02 0.02 0.01 0.01 0.01 0.01 0.00 0.01 0.01 0.00 0.00 0.01 0.05 0.14 0.23 0.19 0.14 0.14
0.00 0.01 0.01 0.01 0.02 0.03 0.03 0.04 0.04 0.04 0.04 0.03 0.01 0.01 0.01 0.00 0.00 0.00 0.00 0.01 0.04 0.08 0.11 0.14 0.19 0.16 0.09 0.03 0.02 0.02 0.01 0.01 0.01 0.01 0.01 0.02 0.04 0.06 0.10 0.15 0.17 0.17 0.16
0.00 0.01 0.01 0.01 0.02 0.03 0.05 0.05 0.05 0.05 0.04 0.03 0.02 0.01 0.01 0.01 0.01 0.01 0.01 0.02 0.08 0.17 0.17 0.21 0.31 0.16 0.09 0.08 0.08 0.05 0.05 0.05 0.05 0.07 0.05 0.05 0.08 0.11 0.13 0.13 0.15 0.17 0.15
0.03 0.08 0.11 0.08 0.05 0.05 0.05 0.05 0.05 0.05 0.04 0.05 0.05 0.05 0.05 0.08 0.12 0.13 0.11 0.08 0.10 0.15 0.20 0.23 0.23 0.16 0.11 0.11 0.14 0.15 0.18 0.14 0.10 0.09 0.06 0.06 0.13 0.15 0.16 0.15 0.15 0.17 0.17
0.13 0.24 0.29 0.26 0.20 0.16 0.09 0.06 0.05 0.06 0.08 0.11 0.13 0.14 0.16 0.21 0.25 0.27 0.22 0.15 0.14 0.17 0.19 0.25 0.25 0.24 0.25 0.29 0.27 0.27 0.29 0.17 0.10 0.07 0.04 0.06 0.13 0.15 0.17 0.19 0.17 0.19 0.21
0.25 0.36 0.44 0.55 0.57 0.47 0.32 0.21 0.18 0.19 0.19 0.23 0.26 0.29 0.29 0.28 0.30 0.25 0.19 0.14 0.11 0.12 0.14 0.18 0.18 0.19 0.19 0.18 0.16 0.14 0.14 0.11 0.09 0.06 0.03 0.02 0.04 0.08 0.11 0.15 0.17 0.19 0.23
0.38 0.50 0.62 0.77 0.90 0.91 0.78 0.62 0.51 0.44 0.41 0.42 0.39 0.35 0.32 0.26 0.24 0.19 0.12 0.09 0.07 0.07 0.08 0.11 0.11 0.08 0.07 0.06 0.04 0.03 0.04 0.04 0.03 0.03 0.02 0.01 0.01 0.01 0.03 0.06 0.10 0.15 0.19
0.50 0.64 0.77 0.91 1.06 1.11 1.04 0.99 0.92 0.85 0.75 0.64 0.52 0.38 0.27 0.21 0.15 0.11 0.06 0.04 0.02 0.02 0.02 0.03 0.03 0.03 0.03 0.02 0.01 0.01 0.01 0.01 0.01 0.01 0.01 0.01 0.01 0.01 0.01 0.02 0.04 0.08 0.12
0.40 0.53 0.67 0.86 1.11 1.18 1.08 1.07 1.08 1.12 0.98 0.77 0.58 0.41 0.26 0.18 0.12 0.08 0.04 0.02 0.01 0.00 0.00 0.00 0.00 0.00 0.00 0.00 0.00 0.00 0.00 0.00 0.00 0.00 0.00 0.00 0.00 0.00 0.00 0.00 0.01 0.03 0.06
0.23 0.36 0.52 0.68 0.90 1.03 1.05 1.05 1.08 1.11 0.96 0.70 0.47 0.31 0.23 0.15 0.09 0.05 0.02 0.01 0.00 0.00 0.00 0.00 0.00 0.00 0.00 0.00 0.00 0.00 0.00 0.00 0.00 0.00 0.00 0.00 0.00 0.00 0.00 0.00 0.01 0.01 0.02
0.11 0.17 0.23 0.31 0.48 0.66 0.78 0.73 0.69 0.70 0.60 0.42 0.29 0.20 0.14 0.10 0.06 0.03 0.01 0.00 0.00 0.00 0.00 0.00 0.00 0.00 0.00 0.00 0.00 0.00 0.00 0.00 0.00 0.00 0.00 0.00 0.00 0.00 0.00 0.00 0.00 0.00 0.00
0.03 0.03 0.04 0.11 0.18 0.26 0.34 0.30 0.26 0.27 0.25 0.20 0.16 0.12 0.09 0.07 0.05 0.04 0.01 0.00 0.00 0.00 0.00 0.00 0.00 0.00 0.00 0.00 0.00 0.00 0.00 0.00 0.00 0.00 0.00 0.00 0.00 0.00 0.00 0.00 0.00 0.00 0.00
0.02 0.01 0.02 0.05 0.08 0.10 0.10 0.11 0.12 0.12 0.12 0.11 0.11 0.09 0.08 0.06 0.04 0.03 0.02 0.01 0.00 0.00 0.00 0.00 0.00 0.00 0.00 0.00 0.00 0.00 0.00 0.00 0.00 0.00 0.00 0.00 0.00 0.00 0.00 0.00 0.00 0.00 0.00
0.01 0.01 0.04 0.06 0.08 0.08 0.08 0.09 0.09 0.08 0.08 0.08 0.09 0.08 0.09 0.07 0.05 0.04 0.03 0.02 0.01 0.00 0.00 0.00 0.00 0.00 0.00 0.00 0.00 0.00 0.00 0.00 0.00 0.00 0.00 0.00 0.00 0.00 0.00 0.00 0.00 0.00 0.00
0.01 0.01 0.03 0.05 0.06 0.07 0.09 0.09 0.09 0.09 0.09 0.10 0.11 0.12 0.12 0.12 0.10 0.07 0.06 0.06 0.05 0.02 0.01 0.00 0.00 0.00 0.00 0.00 0.00 0.00 0.00 0.00 0.00 0.00 0.00 0.00 0.00 0.00 0.00 0.00 0.00 0.00 0.00
0.00 0.00 0.01 0.02 0.02 0.03 0.04 0.05 0.06 0.08 0.10 0.12 0.13 0.13 0.14 0.16 0.18 0.17 0.16 0.17 0.18 0.11 0.06 0.03 0.01 0.00 0.00 0.00 0.00 0.00 0.00 0.00 0.00 0.00 0.00 0.00 0.00 0.00 0.00 0.00 0.00 0.00 0.00

GEFSSE_prec_meanprec_024.txt.gz
QPF
0.00 0.00 0.00 0.00 0.00 0.00 0.00 0.00 0.00 0.00 0.00 0.00 0.00 0.00 0.00 0.00 0.00 0.00 0.00 0.00 0.00 0.00 0.00 0.00 0.00 0.00 0.00 0.00 0.00 0.01 0.01 0.01 0.01 0.00 0.00 0.00 0.01 0.02 0.03 0.03 0.03 0.04 0.03
0.00 0.00 0.00 0.00 0.00 0.00 0.00 0.00 0.00 0.00 0.00 0.00 0.00 0.00 0.00 0.00 0.00 0.00 0.00 0.00 0.00 0.00 0.00 0.00 0.00 0.00 0.00 0.00 0.00 0.00 0.00 0.00 0.00 0.00 0.00 0.00 0.01 0.01 0.01 0.00 0.02 0.04 0.02
0.00 0.00 0.00 0.00 0.00 0.00 0.00 0.00 0.00 0.00 0.00 0.00 0.00 0.00 0.00 0.00 0.00 0.00 0.00 0.00 0.00 0.00 0.00 0.00 0.00 0.00 0.00 0.00 0.00 0.00 0.00 0.00 0.00 0.01 0.01 0.02 0.01 0.01 0.00 0.00 0.00 0.01 0.01
0.00 0.00 0.00 0.00 0.00 0.00 0.00 0.00 0.00 0.00 0.00 0.00 0.00 0.00 0.00 0.00 0.00 0.00 0.00 0.00 0.00 0.00 0.01 0.01 0.01 0.01 0.00 0.00 0.00 0.00 0.00 0.00 0.01 0.01 0.02 0.01 0.02 0.01 0.01 0.00 0.00 0.00 0.00
0.00 0.00 0.00 0.00 0.00 0.00 0.00 0.00 0.00 0.00 0.00 0.00 0.00 0.00 0.00 0.00 0.00 0.00 0.00 0.00 0.01 0.01 0.02 0.01 0.01 0.01 0.01 0.00 0.00 0.00 0.00 0.00 0.01 0.00 0.00 0.01 0.06 0.03 0.01 0.01 0.00 0.00 0.00
0.00 0.00 0.00 0.00 0.00 0.00 0.00 0.00 0.00 0.00 0.00 0.00 0.00 0.00 0.00 0.00 0.01 0.01 0.01 0.01 0.01 0.02 0.02 0.01 0.01 0.01 0.01 0.00 0.00 0.00 0.00 0.00 0.01 0.01 0.00 0.00 0.02 0.02 0.02 0.01 0.01 0.00 0.00
0.00 0.00 0.00 0.00 0.00 0.00 0.00 0.00 0.00 0.00 0.00 0.00 0.00 0.00 0.00 0.00 0.01 0.01 0.01 0.01 0.01 0.01 0.00 0.00 0.00 0.00 0.00 0.00 0.00 0.00 0.00 0.00 0.00 0.02 0.02 0.01 0.01 0.02 0.03 0.02 0.01 0.01 0.00
0.00 0.00 0.00 0.01 0.01 0.00 0.00 0.00 0.00 0.00 0.00 0.00 0.00 0.00 0.00 0.00 0.00 0.00 0.00 0.00 0.00 0.00 0.00 0.00 0.00 0.00 0.00 0.00 0.00 0.00 0.00 0.00 0.00 0.00 0.01 0.02 0.02 0.01 0.04 0.05 0.02 0.01 0.01
0.00 0.00 0.01 0.01 0.01 0.01 0.01 0.00 0.00 0.00 0.00 0.00 0.00 0.00 0.00 0.00 0.00 0.00 0.00 0.00 0.00 0.00 0.00 0.00 0.00 0.00 0.00 0.00 0.00 0.00 0.00 0.00 0.00 0.00 0.00 0.01 0.01 0.01 0.10 0.16 0.12 0.04 0.01
0.00 0.00 0.01 0.02 0.03 0.04 0.03 0.02 0.01 0.01 0.01 0.00 0.00 0.00 0.00 0.00 0.00 0.00 0.00 0.00 0.00 0.00 0.00 0.00 0.00 0.00 0.00 0.01 0.01 0.01 0.01 0.01 0.00 0.00 0.00 0.00 0.00 0.02 0.11 0.21 0.25 0.20 0.09
0.01 0.01 0.02 0.03 0.04 0.06 0.06 0.05 0.04 0.04 0.04 0.02 0.01 0.01 0.00 0.00 0.00 0.00 0.00 0.00 0.00 0.00 0.00 0.00 0.01 0.01 0.01 0.01 0.01 0.02 0.03 0.02 0.01 0.01 0.01 0.01 0.01 0.02 0.07 0.16 0.21 0.23 0.20
0.01 0.01 0.02 0.02 0.03 0.05 0.05 0.06 0.08 0.08 0.09 0.08 0.06 0.05 0.04 0.03 0.01 0.01 0.01 0.00 0.00 0.01 0.01 0.01 0.03 0.03 0.02 0.02 0.03 0.03 0.02 0.01 0.01 0.01 0.01 0.01 0.02 0.02 0.04 0.08 0.13 0.17 0.21
0.01 0.01 0.01 0.01 0.02 0.04 0.06 0.06 0.07 0.08 0.09 0.10 0.11 0.11 0.11 0.09 0.06 0.04 0.04 0.02 0.01 0.02 0.02 0.04 0.06 0.04 0.04 0.05 0.07 0.06 0.03 0.02 0.02 0.01 0.01 0.01 0.02 0.04 0.05 0.06 0.08 0.12 0.18
0.03 0.03 0.02 0.01 0.01 0.02 0.03 0.04 0.05 0.06 0.08 0.09 0.12 0.15 0.18 0.16 0.12 0.10 0.08 0.06 0.05 0.04 0.05 0.06 0.10 0.09 0.08 0.09 0.11 0.11 0.09 0.04 0.02 0.01 0.01 0.01 0.03 0.08 0.09 0.10 0.10 0.11 0.15
0.07 0.09 0.08 0.06 0.04 0.02 0.02 0.02 0.02 0.04 0.05 0.07 0.12 0.16 0.21 0.20 0.17 0.17 0.14 0.13 0.09 0.10 0.12 0.11 0.12 0.12 0.11 0.12 0.16 0.14 0.11 0.07 0.04 0.02 0.02 0.02 0.05 0.07 0.08 0.10 0.12 0.13 0.16
0.07 0.09 0.10 0.11 0.08 0.05 0.03 0.02 0.02 0.02 0.03 0.06 0.10 0.14 0.20 0.21 0.20 0.20 0.17 0.17 0.16 0.20 0.27 0.26 0.24 0.24 0.23 0.20 0.15 0.11 0.11 0.10 0.08 0.05 0.03 0.04 0.04 0.05 0.05 0.06 0.08 0.09 0.13
0.06 0.07 0.08 0.07 0.05 0.04 0.03 0.02 0.03 0.03 0.04 0.07 0.11 0.15 0.19 0.21 0.23 0.26 0.25 0.22 0.22 0.27 0.31 0.29 0.30 0.32 0.26 0.21 0.17 0.14 0.12 0.10 0.09 0.06 0.03 0.03 0.03 0.02 0.02 0.02 0.03 0.04 0.05
0.04 0.05 0.05 0.05 0.03 0.02 0.02 0.02 0.03 0.05 0.08 0.11 0.16 0.19 0.21 0.25 0.32 0.34 0.29 0.24 0.24 0.25 0.22 0.22 0.24 0.27 0.28 0.29 0.27 0.22 0.19 0.16 0.10 0.06 0.05 0.04 0.03 0.01 0.01 0.01 0.01 0.01 0.02
0.02 0.02 0.02 0.02 0.01 0.01 0.01 0.02 0.04 0.08 0.14 0.23 0.31 0.34 0.32 0.32 0.36 0.37 0.32 0.25 0.20 0.17 0.14 0.13 0.14 0.17 0.19 0.21 0.21 0.20 0.19 0.16 0.11 0.07 0.05 0.03 0.03 0.02 0.02 0.02 0.00 0.00 0.00
0.01 0.01 0.01 0.00 0.00 0.00 0.03 0.06 0.08 0.11 0.18 0.31 0.44 0.47 0.40 0.36 0.37 0.34 0.29 0.23 0.17 0.14 0.11 0.08 0.08 0.09 0.09 0.10 0.07 0.08 0.08 0.06 0.05 0.03 0.02 0.01 0.01 0.01 0.00 0.01 0.01 0.00 0.00
0.00 0.00 0.00 0.00 0.00 0.00 0.02 0.04 0.06 0.09 0.14 0.25 0.36 0.39 0.39 0.37 0.35 0.30 0.24 0.19 0.14 0.10 0.06 0.04 0.04 0.04 0.04 0.04 0.03 0.03 0.02 0.01 0.01 0.01 0.00 0.00 0.00 0.00 0.00 0.00 0.00 0.00 0.00
0.00 0.00 0.00 0.00 0.00 0.00 0.01 0.02 0.02 0.04 0.06 0.10 0.14 0.17 0.19 0.24 0.27 0.25 0.22 0.17 0.12 0.09 0.05 0.03 0.02 0.02 0.02 0.02 0.01 0.01 0.01 0.01 0.00 0.00 0.00 0.00 0.00 0.00 0.00 0.00 0.00 0.00 0.00
0.00 0.00 0.00 0.00 0.00 0.00 0.00 0.01 0.02 0.03 0.05 0.07 0.09 0.09 0.10 0.12 0.16 0.17 0.17 0.16 0.12 0.08 0.06 0.04 0.02 0.01 0.01 0.01 0.00 0.00 0.00 0.00 0.00 0.00 0.00 0.00 0.00 0.00 0.00 0.00 0.00 0.00 0.00
0.00 0.00 0.00 0.00 0.00 0.00 0.00 0.00 0.01 0.01 0.02 0.03 0.04 0.05 0.06 0.07 0.08 0.10 0.11 0.12 0.11 0.09 0.08 0.05 0.03 0.02 0.01 0.00 0.00 0.00 0.00 0.00 0.00 0.00 0.00 0.00 0.00 0.00 0.00 0.00 0.00 0.00 0.00
0.00 0.00 0.00 0.00 0.00 0.00 0.00 0.00 0.00 0.00 0.00 0.01 0.01 0.02 0.04 0.06 0.07 0.08 0.09 0.08 0.08 0.09 0.09 0.07 0.06 0.03 0.02 0.00 0.00 0.00 0.00 0.00 0.00 0.00 0.00 0.00 0.00 0.00 0.00 0.00 0.00 0.00 0.00
0.00 0.00 0.00 0.00 0.00 0.00 0.00 0.00 0.00 0.00 0.00 0.00 0.00 0.01 0.02 0.03 0.05 0.07 0.09 0.11 0.10 0.10 0.08 0.07 0.06 0.04 0.03 0.01 0.00 0.00 0.00 0.00 0.00 0.00 0.00 0.00 0.00 0.00 0.00 0.00 0.00 0.00 0.00

GEFSSE_prec_meanprec_030.txt.gz
QPF
0.00 0.00 0.00 0.00 0.00 0.00 0.00 0.00 0.00 0.00 0.00 0.01 0.01 0.01 0.01 0.01 0.01 0.00 0.00 0.00 0.00 0.00 0.00 0.00 0.00 0.00 0.00 0.00 0.00 0.00 0.00 0.00 0.00 0.00 0.00 0.00 0.00 0.00 0.00 0.01 0.07 0.07 0.04
0.00 0.00 0.00 0.00 0.00 0.00 0.00 0.00 0.00 0.00 0.00 0.00 0.01 0.01 0.01 0.01 0.01 0.00 0.00 0.00 0.00 0.00 0.00 0.00 0.00 0.01 0.00 0.00 0.00 0.00 0.00 0.00 0.00 0.00 0.00 0.00 0.00 0.00 0.00 0.02 0.09 0.06 0.02
0.00 0.00 0.00 0.00 0.00 0.00 0.00 0.00 0.00 0.00 0.00 0.00 0.00 0.00 0.01 0.01 0.00 0.00 0.00 0.00 0.00 0.00 0.01 0.01 0.01 0.01 0.01 0.00 0.00 0.00 0.00 0.00 0.00 0.00 0.02 0.03 0.00 0.00 0.00 0.02 0.03 0.02 0.01
0.00 0.00 0.00 0.00 0.00 0.00 0.00 0.00 0.00 0.00 0.00 0.00 0.00 0.00 0.00 0.00 0.00 0.00 0.00 0.00 0.00 0.01 0.01 0.01 0.01 0.01 0.00 0.00 0.00 0.00 0.00 0.00 0.00 0.01 0.11 0.06 0.01 0.00 0.00 0.00 0.01 0.01 0.01
0.00 0.00 0.00 0.00 0.00 0.00 0.00 0.00 0.00 0.00 0.00 0.00 0.00 0.00 0.00 0.00 0.00 0.00 0.00 0.00 0.00 0.00 0.01 0.01 0.01 0.01 0.00 0.00 0.00 0.00 0.00 0.00 0.00 0.02 0.07 0.06 0.08 0.02 0.00 0.00 0.01 0.01 0.01
0.00 0.00 0.00 0.00 0.00 0.00 0.00 0.00 0.00 0.00 0.00 0.00 0.00 0.00 0.00 0.00 0.00 0.00 0.00 0.00 0.00 0.01 0.01 0.01 0.00 0.00 0.00 0.00 0.00 0.00 0.00 0.00 0.00 0.02 0.03 0.03 0.07 0.02 0.00 0.00 0.00 0.00 0.00
0.00 0.00 0.00 0.00 0.00 0.00 0.00 0.00 0.00 0.00 0.00 0.00 0.00 0.00 0.00 0.00 0.00 0.00 0.01 0.00 0.01 0.01 0.02 0.01 0.01 0.00 0.00 0.00 0.00 0.00 0.00 0.00 0.00 0.01 0.01 0.02 0.05 0.01 0.00 0.00 0.00 0.00 0.00
0.00 0.00 0.00 0.00 0.00 0.00 0.00 0.00 0.00 0.00 0.00 0.00 0.00 0.00 0.00 0.00 0.00 0.01 0.01 0.01 0.01 0.01 0.01 0.01 0.01 0.00 0.00 0.00 0.00 0.00 0.00 0.00 0.00 0.00 0.00 0.01 0.01 0.00 0.00 0.00 0.00 0.00 0.00
0.00 0.00 0.00 0.00 0.00 0.00 0.00 0.00 0.00 0.00 0.00 0.00 0.00 0.00 0.00 0.00 0.00 0.00 0.01 0.01 0.01 0.01 0.01 0.01 0.01 0.00 0.00 0.00 0.00 0.00 0.00 0.00 0.00 0.00 0.00 0.00 0.00 0.00 0.00 0.01 0.01 0.00 0.00
0.00 0.00 0.00 0.00 0.00 0.00 0.00 0.00 0.00 0.00 0.00 0.00 0.00 0.00 0.00 0.00 0.00 0.00 0.00 0.00 0.01 0.01 0.01 0.01 0.01 0.00 0.00 0.00 0.00 0.00 0.00 0.00 0.00 0.00 0.00 0.00 0.00 0.00 0.00 0.01 0.02 0.02 0.01
0.00 0.00 0.00 0.00 0.00 0.00 0.01 0.02 0.02 0.01 0.01 0.01 0.01 0.00 0.00 0.00 0.00 0.00 0.00 0.00 0.00 0.00 0.01 0.01 0.01 0.01 0.01 0.00 0.00 0.00 0.00 0.00 0.00 0.00 0.00 0.00 0.00 0.00 0.00 0.01 0.03 0.05 0.06
0.00 0.00 0.00 0.00 0.00 0.00 0.01 0.05 0.08 0.07 0.09 0.09 0.09 0.09 0.05 0.04 0.02 0.01 0.01 0.03 0.02 0.01 0.01 0.00 0.01 0.02 0.01 0.01 0.03 0.03 0.00 0.00 0.00 0.00 0.00 0.00 0.00 0.00 0.00 0.00 0.01 0.03 0.06
0.00 0.00 0.00 0.00 0.00 0.01 0.01 0.04 0.07 0.07 0.15 0.19 0.23 0.27 0.25 0.18 0.09 0.04 0.04 0.07 0.05 0.04 0.02 0.02 0.02 0.01 0.02 0.03 0.08 0.12 0.03 0.01 0.00 0.00 0.01 0.01 0.00 0.00 0.00 0.00 0.00 0.01 0.02
0.01 0.01 0.00 0.00 0.00 0.01 0.02 0.04 0.03 0.03 0.07 0.10 0.19 0.28 0.31 0.28 0.22 0.17 0.14 0.12 0.12 0.10 0.09 0.08 0.08 0.07 0.07 0.07 0.07 0.09 0.10 0.05 0.01 0.00 0.02 0.04 0.02 0.01 0.00 0.00 0.01 0.01 0.02
0.04 0.03 0.02 0.01 0.01 0.02 0.03 0.04 0.04 0.03 0.04 0.06 0.10 0.17 0.24 0.26 0.25 0.28 0.24 0.21 0.16 0.17 0.21 0.17 0.12 0.15 0.17 0.16 0.13 0.12 0.10 0.08 0.05 0.04 0.10 0.15 0.07 0.03 0.01 0.01 0.01 0.01 0.02
0.06 0.06 0.02 0.01 0.02 0.03 0.03 0.03 0.03 0.03 0.03 0.03 0.05 0.09 0.16 0.20 0.24 0.29 0.29 0.28 0.24 0.22 0.21 0.24 0.21 0.26 0.25 0.23 0.14 0.12 0.12 0.14 0.11 0.08 0.12 0.18 0.12 0.05 0.03 0.02 0.01 0.02 0.02
0.04 0.04 0.02 0.02 0.01 0.02 0.02 0.02 0.02 0.02 0.01 0.02 0.04 0.06 0.10 0.15 0.20 0.25 0.29 0.32 0.32 0.33 0.32 0.29 0.28 0.35 0.30 0.22 0.20 0.21 0.22 0.22 0.21 0.21 0.17 0.20 0.24 0.14 0.06 0.03 0.02 0.02 0.03
0.02 0.02 0.02 0.02 0.02 0.01 0.01 0.01 0.01 0.01 0.02 0.02 0.02 0.04 0.07 0.11 0.16 0.21 0.26 0.33 0.36 0.38 0.39 0.37 0.32 0.33 0.32 0.30 0.27 0.23 0.28 0.29 0.30 0.34 0.31 0.27 0.27 0.23 0.21 0.11 0.06 0.03 0.04
0.03 0.03 0.01 0.01 0.01 0.01 0.01 0.01 0.01 0.02 0.02 0.02 0.03 0.05 0.08 0.13 0.18 0.23 0.27 0.33 0.36 0.38 0.39 0.37 0.39 0.38 0.35 0.33 0.27 0.24 0.25 0.25 0.26 0.29 0.36 0.30 0.30 0.26 0.28 0.23 0.10 0.05 0.04
0.01 0.01 0.01 0.01 0.01 0.00 0.00 0.01 0.01 0.02 0.02 0.02 0.04 0.05 0.06 0.11 0.15 0.19 0.23 0.26 0.28 0.30 0.32 0.33 0.37 0.38 0.34 0.32 0.24 0.22 0.23 0.20 0.21 0.22 0.22 0.20 0.22 0.22 0.23 0.24 0.16 0.05 0.03
0.01 0.01 0.01 0.01 0.00 0.00 0.00 0.00 0.01 0.02 0.02 0.03 0.03 0.04 0.07 0.09 0.10 0.13 0.15 0.20 0.21 0.22 0.26 0.28 0.30 0.32 0.30 0.28 0.26 0.21 0.17 0.14 0.14 0.13 0.11 0.11 0.12 0.14 0.14 0.15 0.11 0.07 0.03
0.00 0.00 0.00 0.00 0.00 0.00 0.00 0.00 0.00 0.01 0.02 0.03 0.04 0.05 0.05 0.06 0.07 0.09 0.13 0.18 0.21 0.21 0.21 0.24 0.25 0.24 0.22 0.22 0.21 0.16 0.12 0.11 0.10 0.07 0.07 0.07 0.05 0.07 0.09 0.07 0.03 0.03 0.02
0.00 0.00 0.00 0.00 0.00 0.00 0.00 0.00 0.00 0.00 0.01 0.01 0.02 0.02 0.03 0.04 0.06 0.09 0.13 0.18 0.21 0.22 0.21 0.22 0.21 0.20 0.16 0.15 0.15 0.12 0.08 0.06 0.06 0.05 0.05 0.04 0.03 0.03 0.03 0.03 0.01 0.01 0.00
0.00 0.00 0.00 0.00 0.00 0.00 0.00 0.00 0.00 0.00 0.00 0.00 0.00 0.00 0.01 0.01 0.02 0.05 0.09 0.15 0.18 0.20 0.20 0.17 0.18 0.21 0.19 0.13 0.13 0.11 0.06 0.05 0.06 0.06 0.04 0.02 0.02 0.02 0.01 0.01 0.01 0.00 0.00
0.00 0.00 0.00 0.00 0.00 0.00 0.00 0.00 0.00 0.00 0.00 0.00 0.00 0.00 0.00 0.00 0.00 0.01 0.02 0.07 0.14 0.20 0.26 0.24 0.23 0.21 0.19 0.14 0.12 0.13 0.09 0.04 0.03 0.03 0.05 0.04 0.02 0.01 0.00 0.00 0.00 0.00 0.00
0.00 0.00 0.00 0.00 0.00 0.00 0.00 0.00 0.00 0.00 0.01 0.00 0.00 0.00 0.00 0.00 0.00 0.00 0.00 0.01 0.04 0.11 0.19 0.25 0.28 0.27 0.23 0.19 0.11 0.11 0.17 0.09 0.02 0.01 0.01 0.03 0.04 0.01 0.00 0.00 0.00 0.00 0.00

GEFSSE_prec_meanprec_036.txt.gz
QPF
0.00 0.00 0.00 0.00 0.00 0.00 0.00 0.00 0.00 0.00 0.00 0.00 0.00 0.00 0.00 0.00 0.00 0.00 0.00 0.00 0.00 0.00 0.00 0.00 0.00 0.00 0.00 0.00 0.00 0.01 0.00 0.00 0.01 0.01 0.01 0.01 0.01 0.01 0.02 0.04 0.04 0.03 0.08
0.00 0.00 0.00 0.00 0.00 0.00 0.00 0.00 0.00 0.00 0.00 0.00 0.00 0.00 0.00 0.00 0.00 0.00 0.00 0.00 0.00 0.00 0.00 0.00 0.00 0.00 0.00 0.00 0.00 0.00 0.00 0.00 0.00 0.01 0.02 0.02 0.02 0.02 0.04 0.05 0.03 0.03 0.05
0.00 0.00 0.00 0.00 0.00 0.00 0.00 0.00 0.00 0.00 0.00 0.00 0.00 0.00 0.00 0.00 0.00 0.00 0.00 0.00 0.00 0.00 0.00 0.00 0.00 0.00 0.00 0.00 0.00 0.00 0.00 0.00 0.00 0.01 0.01 0.01 0.01 0.02 0.04 0.03 0.02 0.02 0.03
0.00 0.00 0.00 0.00 0.00 0.00 0.00 0.00 0.00 0.00 0.00 0.00 0.00 0.00 0.00 0.00 0.00 0.00 0.00 0.00 0.00 0.00 0.00 0.00 0.00 0.00 0.00 0.00 0.00 0.00 0.00 0.00 0.00 0.01 0.01 0.01 0.00 0.01 0.01 0.00 0.01 0.02 0.02
0.00 0.00 0.00 0.00 0.00 0.00 0.00 0.00 0.00 0.00 0.00 0.00 0.00 0.00 0.00 0.00 0.00 0.00 0.00 0.00 0.00 0.00 0.00 0.00 0.01 0.00 0.00 0.00 0.00 0.00 0.00 0.00 0.00 0.01 0.02 0.01 0.00 0.01 0.00 0.00 0.00 0.01 0.00
0.00 0.00 0.00 0.00 0.00 0.00 0.00 0.00 0.00 0.00 0.00 0.00 0.00 0.00 0.00 0.00 0.00 0.01 0.00 0.00 0.00 0.00 0.00 0.00 0.01 0.00 0.00 0.00 0.00 0.00 0.00 0.00 0.00 0.01 0.04 0.03 0.01 0.02 0.00 0.00 0.00 0.00 0.01
0.00 0.00 0.00 0.00 0.00 0.00 0.00 0.00 0.00 0.00 0.00 0.00 0.00 0.00 0.00 0.00 0.00 0.00 0.00 0.00 0.00 0.00 0.00 0.00 0.00 0.00 0.00 0.00 0.00 0.00 0.00 0.00 0.00 0.02 0.05 0.04 0.02 0.03 0.00 0.00 0.00 0.00 0.00
0.00 0.00 0.00 0.00 0.00 0.00 0.00 0.00 0.00 0.00 0.00 0.00 0.00 0.00 0.00 0.00 0.00 0.00 0.00 0.00 0.00 0.00 0.00 0.01 0.00 0.00 0.00 0.00 0.00 0.00 0.00 0.00 0.00 0.01 0.03 0.03 0.02 0.04 0.01 0.00 0.00 0.00 0.00
0.01 0.00 0.00 0.00 0.00 0.00 0.00 0.00 0.00 0.00 0.00 0.00 0.00 0.00 0.00 0.00 0.00 0.00 0.00 0.00 0.00 0.01 0.01 0.01 0.01 0.01 0.00 0.00 0.00 0.00 0.00 0.00 0.00 0.00 0.02 0.03 0.03 0.04 0.02 0.00 0.00 0.00 0.00
0.02 0.00 0.00 0.00 0.00 0.00 0.00 0.00 0.00 0.00 0.00 0.00 0.00 0.00 0.00 0.00 0.00 0.00 0.00 0.00 0.01 0.01 0.01 0.01 0.01 0.01 0.01 0.01 0.00 0.00 0.00 0.00 0.00 0.00 0.01 0.02 0.05 0.07 0.04 0.01 0.00 0.00 0.00
0.03 0.02 0.02 0.02 0.02 0.02 0.02 0.02 0.02 0.01 0.01 0.01 0.00 0.00 0.00 0.00 0.00 0.00 0.01 0.02 0.03 0.03 0.02 0.02 0.02 0.02 0.01 0.01 0.00 0.00 0.00 0.00 0.00 0.00 0.00 0.01 0.05 0.09 0.07 0.03 0.01 0.00 0.00
0.06 0.09 0.06 0.04 0.05 0.04 0.04 0.07 0.06 0.04 0.05 0.03 0.02 0.02 0.01 0.01 0.01 0.02 0.03 0.06 0.08 0.10 0.08 0.05 0.06 0.06 0.04 0.02 0.01 0.01 0.00 0.00 0.00 0.00 0.00 0.00 0.03 0.07 0.07 0.05 0.02 0.01 0.01
0.11 0.10 0.08 0.07 0.07 0.07 0.09 0.10 0.10 0.10 0.12 0.13 0.11 0.07 0.05 0.04 0.04 0.04 0.04 0.07 0.08 0.11 0.11 0.11 0.13 0.10 0.08 0.06 0.03 0.01 0.01 0.00 0.00 0.00 0.00 0.01 0.02 0.05 0.07 0.06 0.04 0.02 0.01
0.12 0.09 0.08 0.08 0.09 0.10 0.12 0.12 0.11 0.10 0.10 0.14 0.15 0.10 0.07 0.05 0.05 0.05 0.05 0.07 0.09 0.12 0.16 0.18 0.19 0.18 0.15 0.11 0.07 0.04 0.03 0.02 0.01 0.01 0.01 0.03 0.05 0.07 0.09 0.07 0.05 0.03 0.02
0.12 0.11 0.11 0.14 0.16 0.15 0.14 0.12 0.10 0.07 0.06 0.06 0.07 0.05 0.04 0.03 0.02 0.03 0.03 0.06 0.10 0.13 0.18 0.23 0.25 0.25 0.22 0.17 0.14 0.10 0.08 0.06 0.04 0.06 0.07 0.10 0.11 0.14 0.17 0.14 0.10 0.06 0.03
0.14 0.15 0.15 0.17 0.17 0.15 0.11 0.07 0.04 0.02 0.03 0.03 0.03 0.03 0.02 0.02 0.01 0.01 0.02 0.04 0.07 0.12 0.17 0.24 0.31 0.37 0.37 0.33 0.27 0.20 0.17 0.17 0.14 0.14 0.17 0.17 0.18 0.16 0.17 0.19 0.15 0.10 0.06
0.14 0.15 0.16 0.15 0.12 0.08 0.05 0.03 0.02 0.02 0.02 0.02 0.02 0.02 0.01 0.01 0.01 0.01 0.01 0.01 0.03 0.07 0.11 0.18 0.25 0.34 0.40 0.40 0.33 0.28 0.24 0.22 0.24 0.20 0.19 0.19 0.18 0.20 0.18 0.17 0.16 0.12 0.08
0.09 0.11 0.10 0.09 0.05 0.04 0.02 0.01 0.01 0.01 0.01 0.01 0.01 0.01 0.01 0.01 0.01 0.01 0.00 0.01 0.04 0.07 0.09 0.12 0.21 0.28 0.33 0.40 0.42 0.36 0.31 0.27 0.26 0.27 0.28 0.24 0.23 0.21 0.19 0.20 0.18 0.14 0.12
0.04 0.04 0.04 0.03 0.02 0.01 0.01 0.00 0.00 0.00 0.00 0.00 0.01 0.01 0.01 0.01 0.01 0.00 0.00 0.00 0.02 0.04 0.07 0.10 0.16 0.23 0.28 0.33 0.37 0.37 0.33 0.28 0.25 0.26 0.31 0.29 0.25 0.30 0.29 0.25 0.25 0.19 0.14
0.01 0.01 0.01 0.01 0.00 0.00 0.00 0.00 0.00 0.00 0.00 0.00 0.00 0.01 0.01 0.01 0.00 0.00 0.00 0.00 0.02 0.05 0.08 0.10 0.13 0.19 0.26 0.32 0.38 0.39 0.33 0.28 0.24 0.21 0.20 0.23 0.23 0.23 0.29 0.33 0.27 0.20 0.17
0.00 0.00 0.00 0.00 0.00 0.00 0.00 0.00 0.00 0.00 0.00 0.00 0.00 0.00 0.01 0.01 0.01 0.01 0.00 0.00 0.01 0.02 0.04 0.06 0.10 0.16 0.21 0.28 0.35 0.36 0.32 0.28 0.24 0.20 0.18 0.16 0.16 0.17 0.22 0.34 0.36 0.22 0.10
0.00 0.00 0.00 0.00 0.00 0.00 0.00 0.00 0.00 0.00 0.00 0.00 0.00 0.00 0.00 0.00 0.00 0.00 0.00 0.00 0.01 0.03 0.05 0.07 0.11 0.16 0.21 0.26 0.31 0.31 0.26 0.23 0.18 0.14 0.13 0.12 0.11 0.14 0.19 0.24 0.27 0.22 0.13
0.00 0.00 0.00 0.00 0.00 0.00 0.00 0.00 0.00 0.00 0.00 0.00 0.00 0.00 0.00 0.00 0.00 0.00 0.00 0.01 0.01 0.01 0.02 0.05 0.08 0.11 0.15 0.19 0.25 0.28 0.23 0.19 0.15 0.13 0.11 0.09 0.09 0.10 0.15 0.24 0.23 0.15 0.12
0.00 0.00 0.00 0.00 0.00 0.00 0.00 0.00 0.00 0.00 0.00 0.00 0.00 0.00 0.00 0.00 0.00 0.00 0.00 0.00 0.01 0.01 0.01 0.02 0.03 0.05 0.09 0.11 0.14 0.18 0.17 0.15 0.14 0.14 0.13 0.10 0.10 0.10 0.11 0.17 0.21 0.18 0.10
0.00 0.00 0.00 0.00 0.00 0.00 0.00 0.00 0.00 0.00 0.00 0.00 0.00 0.00 0.00 0.00 0.00 0.00 0.00 0.00 0.01 0.01 0.01 0.02 0.02 0.03 0.04 0.06 0.09 0.12 0.15 0.12 0.11 0.12 0.13 0.11 0.09 0.07 0.08 0.10 0.11 0.13 0.09
0.00 0.00 0.00 0.00 0.00 0.00 0.00 0.00 0.00 0.00 0.00 0.00 0.00 0.00 0.00 0.00 0.00 0.00 0.00 0.00 0.00 0.00 0.01 0.02 0.03 0.04 0.05 0.06 0.07 0.09 0.17 0.20 0.13 0.11 0.11 0.11 0.10 0.06 0.05 0.06 0.07 0.05 0.04

GEFSSE_prec_meanprec_042.txt.gz
QPF
0.00 0.00 0.00 0.00 0.00 0.00 0.00 0.00 0.00 0.00 0.00 0.00 0.00 0.00 0.00 0.00 0.00 0.00 0.00 0.00 0.00 0.00 0.00 0.00 0.00 0.00 0.00 0.01 0.01 0.01 0.00 0.00 0.00 0.00 0.01 0.01 0.02 0.02 0.03 0.06 0.06 0.06 0.13
0.00 0.00 0.00 0.00 0.00 0.00 0.00 0.00 0.00 0.00 0.00 0.00 0.00 0.00 0.00 0.00 0.00 0.00 0.00 0.00 0.00 0.00 0.00 0.00 0.00 0.00 0.00 0.00 0.00 0.00 0.00 0.00 0.00 0.01 0.02 0.03 0.05 0.06 0.04 0.04 0.03 0.06 0.11
0.00 0.00 0.00 0.00 0.00 0.00 0.00 0.00 0.00 0.00 0.00 0.00 0.00 0.00 0.00 0.00 0.00 0.00 0.00 0.00 0.00 0.00 0.00 0.00 0.00 0.00 0.00 0.00 0.00 0.00 0.00 0.00 0.01 0.01 0.01 0.02 0.04 0.07 0.03 0.02 0.02 0.04 0.06
0.00 0.00 0.00 0.00 0.00 0.00 0.00 0.00 0.00 0.00 0.00 0.00 0.00 0.00 0.00 0.00 0.00 0.00 0.00 0.00 0.00 0.00 0.00 0.00 0.00 0.00 0.00 0.00 0.00 0.00 0.00 0.00 0.01 0.01 0.00 0.00 0.01 0.03 0.02 0.01 0.02 0.02 0.04
0.00 0.00 0.00 0.00 0.00 0.00 0.00 0.00 0.00 0.00 0.00 0.00 0.00 0.00 0.00 0.00 0.00 0.00 0.00 0.00 0.00 0.00 0.00 0.00 0.00 0.00 0.00 0.00 0.00 0.00 0.00 0.00 0.01 0.01 0.00 0.00 0.00 0.02 0.01 0.01 0.01 0.01 0.02
0.00 0.00 0.00 0.00 0.00 0.00 0.00 0.00 0.00 0.00 0.00 0.00 0.00 0.00 0.00 0.00 0.00 0.00 0.00 0.00 0.00 0.01 0.01 0.01 0.01 0.01 0.01 0.00 0.00 0.00 0.00 0.00 0.01 0.00 0.00 0.00 0.00 0.01 0.01 0.01 0.01 0.01 0.01
0.00 0.00 0.00 0.00 0.00 0.00 0.00 0.00 0.00 0.00 0.00 0.00 0.00 0.00 0.00 0.00 0.01 0.01 0.01 0.01 0.01 0.01 0.01 0.02 0.02 0.02 0.02 0.01 0.01 0.00 0.00 0.00 0.01 0.00 0.00 0.00 0.00 0.02 0.01 0.00 0.00 0.00 0.00
0.00 0.00 0.00 0.00 0.00 0.00 0.00 0.00 0.00 0.00 0.00 0.00 0.01 0.01 0.01 0.01 0.01 0.01 0.02 0.02 0.01 0.01 0.01 0.02 0.02 0.02 0.02 0.02 0.02 0.01 0.00 0.01 0.01 0.01 0.01 0.01 0.01 0.03 0.02 0.01 0.00 0.00 0.00
0.00 0.00 0.00 0.00 0.00 0.00 0.00 0.00 0.00 0.00 0.00 0.00 0.01 0.01 0.01 0.00 0.01 0.01 0.01 0.02 0.02 0.02 0.01 0.02 0.02 0.02 0.03 0.03 0.03 0.02 0.02 0.02 0.01 0.01 0.01 0.01 0.01 0.03 0.03 0.02 0.00 0.00 0.00
0.00 0.00 0.00 0.00 0.00 0.00 0.00 0.00 0.00 0.01 0.01 0.01 0.01 0.01 0.01 0.01 0.01 0.01 0.01 0.01 0.01 0.03 0.03 0.04 0.04 0.04 0.05 0.04 0.04 0.03 0.02 0.02 0.01 0.00 0.01 0.01 0.01 0.03 0.05 0.04 0.01 0.00 0.00
0.01 0.01 0.02 0.02 0.02 0.01 0.00 0.01 0.02 0.03 0.03 0.03 0.02 0.02 0.01 0.01 0.01 0.01 0.02 0.03 0.04 0.06 0.08 0.07 0.09 0.10 0.10 0.07 0.05 0.04 0.03 0.02 0.01 0.00 0.00 0.00 0.01 0.04 0.07 0.07 0.04 0.02 0.00
0.04 0.07 0.08 0.09 0.07 0.05 0.04 0.05 0.06 0.07 0.08 0.07 0.06 0.04 0.03 0.02 0.02 0.02 0.03 0.06 0.08 0.10 0.13 0.15 0.18 0.18 0.16 0.09 0.07 0.05 0.03 0.02 0.01 0.00 0.00 0.01 0.01 0.04 0.09 0.11 0.10 0.05 0.02
0.11 0.10 0.11 0.14 0.15 0.15 0.15 0.16 0.14 0.14 0.16 0.20 0.18 0.12 0.08 0.05 0.04 0.04 0.04 0.05 0.06 0.10 0.10 0.13 0.19 0.18 0.18 0.14 0.11 0.07 0.06 0.04 0.01 0.01 0.01 0.01 0.01 0.03 0.09 0.13 0.12 0.10 0.06
0.13 0.15 0.17 0.21 0.24 0.24 0.24 0.21 0.20 0.19 0.21 0.20 0.18 0.16 0.12 0.09 0.07 0.06 0.05 0.05 0.05 0.06 0.07 0.08 0.08 0.13 0.17 0.18 0.15 0.10 0.06 0.04 0.02 0.01 0.01 0.01 0.01 0.02 0.07 0.13 0.13 0.13 0.12
0.18 0.20 0.21 0.22 0.25 0.23 0.23 0.22 0.23 0.21 0.18 0.12 0.11 0.12 0.10 0.09 0.08 0.06 0.04 0.03 0.03 0.04 0.03 0.04 0.06 0.09 0.12 0.15 0.15 0.12 0.09 0.05 0.02 0.01 0.01 0.01 0.02 0.03 0.07 0.12 0.15 0.16 0.15
0.18 0.19 0.19 0.19 0.20 0.16 0.15 0.15 0.13 0.09 0.09 0.08 0.08 0.07 0.04 0.04 0.04 0.04 0.03 0.02 0.03 0.03 0.02 0.02 0.02 0.04 0.07 0.09 0.10 0.10 0.08 0.06 0.03 0.02 0.02 0.02 0.03 0.05 0.07 0.10 0.14 0.16 0.16
0.15 0.14 0.14 0.15 0.13 0.10 0.07 0.05 0.04 0.04 0.03 0.03 0.02 0.01 0.01 0.01 0.02 0.02 0.02 0.02 0.02 0.01 0.01 0.00 0.00 0.01 0.02 0.04 0.06 0.08 0.10 0.10 0.07 0.05 0.04 0.04 0.04 0.05 0.09 0.10 0.11 0.14 0.15
0.09 0.09 0.09 0.07 0.06 0.03 0.02 0.02 0.01 0.01 0.01 0.01 0.00 0.00 0.00 0.01 0.01 0.01 0.01 0.01 0.00 0.00 0.00 0.00 0.00 0.00 0.01 0.02 0.04 0.07 0.10 0.12 0.10 0.08 0.07 0.06 0.06 0.05 0.08 0.12 0.13 0.13 0.16
0.05 0.04 0.04 0.03 0.02 0.01 0.01 0.01 0.00 0.00 0.00 0.00 0.00 0.00 0.00 0.00 0.00 0.00 0.00 0.00 0.00 0.00 0.00 0.00 0.00 0.00 0.01 0.02 0.03 0.06 0.09 0.11 0.11 0.10 0.09 0.07 0.06 0.07 0.08 0.12 0.17 0.17 0.22
0.02 0.02 0.01 0.01 0.00 0.00 0.00 0.00 0.00 0.00 0.00 0.00 0.00 0.00 0.00 0.00 0.00 0.00 0.00 0.00 0.00 0.00 0.00 0.00 0.00 0.00 0.00 0.02 0.04 0.06 0.09 0.11 0.11 0.10 0.09 0.09 0.09 0.07 0.07 0.09 0.13 0.15 0.21
0.01 0.00 0.00 0.00 0.00 0.00 0.00 0.00 0.00 0.00 0.00 0.00 0.00 0.00 0.00 0.00 0.00 0.00 0.00 0.00 0.00 0.00 0.00 0.00 0.00 0.00 0.00 0.02 0.04 0.07 0.10 0.13 0.14 0.12 0.12 0.11 0.10 0.08 0.09 0.09 0.10 0.11 0.11
0.00 0.00 0.00 0.00 0.00 0.00 0.00 0.00 0.00 0.00 0.00 0.00 0.00 0.00 0.00 0.00 0.00 0.00 0.00 0.00 0.00 0.00 0.00 0.00 0.00 0.00 0.00 0.02 0.04 0.07 0.10 0.11 0.13 0.13 0.14 0.14 0.12 0.11 0.09 0.07 0.08 0.10 0.10
0.00 0.00 0.00 0.00 0.00 0.00 0.00 0.00 0.00 0.00 0.00 0.00 0.00 0.00 0.00 0.00 0.00 0.00 0.00 0.00 0.00 0.00 0.00 0.00 0.00 0.00 0.00 0.01 0.05 0.08 0.10 0.11 0.11 0.09 0.08 0.09 0.11 0.11 0.10 0.08 0.06 0.07 0.09
0.00 0.00 0.00 0.00 0.00 0.00 0.00 0.00 0.00 0.00 0.00 0.00 0.00 0.00 0.00 0.00 0.00 0.00 0.00 0.00 0.00 0.00 0.00 0.00 0.00 0.00 0.00 0.01 0.03 0.06 0.07 0.08 0.11 0.12 0.09 0.08 0.08 0.09 0.09 0.09 0.06 0.05 0.07
0.00 0.00 0.00 0.00 0.00 0.00 0.00 0.00 0.00 0.00 0.00 0.00 0.00 0.00 0.00 0.00 0.00 0.00 0.00 0.00 0.00 0.00 0.00 0.00 0.00 0.00 0.00 0.00 0.01 0.03 0.04 0.05 0.07 0.10 0.10 0.08 0.07 0.07 0.07 0.07 0.07 0.07 0.07
0.00 0.00 0.00 0.00 0.00 0.00 0.00 0.00 0.00 0.00 0.00 0.00 0.00 0.00 0.00 0.00 0.00 0.00 0.00 0.00 0.00 0.00 0.00 0.00 0.00 0.00 0.00 0.00 0.00 0.01 0.02 0.03 0.05 0.07 0.07 0.07 0.06 0.05 0.06 0.06 0.06 0.06 0.07

GEFSSE_prec_meanprec_048.txt.gz
QPF
0.00 0.00 0.00 0.00 0.00 0.00 0.00 0.02 0.03 0.03 0.03 0.03 0.03 0.02 0.01 0.01 0.00 0.00 0.00 0.00 0.00 0.00 0.00 0.00 0.00 0.00 0.01 0.01 0.01 0.00 0.00 0.00 0.00 0.00 0.01 0.01 0.02 0.04 0.08 0.12 0.16 0.17 0.13
0.00 0.00 0.00 0.00 0.00 0.00 0.00 0.01 0.02 0.03 0.03 0.03 0.03 0.02 0.02 0.01 0.00 0.00 0.00 0.00 0.00 0.00 0.00 0.00 0.00 0.00 0.00 0.00 0.00 0.00 0.00 0.00 0.01 0.01 0.02 0.02 0.03 0.05 0.09 0.13 0.15 0.16 0.11
0.00 0.00 0.00 0.00 0.00 0.00 0.00 0.00 0.01 0.02 0.02 0.02 0.02 0.02 0.01 0.01 0.00 0.00 0.00 0.00 0.00 0.00 0.00 0.00 0.00 0.00 0.00 0.00 0.00 0.00 0.00 0.00 0.01 0.01 0.03 0.07 0.04 0.04 0.07 0.12 0.16 0.13 0.12
0.00 0.00 0.00 0.00 0.00 0.00 0.00 0.00 0.01 0.01 0.01 0.01 0.01 0.01 0.01 0.00 0.00 0.00 0.00 0.00 0.00 0.00 0.00 0.00 0.00 0.00 0.00 0.00 0.00 0.00 0.00 0.00 0.01 0.01 0.02 0.03 0.03 0.03 0.06 0.09 0.11 0.11 0.12
0.00 0.00 0.00 0.01 0.00 0.00 0.00 0.01 0.01 0.01 0.01 0.01 0.01 0.01 0.00 0.00 0.00 0.00 0.00 0.00 0.01 0.01 0.01 0.00 0.00 0.00 0.00 0.00 0.00 0.00 0.00 0.01 0.01 0.01 0.00 0.02 0.05 0.04 0.05 0.08 0.09 0.11 0.09
0.00 0.00 0.01 0.01 0.01 0.00 0.00 0.01 0.01 0.02 0.02 0.01 0.01 0.01 0.00 0.00 0.00 0.00 0.00 0.01 0.01 0.02 0.02 0.01 0.02 0.01 0.01 0.00 0.00 0.00 0.00 0.00 0.01 0.01 0.00 0.01 0.04 0.03 0.05 0.07 0.09 0.11 0.07
0.00 0.00 0.01 0.01 0.01 0.01 0.01 0.02 0.02 0.03 0.03 0.02 0.02 0.01 0.01 0.01 0.01 0.01 0.01 0.02 0.02 0.03 0.03 0.03 0.03 0.03 0.02 0.01 0.01 0.00 0.00 0.01 0.02 0.02 0.01 0.01 0.03 0.02 0.04 0.07 0.10 0.10 0.06
0.00 0.00 0.01 0.01 0.01 0.01 0.02 0.02 0.03 0.03 0.03 0.03 0.03 0.02 0.02 0.02 0.02 0.02 0.02 0.03 0.04 0.03 0.03 0.03 0.03 0.03 0.03 0.02 0.01 0.01 0.01 0.01 0.03 0.02 0.02 0.02 0.01 0.01 0.03 0.05 0.07 0.08 0.07
0.00 0.01 0.01 0.01 0.01 0.01 0.02 0.03 0.03 0.03 0.04 0.04 0.03 0.03 0.02 0.02 0.03 0.03 0.03 0.04 0.05 0.05 0.03 0.03 0.03 0.04 0.04 0.03 0.02 0.01 0.01 0.02 0.05 0.05 0.02 0.03 0.02 0.01 0.03 0.03 0.04 0.06 0.07
0.01 0.01 0.01 0.02 0.03 0.03 0.03 0.03 0.03 0.04 0.04 0.04 0.03 0.02 0.02 0.03 0.03 0.03 0.03 0.02 0.03 0.05 0.05 0.05 0.05 0.06 0.06 0.04 0.03 0.02 0.02 0.02 0.03 0.03 0.02 0.02 0.01 0.02 0.04 0.04 0.03 0.03 0.05
0.01 0.01 0.01 0.02 0.02 0.03 0.04 0.03 0.03 0.04 0.06 0.05 0.05 0.05 0.05 0.06 0.06 0.06 0.04 0.03 0.03 0.05 0.06 0.07 0.08 0.10 0.10 0.07 0.06 0.04 0.03 0.02 0.02 0.03 0.03 0.02 0.02 0.04 0.07 0.07 0.05 0.03 0.03
0.01 0.01 0.02 0.02 0.03 0.04 0.04 0.05 0.07 0.09 0.12 0.11 0.11 0.11 0.13 0.15 0.14 0.11 0.08 0.06 0.05 0.07 0.08 0.09 0.08 0.08 0.10 0.10 0.11 0.08 0.04 0.03 0.03 0.02 0.02 0.01 0.01 0.04 0.08 0.10 0.09 0.05 0.04
0.01 0.02 0.03 0.02 0.04 0.07 0.11 0.12 0.15 0.20 0.21 0.20 0.18 0.18 0.23 0.23 0.21 0.20 0.19 0.15 0.12 0.09 0.09 0.11 0.11 0.10 0.13 0.15 0.15 0.10 0.06 0.05 0.02 0.01 0.02 0.02 0.01 0.03 0.06 0.10 0.11 0.09 0.06
0.04 0.06 0.07 0.08 0.08 0.10 0.13 0.16 0.21 0.23 0.25 0.23 0.16 0.13 0.17 0.21 0.21 0.21 0.24 0.23 0.16 0.13 0.12 0.13 0.13 0.13 0.13 0.14 0.13 0.13 0.10 0.08 0.05 0.03 0.02 0.02 0.02 0.02 0.04 0.09 0.12 0.12 0.10
0.08 0.09 0.11 0.11 0.10 0.11 0.12 0.14 0.17 0.16 0.15 0.14 0.09 0.08 0.09 0.13 0.15 0.16 0.16 0.15 0.12 0.12 0.11 0.12 0.10 0.10 0.10 0.11 0.10 0.10 0.09 0.08 0.07 0.07 0.05 0.03 0.02 0.02 0.02 0.05 0.09 0.10 0.11
0.09 0.09 0.10 0.10 0.09 0.09 0.09 0.08 0.08 0.06 0.05 0.05 0.05 0.05 0.05 0.06 0.08 0.10 0.10 0.09 0.09 0.09 0.08 0.07 0.07 0.06 0.07 0.07 0.05 0.06 0.08 0.09 0.07 0.06 0.05 0.05 0.03 0.02 0.02 0.03 0.06 0.09 0.11
0.08 0.09 0.10 0.10 0.07 0.05 0.04 0.03 0.02 0.01 0.01 0.01 0.01 0.01 0.01 0.02 0.03 0.04 0.05 0.06 0.06 0.05 0.04 0.04 0.04 0.03 0.03 0.02 0.02 0.03 0.05 0.06 0.06 0.06 0.07 0.07 0.04 0.02 0.02 0.02 0.03 0.05 0.08
0.04 0.05 0.04 0.03 0.02 0.01 0.01 0.01 0.00 0.00 0.00 0.00 0.00 0.00 0.00 0.01 0.01 0.01 0.02 0.02 0.02 0.01 0.02 0.02 0.01 0.01 0.01 0.01 0.01 0.01 0.02 0.03 0.04 0.06 0.08 0.07 0.06 0.03 0.03 0.02 0.03 0.03 0.04
0.02 0.02 0.02 0.01 0.00 0.00 0.00 0.00 0.00 0.00 0.00 0.00 0.00 0.00 0.00 0.00 0.00 0.01 0.01 0.01 0.01 0.01 0.01 0.01 0.00 0.01 0.01 0.01 0.01 0.01 0.01 0.01 0.02 0.04 0.05 0.06 0.05 0.04 0.04 0.03 0.03 0.03 0.04
0.01 0.01 0.00 0.00 0.00 0.00 0.00 0.00 0.00 0.00 0.00 0.00 0.00 0.00 0.00 0.00 0.00 0.00 0.01 0.01 0.00 0.00 0.00 0.01 0.01 0.01 0.01 0.01 0.01 0.00 0.00 0.00 0.01 0.03 0.04 0.05 0.06 0.05 0.04 0.04 0.05 0.03 0.03
0.00 0.00 0.00 0.00 0.00 0.00 0.00 0.00 0.00 0.00 0.00 0.00 0.00 0.00 0.00 0.00 0.00 0.00 0.00 0.01 0.00 0.00 0.00 0.00 0.00 0.00 0.01 0.02 0.01 0.01 0.01 0.01 0.01 0.02 0.04 0.06 0.06 0.06 0.06 0.06 0.06 0.06 0.03
0.00 0.00 0.00 0.00 0.00 0.00 0.00 0.00 0.00 0.00 0.00 0.00 0.00 0.00 0.00 0.00 0.00 0.00 0.00 0.00 0.00 0.01 0.01 0.01 0.01 0.00 0.00 0.01 0.02 0.02 0.02 0.02 0.05 0.05 0.04 0.05 0.06 0.08 0.09 0.08 0.08 0.08 0.06
0.00 0.00 0.00 0.00 0.00 0.00 0.00 0.00 0.00 0.00 0.00 0.00 0.00 0.00 0.00 0.00 0.00 0.00 0.00 0.00 0.00 0.00 0.00 0.01 0.01 0.01 0.00 0.01 0.02 0.03 0.04 0.04 0.03 0.05 0.07 0.07 0.09 0.11 0.12 0.11 0.09 0.09 0.08
0.00 0.00 0.00 0.00 0.00 0.00 0.00 0.00 0.00 0.00 0.00 0.00 0.00 0.00 0.00 0.00 0.00 0.00 0.00 0.00 0.00 0.00 0.00 0.00 0.00 0.01 0.01 0.00 0.01 0.02 0.04 0.05 0.05 0.03 0.04 0.07 0.09 0.08 0.09 0.11 0.12 0.12 0.11
0.00 0.00 0.00 0.01 0.01 0.00 0.00 0.00 0.00 0.00 0.00 0.00 0.00 0.00 0.00 0.00 0.00 0.00 0.00 0.00 0.00 0.00 0.00 0.00 0.00 0.00 0.01 0.01 0.01 0.01 0.01 0.03 0.04 0.05 0.03 0.06 0.08 0.09 0.07 0.07 0.09 0.10 0.11
0.00 0.00 0.00 0.01 0.01 0.00 0.00 0.00 0.00 0.00 0.00 0.00 0.00 0.00 0.00 0.00 0.00 0.00 0.00 0.00 0.00 0.00 0.00 0.00 0.00 0.00 0.01 0.01 0.01 0.01 0.01 0.02 0.02 0.04 0.04 0.06 0.09 0.10 0.10 0.09 0.08 0.09 0.10

GEFSSE_prec_meanprec_054.txt.gz
QPF
0.00 0.00 0.00 0.00 0.00 0.00 0.01 0.02 0.03 0.04 0.04 0.05 0.05 0.05 0.04 0.02 0.01 0.01 0.00 0.00 0.00 0.00 0.00 0.00 0.00 0.01 0.01 0.01 0.01 0.00 0.00 0.00 0.00 0.00 0.01 0.01 0.01 0.05 0.08 0.12 0.18 0.18 0.06
0.00 0.00 0.00 0.00 0.00 0.00 0.01 0.02 0.03 0.04 0.05 0.06 0.06 0.06 0.05 0.03 0.02 0.01 0.00 0.00 0.00 0.00 0.00 0.00 0.01 0.00 0.00 0.00 0.00 0.00 0.00 0.00 0.00 0.01 0.02 0.02 0.02 0.05 0.10 0.18 0.23 0.14 0.06
0.00 0.00 0.00 0.00 0.00 0.00 0.01 0.02 0.03 0.05 0.06 0.06 0.06 0.06 0.04 0.02 0.01 0.01 0.00 0.00 0.00 0.00 0.00 0.00 0.00 0.00 0.00 0.00 0.00 0.00 0.00 0.00 0.01 0.06 0.14 0.17 0.04 0.03 0.12 0.26 0.30 0.13 0.06
0.00 0.00 0.00 0.00 0.00 0.00 0.00 0.01 0.02 0.04 0.05 0.05 0.05 0.05 0.03 0.02 0.01 0.01 0.00 0.00 0.00 0.00 0.00 0.00 0.00 0.00 0.00 0.00 0.00 0.00 0.00 0.00 0.02 0.11 0.23 0.15 0.07 0.03 0.09 0.16 0.19 0.12 0.07
0.00 0.00 0.00 0.00 0.00 0.00 0.00 0.00 0.01 0.02 0.02 0.03 0.03 0.02 0.02 0.01 0.01 0.00 0.00 0.00 0.00 0.00 0.00 0.01 0.00 0.00 0.00 0.00 0.00 0.00 0.00 0.00 0.03 0.11 0.14 0.13 0.12 0.04 0.06 0.09 0.16 0.14 0.09
0.00 0.00 0.00 0.00 0.00 0.00 0.00 0.00 0.00 0.01 0.01 0.01 0.01 0.01 0.01 0.00 0.00 0.00 0.00 0.00 0.01 0.01 0.01 0.01 0.01 0.01 0.00 0.00 0.00 0.00 0.00 0.01 0.04 0.07 0.07 0.10 0.09 0.03 0.04 0.08 0.11 0.13 0.08
0.00 0.00 0.00 0.00 0.00 0.00 0.00 0.01 0.01 0.01 0.01 0.01 0.01 0.01 0.00 0.00 0.00 0.00 0.00 0.00 0.01 0.02 0.01 0.01 0.01 0.01 0.01 0.00 0.00 0.00 0.00 0.01 0.04 0.05 0.03 0.08 0.08 0.02 0.03 0.08 0.12 0.09 0.07
0.00 0.00 0.00 0.00 0.00 0.01 0.01 0.01 0.01 0.01 0.01 0.01 0.01 0.00 0.00 0.00 0.00 0.00 0.01 0.01 0.01 0.02 0.02 0.01 0.01 0.01 0.01 0.01 0.00 0.00 0.00 0.00 0.03 0.03 0.03 0.07 0.04 0.01 0.03 0.06 0.09 0.08 0.06
0.00 0.00 0.00 0.00 0.01 0.01 0.01 0.01 0.01 0.01 0.01 0.02 0.01 0.01 0.00 0.00 0.00 0.00 0.01 0.01 0.01 0.01 0.02 0.01 0.01 0.01 0.01 0.01 0.01 0.00 0.00 0.00 0.02 0.02 0.03 0.06 0.03 0.01 0.02 0.02 0.05 0.07 0.07
0.01 0.01 0.01 0.03 0.06 0.04 0.04 0.02 0.02 0.01 0.01 0.01 0.01 0.01 0.01 0.00 0.01 0.02 0.02 0.02 0.01 0.01 0.02 0.02 0.02 0.02 0.02 0.01 0.00 0.00 0.00 0.00 0.01 0.01 0.03 0.05 0.03 0.01 0.01 0.01 0.02 0.05 0.06
0.01 0.01 0.02 0.04 0.04 0.05 0.07 0.05 0.03 0.03 0.03 0.02 0.05 0.04 0.03 0.05 0.09 0.15 0.11 0.07 0.04 0.03 0.03 0.03 0.03 0.03 0.03 0.01 0.01 0.01 0.00 0.00 0.00 0.00 0.02 0.05 0.03 0.02 0.02 0.02 0.02 0.03 0.04
0.01 0.01 0.02 0.03 0.03 0.03 0.03 0.06 0.08 0.09 0.09 0.07 0.12 0.12 0.11 0.12 0.12 0.12 0.15 0.10 0.08 0.06 0.06 0.07 0.05 0.04 0.04 0.03 0.08 0.06 0.01 0.00 0.00 0.00 0.01 0.03 0.02 0.02 0.02 0.02 0.02 0.02 0.03
0.01 0.01 0.02 0.02 0.02 0.04 0.06 0.05 0.06 0.08 0.07 0.08 0.10 0.10 0.12 0.11 0.10 0.10 0.17 0.17 0.15 0.13 0.15 0.17 0.13 0.10 0.14 0.17 0.19 0.15 0.06 0.01 0.00 0.00 0.03 0.07 0.05 0.03 0.02 0.03 0.03 0.02 0.02
0.02 0.01 0.02 0.02 0.02 0.04 0.04 0.04 0.06 0.06 0.05 0.05 0.08 0.07 0.11 0.16 0.18 0.18 0.22 0.21 0.24 0.25 0.24 0.26 0.30 0.26 0.22 0.19 0.16 0.17 0.12 0.05 0.02 0.01 0.05 0.07 0.04 0.03 0.02 0.03 0.04 0.04 0.03
0.02 0.02 0.03 0.03 0.04 0.05 0.04 0.03 0.05 0.06 0.06 0.06 0.07 0.06 0.06 0.10 0.13 0.15 0.16 0.15 0.17 0.22 0.22 0.22 0.20 0.22 0.19 0.18 0.16 0.15 0.14 0.13 0.07 0.06 0.10 0.13 0.05 0.03 0.02 0.02 0.02 0.04 0.04
0.04 0.04 0.03 0.04 0.05 0.04 0.04 0.03 0.03 0.03 0.04 0.02 0.02 0.02 0.02 0.04 0.05 0.07 0.09 0.11 0.11 0.14 0.14 0.14 0.14 0.15 0.16 0.16 0.17 0.20 0.15 0.13 0.12 0.14 0.15 0.17 0.09 0.04 0.02 0.02 0.02 0.03 0.05
0.05 0.05 0.04 0.05 0.05 0.04 0.03 0.02 0.01 0.01 0.01 0.01 0.01 0.01 0.00 0.01 0.01 0.02 0.04 0.06 0.07 0.08 0.08 0.07 0.07 0.07 0.07 0.08 0.09 0.11 0.11 0.10 0.10 0.12 0.10 0.11 0.11 0.07 0.03 0.02 0.03 0.02 0.03
0.04 0.04 0.04 0.03 0.03 0.02 0.02 0.01 0.01 0.00 0.00 0.00 0.00 0.00 0.00 0.01 0.01 0.01 0.02 0.03 0.04 0.04 0.04 0.04 0.05 0.05 0.05 0.06 0.06 0.05 0.05 0.06 0.06 0.09 0.09 0.06 0.07 0.06 0.06 0.05 0.03 0.02 0.02
0.02 0.03 0.03 0.02 0.01 0.01 0.01 0.00 0.00 0.00 0.00 0.00 0.00 0.00 0.00 0.00 0.00 0.00 0.01 0.02 0.01 0.01 0.01 0.01 0.03 0.04 0.04 0.04 0.03 0.03 0.02 0.02 0.02 0.03 0.03 0.03 0.04 0.04 0.05 0.06 0.05 0.03 0.02
0.02 0.02 0.02 0.01 0.01 0.01 0.01 0.00 0.00 0.00 0.00 0.00 0.00 0.00 0.00 0.00 0.00 0.00 0.00 0.01 0.00 0.00 0.01 0.01 0.02 0.02 0.02 0.02 0.01 0.01 0.01 0.01 0.01 0.01 0.02 0.03 0.03 0.03 0.03 0.06 0.10 0.05 0.03
0.02 0.01 0.00 0.00 0.01 0.01 0.01 0.01 0.01 0.00 0.00 0.00 0.00 0.00 0.00 0.00 0.00 0.00 0.00 0.00 0.01 0.01 0.01 0.01 0.01 0.01 0.01 0.01 0.01 0.01 0.01 0.01 0.01 0.02 0.03 0.03 0.03 0.04 0.04 0.05 0.06 0.07 0.06
0.01 0.00 0.00 0.00 0.01 0.01 0.01 0.01 0.01 0.01 0.00 0.00 0.00 0.00 0.00 0.00 0.00 0.00 0.00 0.00 0.00 0.01 0.01 0.01 0.02 0.01 0.01 0.00 0.01 0.01 0.01 0.02 0.04 0.03 0.06 0.06 0.05 0.07 0.06 0.06 0.07 0.09 0.07
0.00 0.00 0.00 0.01 0.01 0.01 0.01 0.01 0.01 0.01 0.00 0.00 0.00 0.00 0.00 0.00 0.00 0.00 0.00 0.00 0.00 0.00 0.01 0.01 0.01 0.02 0.02 0.01 0.00 0.01 0.01 0.02 0.03 0.04 0.06 0.07 0.09 0.08 0.07 0.07 0.06 0.08 0.09
0.00 0.00 0.00 0.01 0.02 0.02 0.01 0.01 0.01 0.00 0.00 0.00 0.00 0.00 0.00 0.00 0.00 0.00 0.00 0.00 0.00 0.00 0.00 0.00 0.01 0.01 0.01 0.01 0.01 0.01 0.01 0.02 0.02 0.02 0.03 0.07 0.09 0.09 0.08 0.05 0.03 0.05 0.09
0.00 0.00 0.00 0.03 0.02 0.02 0.01 0.01 0.01 0.00 0.00 0.00 0.00 0.00 0.00 0.00 0.00 0.00 0.00 0.00 0.00 0.00 0.00 0.00 0.01 0.01 0.01 0.01 0.01 0.01 0.01 0.02 0.02 0.02 0.02 0.03 0.05 0.06 0.08 0.07 0.05 0.05 0.08
0.00 0.00 0.00 0.02 0.02 0.01 0.00 0.00 0.00 0.00 0.00 0.00 0.00 0.00 0.00 0.00 0.00 0.00 0.00 0.00 0.00 0.00 0.00 0.00 0.00 0.00 0.00 0.01 0.01 0.01 0.01 0.01 0.02 0.02 0.02 0.02 0.02 0.02 0.05 0.06 0.07 0.08 0.08

GEFSSE_prec_meanprec_060.txt.gz
QPF
0.00 0.01 0.01 0.01 0.00 0.00 0.00 0.00 0.01 0.01 0.01 0.01 0.01 0.01 0.01 0.00 0.00 0.00 0.00 0.00 0.00 0.00 0.00 0.00 0.00 0.00 0.00 0.00 0.00 0.00 0.00 0.01 0.02 0.03 0.04 0.04 0.05 0.08 0.12 0.14 0.12 0.09 0.07
0.00 0.00 0.01 0.01 0.01 0.01 0.01 0.01 0.01 0.01 0.01 0.01 0.01 0.02 0.02 0.01 0.00 0.00 0.00 0.00 0.00 0.00 0.00 0.00 0.00 0.00 0.00 0.00 0.00 0.00 0.00 0.01 0.02 0.05 0.06 0.06 0.06 0.08 0.10 0.12 0.10 0.06 0.05
0.00 0.00 0.01 0.01 0.01 0.01 0.01 0.01 0.01 0.01 0.02 0.02 0.02 0.02 0.01 0.01 0.00 0.00 0.00 0.00 0.00 0.00 0.00 0.00 0.00 0.00 0.00 0.00 0.00 0.00 0.00 0.01 0.02 0.05 0.05 0.03 0.03 0.05 0.08 0.10 0.07 0.04 0.02
0.00 0.00 0.00 0.00 0.00 0.00 0.01 0.01 0.01 0.01 0.01 0.01 0.01 0.01 0.01 0.01 0.00 0.00 0.00 0.00 0.00 0.00 0.00 0.00 0.00 0.00 0.00 0.00 0.00 0.00 0.00 0.01 0.02 0.05 0.03 0.02 0.01 0.04 0.07 0.05 0.03 0.02 0.01
0.00 0.00 0.00 0.00 0.00 0.00 0.00 0.00 0.01 0.01 0.01 0.01 0.01 0.01 0.01 0.00 0.00 0.00 0.00 0.00 0.00 0.00 0.00 0.00 0.00 0.00 0.00 0.00 0.00 0.00 0.00 0.01 0.04 0.05 0.05 0.02 0.01 0.04 0.04 0.02 0.02 0.02 0.01
0.00 0.00 0.00 0.00 0.00 0.00 0.00 0.00 0.00 0.00 0.00 0.00 0.00 0.01 0.00 0.00 0.00 0.00 0.00 0.00 0.00 0.00 0.00 0.00 0.00 0.00 0.00 0.00 0.00 0.00 0.01 0.03 0.05 0.05 0.05 0.02 0.01 0.03 0.03 0.02 0.02 0.01 0.01
0.00 0.00 0.00 0.00 0.00 0.00 0.00 0.00 0.00 0.00 0.00 0.00 0.00 0.00 0.00 0.00 0.00 0.00 0.00 0.00 0.01 0.01 0.00 0.00 0.00 0.00 0.00 0.00 0.00 0.00 0.01 0.03 0.04 0.06 0.05 0.04 0.02 0.02 0.02 0.03 0.03 0.01 0.00
0.00 0.00 0.00 0.00 0.00 0.00 0.00 0.00 0.00 0.00 0.00 0.00 0.00 0.00 0.00 0.00 0.00 0.00 0.00 0.00 0.01 0.01 0.00 0.00 0.00 0.00 0.00 0.00 0.00 0.00 0.00 0.01 0.02 0.06 0.09 0.07 0.07 0.02 0.02 0.02 0.02 0.01 0.00
0.00 0.00 0.00 0.00 0.00 0.00 0.00 0.00 0.00 0.00 0.00 0.00 0.00 0.00 0.00 0.00 0.00 0.01 0.01 0.01 0.01 0.01 0.01 0.01 0.01 0.01 0.01 0.00 0.00 0.00 0.01 0.01 0.01 0.04 0.11 0.10 0.11 0.05 0.02 0.01 0.01 0.01 0.01
0.02 0.01 0.01 0.01 0.01 0.01 0.01 0.01 0.01 0.01 0.00 0.00 0.00 0.00 0.01 0.01 0.02 0.04 0.04 0.04 0.04 0.03 0.02 0.02 0.02 0.02 0.02 0.02 0.01 0.01 0.01 0.01 0.01 0.04 0.09 0.12 0.09 0.06 0.02 0.01 0.01 0.00 0.00
0.01 0.02 0.01 0.02 0.02 0.02 0.02 0.02 0.02 0.02 0.01 0.01 0.02 0.03 0.02 0.02 0.03 0.06 0.08 0.10 0.10 0.07 0.06 0.06 0.05 0.04 0.04 0.03 0.03 0.02 0.01 0.01 0.01 0.04 0.07 0.12 0.11 0.07 0.04 0.01 0.01 0.01 0.01
0.03 0.02 0.02 0.02 0.03 0.03 0.03 0.03 0.03 0.03 0.02 0.02 0.03 0.03 0.03 0.02 0.03 0.05 0.08 0.11 0.11 0.10 0.09 0.08 0.07 0.06 0.04 0.03 0.05 0.05 0.02 0.02 0.03 0.05 0.07 0.13 0.14 0.09 0.06 0.03 0.02 0.01 0.01
0.05 0.04 0.04 0.03 0.04 0.04 0.03 0.02 0.03 0.03 0.02 0.02 0.02 0.02 0.02 0.02 0.03 0.05 0.06 0.08 0.08 0.08 0.07 0.08 0.08 0.06 0.06 0.06 0.06 0.06 0.04 0.04 0.07 0.09 0.13 0.16 0.18 0.14 0.09 0.05 0.03 0.02 0.01
0.10 0.05 0.05 0.05 0.04 0.03 0.02 0.02 0.02 0.02 0.02 0.01 0.01 0.01 0.01 0.01 0.02 0.02 0.03 0.05 0.06 0.06 0.06 0.05 0.06 0.08 0.08 0.16 0.15 0.08 0.06 0.05 0.09 0.14 0.22 0.25 0.26 0.21 0.14 0.08 0.04 0.03 0.02
0.11 0.06 0.05 0.05 0.04 0.03 0.02 0.01 0.01 0.01 0.01 0.01 0.01 0.00 0.00 0.00 0.01 0.01 0.01 0.01 0.03 0.04 0.04 0.04 0.04 0.06 0.06 0.08 0.09 0.07 0.07 0.05 0.10 0.15 0.19 0.29 0.31 0.23 0.16 0.12 0.07 0.04 0.03
0.13 0.07 0.04 0.03 0.03 0.02 0.01 0.01 0.00 0.00 0.00 0.00 0.00 0.00 0.00 0.00 0.01 0.01 0.01 0.01 0.01 0.02 0.03 0.03 0.03 0.03 0.02 0.04 0.03 0.03 0.04 0.04 0.08 0.09 0.14 0.22 0.28 0.22 0.18 0.15 0.12 0.09 0.06
0.14 0.09 0.05 0.03 0.02 0.01 0.01 0.01 0.00 0.00 0.01 0.00 0.01 0.00 0.00 0.00 0.00 0.00 0.00 0.00 0.00 0.01 0.01 0.01 0.01 0.02 0.02 0.02 0.01 0.01 0.02 0.03 0.04 0.07 0.12 0.14 0.17 0.17 0.15 0.15 0.13 0.12 0.10
0.13 0.07 0.04 0.02 0.01 0.01 0.00 0.00 0.00 0.00 0.01 0.01 0.00 0.00 0.00 0.00 0.00 0.00 0.00 0.00 0.00 0.00 0.00 0.00 0.00 0.01 0.01 0.01 0.01 0.02 0.03 0.02 0.02 0.04 0.10 0.10 0.08 0.09 0.12 0.15 0.15 0.14 0.13
0.15 0.09 0.04 0.02 0.01 0.00 0.00 0.00 0.00 0.00 0.00 0.00 0.00 0.00 0.00 0.00 0.00 0.00 0.00 0.00 0.00 0.00 0.00 0.00 0.00 0.00 0.00 0.00 0.00 0.00 0.01 0.01 0.02 0.02 0.03 0.03 0.03 0.05 0.06 0.10 0.15 0.15 0.16
0.12 0.09 0.04 0.01 0.00 0.00 0.00 0.00 0.00 0.00 0.00 0.00 0.00 0.00 0.00 0.00 0.00 0.00 0.00 0.00 0.00 0.00 0.00 0.00 0.00 0.00 0.00 0.00 0.00 0.00 0.00 0.00 0.00 0.01 0.01 0.01 0.01 0.02 0.03 0.05 0.08 0.10 0.15
0.10 0.07 0.03 0.01 0.00 0.00 0.00 0.00 0.00 0.00 0.00 0.00 0.00 0.00 0.00 0.00 0.00 0.00 0.00 0.00 0.00 0.00 0.00 0.00 0.00 0.00 0.00 0.00 0.00 0.00 0.00 0.00 0.00 0.00 0.01 0.01 0.02 0.02 0.04 0.05 0.06 0.06 0.07
0.07 0.03 0.01 0.00 0.00 0.00 0.00 0.00 0.00 0.00 0.00 0.00 0.00 0.00 0.00 0.00 0.00 0.00 0.00 0.00 0.00 0.00 0.00 0.00 0.00 0.00 0.00 0.00 0.00 0.00 0.00 0.00 0.00 0.00 0.01 0.02 0.03 0.03 0.03 0.04 0.05 0.05 0.04
0.03 0.01 0.01 0.00 0.00 0.00 0.00 0.00 0.00 0.00 0.00 0.00 0.00 0.00 0.00 0.00 0.00 0.00 0.00 0.00 0.00 0.00 0.00 0.00 0.00 0.00 0.00 0.00 0.00 0.00 0.00 0.00 0.00 0.00 0.01 0.01 0.02 0.03 0.02 0.02 0.03 0.05 0.05
0.01 0.00 0.01 0.01 0.01 0.01 0.00 0.00 0.00 0.00 0.00 0.00 0.00 0.00 0.00 0.00 0.00 0.00 0.00 0.00 0.00 0.00 0.00 0.00 0.00 0.00 0.00 0.00 0.00 0.00 0.00 0.00 0.00 0.00 0.00 0.00 0.01 0.01 0.01 0.01 0.01 0.02 0.04
0.01 0.01 0.01 0.01 0.01 0.01 0.00 0.00 0.00 0.00 0.00 0.00 0.00 0.00 0.00 0.00 0.00 0.00 0.00 0.00 0.00 0.00 0.00 0.00 0.00 0.00 0.00 0.00 0.00 0.00 0.00 0.00 0.00 0.00 0.00 0.00 0.00 0.00 0.00 0.00 0.01 0.01 0.02
0.01 0.01 0.01 0.00 0.00 0.00 0.00 0.00 0.00 0.00 0.00 0.00 0.00 0.00 0.00 0.00 0.00 0.00 0.00 0.00 0.00 0.00 0.00 0.00 0.00 0.00 0.00 0.00 0.00 0.00 0.00 0.00 0.00 0.00 0.00 0.00 0.00 0.00 0.00 0.00 0.00 0.01 0.01

GEFSSE_prec_meanprec_066.txt.gz
QPF
0.01 0.04 0.07 0.06 0.02 0.00 0.00 0.00 0.00 0.00 0.00 0.01 0.01 0.01 0.01 0.00 0.00 0.00 0.00 0.00 0.00 0.00 0.00 0.00 0.00 0.00 0.00 0.00 0.00 0.00 0.01 0.00 0.01 0.01 0.02 0.03 0.05 0.10 0.16 0.18 0.14 0.09 0.07
0.00 0.02 0.06 0.08 0.05 0.02 0.01 0.01 0.01 0.01 0.01 0.01 0.01 0.01 0.01 0.00 0.00 0.00 0.00 0.00 0.00 0.00 0.00 0.00 0.00 0.00 0.00 0.00 0.00 0.00 0.01 0.01 0.02 0.03 0.05 0.07 0.11 0.13 0.14 0.16 0.11 0.05 0.06
0.00 0.01 0.03 0.07 0.05 0.03 0.02 0.02 0.02 0.02 0.01 0.01 0.01 0.01 0.01 0.00 0.00 0.00 0.00 0.00 0.00 0.00 0.00 0.00 0.00 0.00 0.00 0.00 0.00 0.01 0.02 0.03 0.03 0.03 0.04 0.04 0.11 0.16 0.14 0.12 0.09 0.05 0.04
0.00 0.00 0.01 0.04 0.05 0.03 0.03 0.02 0.02 0.02 0.01 0.01 0.01 0.01 0.01 0.00 0.00 0.00 0.00 0.00 0.00 0.00 0.00 0.00 0.00 0.00 0.00 0.00 0.00 0.01 0.03 0.04 0.04 0.02 0.01 0.02 0.05 0.14 0.14 0.10 0.07 0.04 0.03
0.01 0.01 0.01 0.03 0.03 0.02 0.02 0.02 0.02 0.01 0.01 0.01 0.01 0.01 0.01 0.00 0.00 0.00 0.00 0.00 0.00 0.00 0.00 0.00 0.00 0.00 0.00 0.00 0.00 0.01 0.03 0.05 0.05 0.02 0.01 0.01 0.04 0.11 0.11 0.08 0.05 0.04 0.04
0.01 0.01 0.02 0.03 0.03 0.03 0.02 0.02 0.01 0.01 0.01 0.01 0.01 0.01 0.00 0.00 0.00 0.00 0.00 0.00 0.00 0.00 0.00 0.00 0.00 0.00 0.00 0.00 0.00 0.01 0.03 0.05 0.03 0.01 0.01 0.00 0.04 0.11 0.10 0.07 0.05 0.04 0.02
0.01 0.01 0.02 0.03 0.03 0.03 0.02 0.02 0.01 0.01 0.01 0.01 0.01 0.01 0.01 0.01 0.01 0.01 0.01 0.01 0.00 0.00 0.00 0.00 0.00 0.00 0.00 0.00 0.00 0.01 0.02 0.03 0.01 0.01 0.00 0.01 0.04 0.09 0.09 0.06 0.06 0.04 0.02
0.01 0.01 0.02 0.03 0.02 0.02 0.02 0.02 0.01 0.01 0.01 0.01 0.01 0.01 0.01 0.01 0.01 0.01 0.02 0.01 0.01 0.01 0.01 0.01 0.01 0.01 0.01 0.01 0.00 0.01 0.02 0.02 0.01 0.01 0.00 0.00 0.04 0.07 0.08 0.06 0.04 0.03 0.01
0.01 0.01 0.01 0.01 0.02 0.02 0.02 0.02 0.01 0.01 0.01 0.01 0.01 0.01 0.01 0.01 0.01 0.02 0.02 0.03 0.03 0.02 0.02 0.02 0.02 0.01 0.02 0.02 0.02 0.01 0.02 0.02 0.01 0.01 0.00 0.00 0.03 0.05 0.05 0.05 0.04 0.03 0.01
0.01 0.01 0.01 0.01 0.01 0.02 0.02 0.02 0.02 0.02 0.02 0.01 0.01 0.01 0.01 0.01 0.02 0.03 0.04 0.04 0.05 0.05 0.04 0.04 0.04 0.04 0.04 0.03 0.03 0.02 0.02 0.02 0.01 0.02 0.01 0.01 0.03 0.05 0.05 0.03 0.03 0.03 0.01
0.01 0.01 0.01 0.01 0.01 0.01 0.01 0.02 0.02 0.02 0.02 0.02 0.02 0.03 0.03 0.02 0.02 0.02 0.04 0.07 0.07 0.06 0.06 0.06 0.06 0.06 0.05 0.04 0.04 0.03 0.02 0.01 0.00 0.01 0.01 0.01 0.04 0.05 0.05 0.04 0.03 0.03 0.02
0.02 0.02 0.02 0.02 0.01 0.01 0.01 0.01 0.01 0.01 0.01 0.01 0.01 0.02 0.02 0.01 0.01 0.02 0.05 0.09 0.09 0.08 0.08 0.08 0.07 0.05 0.04 0.02 0.03 0.03 0.02 0.01 0.01 0.01 0.01 0.02 0.04 0.06 0.06 0.06 0.04 0.03 0.03
0.07 0.04 0.03 0.03 0.03 0.03 0.03 0.02 0.01 0.01 0.01 0.02 0.02 0.02 0.01 0.01 0.02 0.02 0.02 0.04 0.07 0.07 0.05 0.06 0.05 0.04 0.03 0.02 0.02 0.02 0.02 0.02 0.02 0.01 0.02 0.03 0.04 0.07 0.09 0.08 0.06 0.05 0.04
0.16 0.11 0.07 0.07 0.08 0.07 0.05 0.03 0.02 0.03 0.03 0.03 0.03 0.02 0.01 0.01 0.02 0.02 0.02 0.02 0.03 0.03 0.03 0.03 0.03 0.03 0.03 0.03 0.03 0.03 0.04 0.04 0.03 0.03 0.03 0.04 0.06 0.07 0.12 0.11 0.08 0.07 0.06
0.22 0.18 0.13 0.10 0.09 0.08 0.05 0.03 0.03 0.03 0.03 0.01 0.01 0.01 0.00 0.00 0.00 0.01 0.00 0.00 0.01 0.01 0.01 0.02 0.02 0.02 0.03 0.03 0.03 0.04 0.05 0.06 0.06 0.06 0.03 0.04 0.08 0.09 0.12 0.15 0.12 0.10 0.08
0.29 0.23 0.17 0.12 0.10 0.08 0.06 0.05 0.04 0.02 0.01 0.00 0.00 0.00 0.00 0.00 0.00 0.00 0.00 0.00 0.00 0.00 0.00 0.01 0.02 0.02 0.02 0.02 0.02 0.03 0.05 0.05 0.04 0.03 0.03 0.03 0.10 0.13 0.12 0.14 0.15 0.16 0.14
0.34 0.30 0.24 0.16 0.12 0.09 0.06 0.04 0.02 0.01 0.01 0.01 0.00 0.00 0.00 0.00 0.00 0.00 0.00 0.00 0.00 0.00 0.00 0.00 0.01 0.01 0.02 0.02 0.02 0.03 0.03 0.04 0.03 0.04 0.03 0.03 0.05 0.12 0.13 0.14 0.15 0.16 0.17
0.34 0.26 0.22 0.15 0.10 0.07 0.04 0.02 0.01 0.01 0.01 0.01 0.00 0.00 0.00 0.00 0.00 0.00 0.00 0.00 0.00 0.00 0.00 0.00 0.00 0.00 0.00 0.00 0.01 0.02 0.02 0.02 0.03 0.03 0.02 0.02 0.03 0.06 0.10 0.14 0.15 0.16 0.18
0.33 0.24 0.17 0.13 0.09 0.05 0.02 0.01 0.01 0.01 0.01 0.00 0.00 0.00 0.00 0.00 0.00 0.00 0.00 0.00 0.00 0.00 0.00 0.00 0.00 0.00 0.00 0.00 0.01 0.01 0.01 0.01 0.01 0.01 0.01 0.01 0.01 0.03 0.06 0.10 0.16 0.17 0.20
0.33 0.24 0.17 0.10 0.06 0.02 0.01 0.00 0.00 0.00 0.00 0.00 0.00 0.00 0.00 0.00 0.00 0.00 0.00 0.00 0.00 0.00 0.00 0.00 0.00 0.00 0.00 0.00 0.00 0.00 0.00 0.00 0.00 0.01 0.01 0.01 0.01 0.01 0.03 0.06 0.09 0.11 0.16
0.30 0.24 0.17 0.09 0.03 0.01 0.00 0.00 0.00 0.00 0.00 0.00 0.00 0.00 0.00 0.00 0.00 0.00 0.00 0.00 0.00 0.00 0.00 0.00 0.00 0.00 0.00 0.00 0.00 0.00 0.00 0.00 0.00 0.00 0.00 0.00 0.01 0.01 0.02 0.02 0.03 0.05 0.07
0.23 0.17 0.10 0.05 0.02 0.01 0.00 0.00 0.00 0.00 0.00 0.00 0.00 0.00 0.00 0.00 0.00 0.00 0.00 0.00 0.00 0.00 0.00 0.00 0.00 0.00 0.00 0.00 0.00 0.00 0.00 0.00 0.00 0.00 0.00 0.00 0.00 0.01 0.01 0.02 0.02 0.02 0.03
0.16 0.09 0.05 0.02 0.02 0.00 0.00 0.00 0.00 0.00 0.00 0.00 0.00 0.00 0.00 0.00 0.00 0.00 0.00 0.00 0.00 0.00 0.00 0.00 0.00 0.00 0.00 0.00 0.00 0.00 0.00 0.00 0.00 0.00 0.00 0.00 0.00 0.00 0.00 0.01 0.01 0.01 0.01
0.07 0.04 0.02 0.01 0.01 0.00 0.00 0.00 0.00 0.00 0.00 0.00 0.00 0.00 0.00 0.00 0.00 0.00 0.00 0.00 0.00 0.00 0.00 0.00 0.00 0.00 0.00 0.00 0.00 0.00 0.00 0.00 0.00 0.00 0.00 0.00 0.00 0.00 0.00 0.00 0.00 0.00 0.00
0.02 0.01 0.01 0.01 0.00 0.00 0.00 0.00 0.00 0.00 0.00 0.00 0.00 0.00 0.00 0.00 0.00 0.00 0.00 0.00 0.00 0.00 0.00 0.00 0.00 0.00 0.00 0.00 0.00 0.00 0.00 0.00 0.00 0.00 0.00 0.00 0.00 0.00 0.00 0.00 0.00 0.00 0.00
0.01 0.01 0.01 0.00 0.00 0.00 0.00 0.00 0.00 0.00 0.00 0.00 0.00 0.00 0.00 0.00 0.00 0.00 0.00 0.00 0.00 0.00 0.00 0.00 0.00 0.00 0.00 0.00 0.00 0.00 0.00 0.00 0.00 0.00 0.00 0.00 0.00 0.00 0.00 0.00 0.00 0.00 0.00

GEFSSE_prec_meanprec_072.txt.gz
QPF
0.00 0.00 0.02 0.05 0.04 0.02 0.01 0.01 0.01 0.01 0.01 0.00 0.00 0.00 0.00 0.00 0.00 0.00 0.00 0.00 0.00 0.00 0.00 0.00 0.00 0.00 0.00 0.00 0.00 0.00 0.00 0.01 0.01 0.03 0.03 0.06 0.13 0.14 0.15 0.15 0.14 0.13 0.09
0.00 0.00 0.02 0.05 0.05 0.04 0.02 0.02 0.01 0.01 0.01 0.00 0.00 0.00 0.00 0.00 0.00 0.00 0.00 0.00 0.00 0.00 0.00 0.00 0.00 0.00 0.00 0.00 0.00 0.00 0.00 0.01 0.02 0.02 0.04 0.08 0.11 0.13 0.14 0.14 0.18 0.10 0.07
0.00 0.00 0.01 0.03 0.05 0.05 0.03 0.02 0.01 0.01 0.01 0.00 0.00 0.00 0.00 0.00 0.00 0.00 0.00 0.01 0.00 0.00 0.00 0.00 0.00 0.00 0.00 0.01 0.01 0.01 0.01 0.02 0.03 0.03 0.05 0.09 0.08 0.10 0.11 0.12 0.15 0.08 0.07
0.00 0.00 0.00 0.03 0.05 0.05 0.04 0.04 0.02 0.01 0.01 0.00 0.00 0.00 0.00 0.00 0.00 0.00 0.00 0.01 0.00 0.00 0.00 0.00 0.00 0.00 0.00 0.01 0.01 0.01 0.01 0.02 0.02 0.02 0.03 0.04 0.05 0.06 0.07 0.08 0.11 0.09 0.07
0.00 0.00 0.01 0.03 0.04 0.05 0.05 0.04 0.03 0.02 0.01 0.01 0.01 0.00 0.00 0.00 0.00 0.00 0.00 0.00 0.00 0.00 0.00 0.00 0.00 0.00 0.00 0.00 0.01 0.02 0.02 0.02 0.01 0.02 0.03 0.05 0.07 0.08 0.08 0.08 0.08 0.07 0.07
0.01 0.01 0.01 0.03 0.04 0.05 0.05 0.04 0.03 0.02 0.01 0.01 0.01 0.01 0.00 0.00 0.00 0.00 0.00 0.01 0.01 0.00 0.00 0.00 0.00 0.00 0.00 0.01 0.01 0.03 0.04 0.03 0.02 0.01 0.02 0.04 0.06 0.07 0.09 0.09 0.06 0.04 0.04
0.01 0.01 0.01 0.04 0.05 0.06 0.06 0.05 0.03 0.02 0.02 0.01 0.01 0.01 0.00 0.00 0.01 0.01 0.01 0.01 0.01 0.01 0.00 0.00 0.00 0.00 0.00 0.00 0.01 0.03 0.05 0.04 0.01 0.01 0.02 0.05 0.06 0.07 0.11 0.11 0.06 0.03 0.03
0.01 0.01 0.02 0.04 0.06 0.07 0.06 0.06 0.04 0.03 0.02 0.02 0.01 0.01 0.01 0.01 0.01 0.01 0.01 0.02 0.01 0.01 0.01 0.01 0.01 0.00 0.00 0.00 0.01 0.03 0.05 0.04 0.01 0.01 0.01 0.02 0.04 0.07 0.09 0.09 0.07 0.04 0.04
0.01 0.01 0.02 0.03 0.04 0.06 0.07 0.06 0.04 0.03 0.02 0.01 0.01 0.00 0.00 0.00 0.00 0.01 0.01 0.02 0.02 0.02 0.01 0.01 0.01 0.01 0.01 0.01 0.01 0.02 0.04 0.03 0.01 0.01 0.01 0.02 0.02 0.05 0.08 0.06 0.06 0.05 0.04
0.02 0.02 0.02 0.02 0.03 0.03 0.03 0.04 0.04 0.02 0.02 0.01 0.01 0.00 0.00 0.00 0.01 0.01 0.01 0.02 0.03 0.03 0.03 0.03 0.03 0.03 0.02 0.01 0.01 0.01 0.03 0.02 0.01 0.01 0.01 0.01 0.02 0.04 0.08 0.07 0.06 0.05 0.04
0.02 0.03 0.03 0.03 0.03 0.04 0.03 0.02 0.03 0.02 0.01 0.01 0.02 0.01 0.02 0.03 0.03 0.02 0.02 0.03 0.04 0.04 0.05 0.04 0.04 0.04 0.03 0.02 0.01 0.01 0.01 0.01 0.01 0.01 0.02 0.01 0.01 0.03 0.06 0.08 0.07 0.06 0.05
0.02 0.02 0.03 0.03 0.02 0.02 0.02 0.03 0.03 0.02 0.02 0.03 0.04 0.04 0.05 0.05 0.05 0.03 0.03 0.03 0.05 0.06 0.06 0.06 0.06 0.04 0.03 0.02 0.01 0.01 0.01 0.00 0.01 0.02 0.02 0.02 0.03 0.04 0.06 0.07 0.07 0.06 0.06
0.02 0.02 0.02 0.03 0.03 0.02 0.04 0.04 0.04 0.04 0.04 0.04 0.04 0.04 0.04 0.04 0.04 0.04 0.06 0.07 0.08 0.07 0.08 0.08 0.07 0.06 0.05 0.05 0.04 0.02 0.01 0.01 0.01 0.01 0.02 0.04 0.05 0.06 0.07 0.07 0.06 0.06 0.06
0.03 0.02 0.02 0.03 0.04 0.04 0.06 0.06 0.06 0.04 0.04 0.04 0.03 0.03 0.03 0.04 0.04 0.04 0.04 0.05 0.07 0.09 0.11 0.11 0.10 0.10 0.06 0.05 0.05 0.05 0.03 0.03 0.02 0.02 0.04 0.04 0.07 0.09 0.10 0.10 0.09 0.08 0.08
0.05 0.04 0.05 0.06 0.06 0.07 0.09 0.07 0.06 0.05 0.04 0.03 0.02 0.02 0.03 0.03 0.03 0.03 0.03 0.04 0.04 0.07 0.09 0.09 0.07 0.07 0.07 0.06 0.04 0.04 0.04 0.04 0.04 0.04 0.04 0.05 0.08 0.10 0.12 0.14 0.13 0.11 0.10
0.09 0.07 0.08 0.10 0.09 0.10 0.10 0.09 0.07 0.04 0.03 0.02 0.01 0.01 0.01 0.01 0.01 0.01 0.01 0.02 0.02 0.03 0.04 0.05 0.05 0.06 0.06 0.06 0.05 0.05 0.04 0.03 0.04 0.04 0.06 0.08 0.07 0.08 0.11 0.16 0.15 0.13 0.12
0.13 0.11 0.12 0.13 0.12 0.11 0.12 0.11 0.07 0.03 0.02 0.02 0.01 0.01 0.00 0.00 0.00 0.01 0.01 0.01 0.01 0.01 0.01 0.02 0.03 0.03 0.03 0.04 0.05 0.04 0.04 0.04 0.05 0.04 0.04 0.06 0.05 0.06 0.08 0.13 0.15 0.14 0.17
0.17 0.15 0.14 0.13 0.14 0.15 0.15 0.10 0.05 0.02 0.02 0.02 0.02 0.01 0.00 0.00 0.00 0.01 0.00 0.00 0.00 0.00 0.00 0.01 0.01 0.02 0.02 0.03 0.03 0.03 0.04 0.05 0.04 0.04 0.03 0.04 0.07 0.08 0.10 0.11 0.12 0.13 0.15
0.21 0.21 0.18 0.16 0.19 0.19 0.15 0.08 0.04 0.03 0.02 0.02 0.02 0.00 0.00 0.00 0.00 0.00 0.00 0.00 0.00 0.00 0.00 0.00 0.01 0.01 0.01 0.02 0.01 0.01 0.01 0.02 0.02 0.02 0.03 0.02 0.05 0.08 0.11 0.11 0.10 0.11 0.13
0.23 0.22 0.22 0.21 0.23 0.17 0.12 0.07 0.04 0.03 0.02 0.02 0.01 0.01 0.00 0.00 0.00 0.00 0.00 0.00 0.00 0.00 0.00 0.00 0.01 0.01 0.00 0.00 0.00 0.00 0.00 0.01 0.01 0.02 0.02 0.02 0.03 0.04 0.05 0.08 0.13 0.11 0.11
0.24 0.21 0.22 0.19 0.19 0.15 0.08 0.05 0.03 0.01 0.01 0.01 0.01 0.00 0.00 0.00 0.00 0.00 0.00 0.00 0.00 0.00 0.00 0.00 0.00 0.00 0.00 0.00 0.00 0.00 0.00 0.00 0.00 0.00 0.01 0.01 0.01 0.02 0.03 0.05 0.07 0.08 0.09
0.20 0.21 0.18 0.15 0.12 0.09 0.07 0.04 0.02 0.01 0.00 0.00 0.00 0.00 0.00 0.00 0.00 0.00 0.00 0.00 0.00 0.00 0.00 0.00 0.00 0.00 0.00 0.00 0.00 0.00 0.00 0.00 0.00 0.00 0.00 0.00 0.00 0.00 0.01 0.01 0.02 0.05 0.04
0.12 0.15 0.13 0.10 0.08 0.05 0.04 0.02 0.01 0.00 0.00 0.00 0.00 0.00 0.00 0.00 0.00 0.00 0.00 0.00 0.00 0.00 0.00 0.00 0.00 0.00 0.00 0.00 0.00 0.00 0.00 0.00 0.00 0.00 0.00 0.00 0.00 0.00 0.00 0.00 0.01 0.02 0.03
0.07 0.08 0.09 0.06 0.05 0.02 0.02 0.01 0.00 0.00 0.00 0.00 0.00 0.00 0.00 0.00 0.00 0.00 0.00 0.00 0.00 0.00 0.00 0.00 0.00 0.00 0.00 0.00 0.00 0.00 0.00 0.00 0.00 0.00 0.00 0.00 0.00 0.00 0.00 0.00 0.00 0.01 0.01
0.04 0.04 0.04 0.03 0.02 0.01 0.00 0.00 0.00 0.01 0.01 0.00 0.00 0.00 0.00 0.00 0.00 0.00 0.00 0.00 0.00 0.00 0.00 0.00 0.00 0.00 0.00 0.00 0.00 0.00 0.00 0.00 0.00 0.00 0.00 0.00 0.00 0.00 0.00 0.00 0.00 0.01 0.00
0.02 0.02 0.02 0.02 0.01 0.01 0.00 0.00 0.01 0.01 0.01 0.00 0.00 0.00 0.00 0.00 0.00 0.00 0.00 0.00 0.00 0.00 0.00 0.00 0.00 0.00 0.00 0.00 0.00 0.00 0.00 0.00 0.00 0.00 0.00 0.00 0.00 0.00 0.00 0.00 0.00 0.00 0.00

GEFSSE_prec_meanprec_078.txt.gz
QPF
0.00 0.00 0.00 0.00 0.00 0.01 0.02 0.03 0.03 0.02 0.01 0.01 0.00 0.00 0.00 0.00 0.00 0.00 0.01 0.01 0.01 0.01 0.01 0.01 0.01 0.00 0.00 0.00 0.00 0.01 0.01 0.02 0.03 0.05 0.07 0.07 0.09 0.08 0.07 0.09 0.11 0.08 0.08
0.00 0.00 0.00 0.00 0.00 0.01 0.02 0.03 0.03 0.02 0.01 0.01 0.00 0.00 0.00 0.00 0.00 0.00 0.01 0.01 0.01 0.00 0.01 0.01 0.01 0.01 0.00 0.00 0.00 0.01 0.02 0.03 0.05 0.07 0.11 0.11 0.09 0.08 0.08 0.10 0.12 0.08 0.06
0.00 0.00 0.00 0.00 0.00 0.01 0.02 0.02 0.03 0.02 0.01 0.00 0.00 0.00 0.00 0.00 0.00 0.00 0.01 0.00 0.01 0.01 0.01 0.01 0.01 0.01 0.01 0.00 0.00 0.01 0.02 0.04 0.09 0.19 0.26 0.19 0.08 0.06 0.07 0.09 0.10 0.07 0.07
0.00 0.00 0.00 0.00 0.01 0.01 0.02 0.03 0.03 0.02 0.01 0.01 0.00 0.00 0.00 0.00 0.00 0.01 0.01 0.00 0.00 0.00 0.00 0.01 0.01 0.00 0.00 0.00 0.00 0.01 0.02 0.05 0.11 0.33 0.32 0.17 0.07 0.05 0.06 0.05 0.06 0.07 0.08
0.00 0.00 0.00 0.00 0.01 0.01 0.02 0.02 0.03 0.02 0.01 0.01 0.01 0.00 0.00 0.00 0.00 0.00 0.01 0.00 0.00 0.00 0.00 0.01 0.00 0.00 0.00 0.00 0.01 0.02 0.02 0.05 0.13 0.27 0.20 0.17 0.09 0.03 0.04 0.04 0.05 0.06 0.07
0.00 0.00 0.00 0.00 0.01 0.01 0.02 0.02 0.02 0.02 0.01 0.01 0.01 0.01 0.00 0.00 0.00 0.00 0.00 0.00 0.00 0.00 0.00 0.00 0.00 0.00 0.00 0.00 0.01 0.02 0.02 0.06 0.15 0.14 0.10 0.14 0.07 0.03 0.04 0.04 0.05 0.05 0.06
0.00 0.00 0.00 0.00 0.01 0.02 0.02 0.02 0.03 0.03 0.02 0.02 0.02 0.01 0.01 0.01 0.00 0.00 0.00 0.00 0.00 0.00 0.00 0.00 0.00 0.00 0.00 0.00 0.01 0.01 0.03 0.06 0.11 0.06 0.09 0.12 0.06 0.03 0.03 0.05 0.05 0.04 0.05
0.01 0.00 0.00 0.00 0.01 0.03 0.03 0.03 0.03 0.03 0.02 0.02 0.01 0.01 0.01 0.01 0.01 0.01 0.00 0.00 0.00 0.00 0.00 0.00 0.00 0.00 0.00 0.00 0.00 0.01 0.02 0.05 0.05 0.03 0.06 0.06 0.02 0.02 0.04 0.04 0.04 0.04 0.04
0.01 0.00 0.00 0.00 0.01 0.02 0.03 0.04 0.04 0.03 0.02 0.01 0.01 0.01 0.01 0.01 0.01 0.01 0.01 0.00 0.00 0.00 0.00 0.00 0.00 0.00 0.00 0.00 0.00 0.00 0.01 0.03 0.04 0.06 0.11 0.04 0.01 0.01 0.04 0.03 0.03 0.03 0.04
0.02 0.01 0.01 0.00 0.01 0.01 0.02 0.02 0.03 0.03 0.02 0.01 0.01 0.01 0.01 0.01 0.01 0.01 0.01 0.01 0.01 0.01 0.01 0.00 0.00 0.00 0.00 0.00 0.00 0.00 0.00 0.02 0.05 0.14 0.12 0.02 0.01 0.01 0.03 0.03 0.03 0.03 0.04
0.05 0.02 0.01 0.01 0.02 0.03 0.03 0.01 0.01 0.02 0.01 0.01 0.02 0.01 0.01 0.06 0.08 0.08 0.04 0.03 0.01 0.01 0.01 0.01 0.01 0.01 0.01 0.00 0.00 0.00 0.00 0.05 0.13 0.19 0.13 0.02 0.02 0.02 0.02 0.03 0.03 0.03 0.03
0.07 0.09 0.04 0.03 0.01 0.01 0.03 0.04 0.05 0.04 0.03 0.05 0.08 0.05 0.07 0.09 0.11 0.10 0.08 0.05 0.02 0.02 0.02 0.02 0.01 0.01 0.01 0.02 0.03 0.01 0.00 0.02 0.06 0.13 0.07 0.03 0.02 0.03 0.05 0.04 0.03 0.03 0.03
0.09 0.13 0.06 0.04 0.03 0.03 0.05 0.06 0.08 0.09 0.08 0.08 0.09 0.07 0.08 0.06 0.07 0.07 0.09 0.07 0.05 0.04 0.06 0.08 0.04 0.04 0.04 0.08 0.10 0.05 0.01 0.02 0.05 0.06 0.06 0.03 0.02 0.02 0.04 0.03 0.02 0.03 0.04
0.11 0.10 0.07 0.05 0.06 0.07 0.06 0.07 0.06 0.06 0.06 0.08 0.07 0.05 0.05 0.06 0.07 0.09 0.08 0.07 0.08 0.10 0.11 0.10 0.12 0.08 0.09 0.07 0.06 0.07 0.03 0.01 0.04 0.05 0.07 0.04 0.02 0.02 0.03 0.04 0.04 0.03 0.03
0.20 0.15 0.13 0.09 0.09 0.10 0.09 0.07 0.05 0.05 0.05 0.05 0.04 0.03 0.02 0.03 0.05 0.05 0.05 0.04 0.04 0.06 0.08 0.09 0.10 0.11 0.11 0.09 0.06 0.06 0.06 0.03 0.06 0.13 0.11 0.05 0.03 0.03 0.04 0.04 0.05 0.05 0.05
0.24 0.22 0.17 0.10 0.09 0.09 0.07 0.06 0.06 0.04 0.04 0.03 0.02 0.01 0.01 0.01 0.02 0.03 0.04 0.03 0.03 0.03 0.05 0.06 0.09 0.11 0.12 0.11 0.08 0.07 0.05 0.04 0.04 0.06 0.12 0.10 0.05 0.05 0.05 0.06 0.08 0.08 0.07
0.30 0.25 0.17 0.09 0.09 0.09 0.08 0.05 0.04 0.05 0.03 0.02 0.02 0.01 0.00 0.00 0.01 0.01 0.02 0.02 0.02 0.02 0.03 0.03 0.04 0.07 0.08 0.09 0.08 0.07 0.06 0.05 0.07 0.06 0.07 0.09 0.11 0.09 0.07 0.07 0.09 0.09 0.08
0.32 0.24 0.18 0.09 0.10 0.10 0.09 0.07 0.05 0.04 0.02 0.01 0.01 0.01 0.00 0.01 0.00 0.00 0.00 0.00 0.01 0.00 0.01 0.01 0.02 0.04 0.05 0.06 0.07 0.05 0.05 0.04 0.04 0.05 0.04 0.06 0.12 0.13 0.10 0.08 0.07 0.06 0.06
0.31 0.24 0.18 0.15 0.13 0.12 0.08 0.07 0.05 0.03 0.01 0.01 0.01 0.01 0.00 0.00 0.01 0.00 0.00 0.00 0.00 0.00 0.00 0.00 0.01 0.02 0.03 0.03 0.03 0.03 0.02 0.03 0.03 0.04 0.03 0.04 0.07 0.10 0.08 0.07 0.05 0.05 0.08
0.23 0.21 0.15 0.14 0.14 0.11 0.08 0.07 0.04 0.03 0.01 0.00 0.00 0.00 0.00 0.00 0.01 0.00 0.00 0.00 0.00 0.00 0.00 0.01 0.01 0.02 0.02 0.02 0.01 0.02 0.01 0.01 0.01 0.02 0.02 0.03 0.05 0.04 0.05 0.08 0.09 0.06 0.08
0.17 0.14 0.12 0.16 0.15 0.10 0.07 0.05 0.04 0.02 0.01 0.00 0.00 0.00 0.00 0.00 0.00 0.00 0.00 0.00 0.00 0.00 0.01 0.00 0.00 0.01 0.00 0.00 0.00 0.01 0.01 0.00 0.00 0.00 0.01 0.02 0.02 0.02 0.04 0.05 0.06 0.07 0.07
0.16 0.14 0.12 0.14 0.12 0.10 0.08 0.06 0.04 0.02 0.01 0.00 0.00 0.00 0.00 0.00 0.00 0.00 0.00 0.00 0.00 0.00 0.00 0.00 0.00 0.00 0.01 0.00 0.00 0.01 0.01 0.01 0.01 0.00 0.00 0.01 0.01 0.01 0.02 0.02 0.03 0.05 0.05
0.12 0.13 0.13 0.12 0.11 0.11 0.09 0.05 0.03 0.01 0.00 0.00 0.00 0.00 0.00 0.00 0.00 0.00 0.00 0.00 0.00 0.00 0.00 0.00 0.00 0.00 0.00 0.00 0.00 0.00 0.01 0.02 0.02 0.00 0.00 0.00 0.00 0.00 0.00 0.01 0.01 0.03 0.04
0.10 0.10 0.12 0.10 0.10 0.08 0.08 0.06 0.03 0.02 0.01 0.01 0.00 0.00 0.00 0.00 0.00 0.00 0.00 0.00 0.00 0.00 0.00 0.00 0.00 0.00 0.00 0.00 0.00 0.00 0.00 0.01 0.01 0.02 0.01 0.00 0.00 0.00 0.00 0.00 0.01 0.01 0.02
0.09 0.07 0.07 0.07 0.07 0.06 0.06 0.06 0.04 0.02 0.02 0.01 0.00 0.00 0.00 0.00 0.00 0.00 0.00 0.00 0.00 0.00 0.00 0.00 0.00 0.00 0.00 0.00 0.00 0.00 0.00 0.00 0.00 0.00 0.01 0.00 0.00 0.00 0.00 0.00 0.00 0.00 0.01
0.09 0.06 0.04 0.03 0.03 0.04 0.04 0.04 0.03 0.03 0.03 0.02 0.01 0.01 0.00 0.00 0.00 0.00 0.00 0.00 0.00 0.00 0.00 0.00 0.00 0.00 0.00 0.00 0.00 0.00 0.00 0.00 0.00 0.00 0.00 0.00 0.00 0.00 0.00 0.00 0.00 0.00 0.00

GEFSSE_prec_meanprec_084.txt.gz
QPF
0.02 0.00 0.01 0.01 0.00 0.00 0.00 0.01 0.01 0.01 0.01 0.00 0.00 0.00 0.00 0.00 0.00 0.00 0.00 0.00 0.00 0.01 0.01 0.01 0.01 0.01 0.01 0.02 0.03 0.03 0.04 0.07 0.09 0.08 0.08 0.07 0.08 0.08 0.06 0.06 0.05 0.04 0.04
0.00 0.00 0.01 0.01 0.00 0.00 0.01 0.01 0.01 0.01 0.00 0.00 0.00 0.00 0.00 0.00 0.00 0.00 0.00 0.00 0.01 0.01 0.00 0.00 0.01 0.01 0.01 0.02 0.03 0.03 0.04 0.08 0.10 0.10 0.10 0.09 0.09 0.09 0.07 0.05 0.04 0.03 0.04
0.00 0.00 0.00 0.01 0.00 0.00 0.00 0.01 0.01 0.00 0.00 0.00 0.00 0.00 0.00 0.00 0.00 0.00 0.00 0.00 0.01 0.01 0.00 0.00 0.00 0.00 0.01 0.01 0.02 0.03 0.05 0.07 0.09 0.07 0.05 0.04 0.05 0.07 0.05 0.05 0.04 0.03 0.04
0.00 0.00 0.00 0.01 0.00 0.00 0.00 0.00 0.00 0.00 0.00 0.00 0.00 0.00 0.00 0.00 0.01 0.00 0.00 0.00 0.00 0.00 0.00 0.01 0.00 0.00 0.00 0.01 0.01 0.03 0.05 0.06 0.09 0.06 0.03 0.01 0.01 0.03 0.03 0.04 0.04 0.02 0.03
0.01 0.00 0.00 0.00 0.00 0.00 0.00 0.00 0.00 0.00 0.00 0.00 0.00 0.00 0.00 0.01 0.01 0.00 0.00 0.00 0.00 0.00 0.01 0.00 0.00 0.00 0.01 0.01 0.02 0.04 0.07 0.12 0.15 0.08 0.03 0.01 0.01 0.03 0.03 0.03 0.03 0.02 0.02
0.01 0.00 0.00 0.00 0.00 0.00 0.00 0.00 0.00 0.00 0.00 0.00 0.00 0.00 0.01 0.00 0.00 0.00 0.00 0.00 0.00 0.00 0.00 0.00 0.00 0.00 0.01 0.01 0.03 0.05 0.09 0.15 0.15 0.09 0.05 0.02 0.01 0.02 0.03 0.03 0.03 0.02 0.02
0.00 0.00 0.00 0.00 0.00 0.00 0.00 0.00 0.00 0.00 0.00 0.00 0.00 0.00 0.00 0.00 0.00 0.00 0.00 0.00 0.00 0.00 0.00 0.00 0.00 0.00 0.01 0.01 0.02 0.05 0.10 0.17 0.15 0.13 0.11 0.05 0.02 0.02 0.03 0.03 0.02 0.02 0.02
0.01 0.00 0.00 0.00 0.00 0.00 0.00 0.00 0.00 0.00 0.00 0.00 0.00 0.00 0.00 0.00 0.00 0.00 0.00 0.00 0.00 0.00 0.00 0.00 0.00 0.00 0.00 0.01 0.02 0.04 0.07 0.13 0.16 0.13 0.08 0.04 0.03 0.02 0.02 0.02 0.01 0.01 0.01
0.07 0.01 0.00 0.00 0.00 0.01 0.01 0.01 0.01 0.00 0.00 0.00 0.00 0.00 0.00 0.00 0.00 0.00 0.00 0.00 0.00 0.00 0.00 0.00 0.00 0.00 0.01 0.01 0.02 0.04 0.06 0.09 0.16 0.24 0.15 0.04 0.04 0.02 0.01 0.01 0.01 0.02 0.01
0.10 0.03 0.01 0.00 0.00 0.00 0.01 0.01 0.01 0.00 0.00 0.00 0.00 0.00 0.00 0.00 0.00 0.01 0.00 0.00 0.00 0.00 0.00 0.00 0.00 0.00 0.01 0.01 0.02 0.04 0.06 0.09 0.20 0.25 0.17 0.04 0.04 0.02 0.01 0.01 0.01 0.01 0.01
0.10 0.05 0.04 0.02 0.01 0.00 0.00 0.01 0.01 0.00 0.00 0.00 0.00 0.00 0.00 0.01 0.01 0.01 0.02 0.02 0.01 0.00 0.00 0.00 0.00 0.00 0.01 0.02 0.03 0.04 0.05 0.12 0.25 0.27 0.15 0.07 0.05 0.04 0.01 0.01 0.01 0.01 0.01
0.24 0.11 0.08 0.05 0.03 0.01 0.01 0.01 0.01 0.01 0.00 0.00 0.01 0.01 0.01 0.02 0.02 0.03 0.05 0.04 0.02 0.01 0.01 0.01 0.01 0.01 0.01 0.02 0.04 0.05 0.08 0.14 0.22 0.20 0.12 0.09 0.07 0.04 0.02 0.01 0.01 0.02 0.01
0.27 0.18 0.12 0.09 0.07 0.05 0.04 0.01 0.01 0.01 0.01 0.01 0.01 0.01 0.01 0.02 0.02 0.02 0.02 0.03 0.02 0.01 0.01 0.02 0.02 0.02 0.03 0.04 0.05 0.08 0.12 0.14 0.24 0.19 0.11 0.09 0.08 0.05 0.03 0.02 0.01 0.01 0.01
0.27 0.33 0.28 0.18 0.13 0.12 0.07 0.03 0.01 0.01 0.01 0.01 0.01 0.01 0.01 0.01 0.01 0.01 0.01 0.01 0.01 0.00 0.01 0.01 0.01 0.01 0.04 0.05 0.08 0.12 0.15 0.16 0.24 0.23 0.13 0.10 0.08 0.07 0.04 0.03 0.02 0.01 0.01
0.30 0.36 0.54 0.36 0.20 0.15 0.08 0.03 0.02 0.02 0.01 0.01 0.01 0.01 0.01 0.01 0.01 0.00 0.01 0.01 0.00 0.00 0.01 0.01 0.01 0.01 0.03 0.04 0.07 0.10 0.15 0.22 0.25 0.19 0.15 0.09 0.07 0.07 0.06 0.04 0.03 0.02 0.02
0.41 0.36 0.50 0.47 0.25 0.13 0.10 0.05 0.03 0.02 0.02 0.01 0.02 0.01 0.00 0.00 0.00 0.00 0.00 0.00 0.01 0.00 0.00 0.00 0.01 0.01 0.02 0.03 0.05 0.07 0.10 0.17 0.18 0.11 0.10 0.07 0.07 0.07 0.07 0.06 0.05 0.03 0.03
0.37 0.35 0.36 0.41 0.27 0.16 0.10 0.07 0.03 0.04 0.02 0.01 0.01 0.01 0.00 0.00 0.00 0.00 0.00 0.00 0.00 0.00 0.00 0.01 0.01 0.01 0.01 0.01 0.02 0.04 0.07 0.09 0.10 0.12 0.08 0.05 0.04 0.08 0.07 0.07 0.07 0.06 0.06
0.37 0.43 0.34 0.27 0.23 0.16 0.10 0.07 0.06 0.06 0.03 0.01 0.01 0.00 0.00 0.00 0.00 0.00 0.00 0.00 0.00 0.00 0.00 0.01 0.01 0.00 0.00 0.01 0.01 0.03 0.04 0.05 0.06 0.10 0.11 0.06 0.04 0.04 0.05 0.07 0.07 0.08 0.07
0.41 0.48 0.42 0.28 0.19 0.15 0.11 0.09 0.08 0.05 0.02 0.01 0.01 0.00 0.00 0.00 0.00 0.00 0.00 0.00 0.00 0.00 0.00 0.00 0.00 0.00 0.00 0.01 0.01 0.02 0.02 0.03 0.03 0.04 0.06 0.05 0.04 0.06 0.06 0.05 0.05 0.06 0.07
0.43 0.40 0.33 0.28 0.20 0.15 0.10 0.09 0.07 0.04 0.02 0.01 0.01 0.00 0.00 0.00 0.00 0.00 0.00 0.00 0.00 0.00 0.00 0.00 0.00 0.00 0.00 0.00 0.01 0.01 0.01 0.01 0.02 0.02 0.03 0.04 0.05 0.05 0.05 0.03 0.03 0.03 0.06
0.39 0.42 0.36 0.30 0.21 0.13 0.07 0.04 0.03 0.02 0.01 0.01 0.01 0.00 0.00 0.00 0.00 0.00 0.00 0.00 0.00 0.00 0.00 0.00 0.00 0.00 0.00 0.00 0.00 0.00 0.00 0.01 0.01 0.01 0.01 0.01 0.02 0.02 0.04 0.03 0.03 0.01 0.02
0.28 0.29 0.29 0.25 0.19 0.10 0.06 0.04 0.02 0.01 0.01 0.01 0.01 0.00 0.00 0.00 0.00 0.00 0.00 0.00 0.00 0.00 0.00 0.00 0.00 0.00 0.00 0.00 0.00 0.00 0.00 0.01 0.00 0.00 0.01 0.00 0.01 0.01 0.01 0.01 0.01 0.01 0.01
0.24 0.20 0.20 0.18 0.16 0.10 0.06 0.03 0.02 0.01 0.01 0.01 0.00 0.00 0.00 0.00 0.00 0.00 0.00 0.00 0.00 0.00 0.00 0.00 0.00 0.00 0.00 0.00 0.00 0.00 0.00 0.00 0.00 0.00 0.00 0.00 0.00 0.00 0.00 0.00 0.01 0.01 0.01
0.28 0.22 0.19 0.16 0.14 0.10 0.05 0.03 0.02 0.01 0.01 0.01 0.00 0.00 0.00 0.00 0.00 0.00 0.00 0.00 0.00 0.00 0.00 0.00 0.00 0.00 0.00 0.00 0.00 0.00 0.00 0.00 0.00 0.00 0.00 0.00 0.00 0.00 0.00 0.00 0.00 0.01 0.01
0.24 0.22 0.18 0.15 0.16 0.12 0.05 0.02 0.03 0.02 0.01 0.00 0.00 0.00 0.00 0.00 0.00 0.00 0.00 0.00 0.00 0.00 0.00 0.00 0.00 0.00 0.00 0.00 0.00 0.00 0.00 0.00 0.00 0.00 0.00 0.00 0.00 0.00 0.00 0.00 0.00 0.00 0.00
0.22 0.18 0.16 0.14 0.13 0.11 0.06 0.03 0.02 0.02 0.01 0.00 0.00 0.00 0.00 0.00 0.00 0.00 0.00 0.00 0.00 0.00 0.00 0.00 0.00 0.00 0.00 0.00 0.00 0.00 0.00 0.00 0.00 0.00 0.00 0.00 0.00 0.00 0.00 0.00 0.00 0.00 0.00

GEFSSE_prec_meanprec_090.txt.gz
QPF
0.01 0.02 0.03 0.03 0.01 0.00 0.00 0.00 0.00 0.00 0.00 0.00 0.00 0.00 0.00 0.00 0.00 0.00 0.00 0.00 0.00 0.00 0.00 0.01 0.01 0.01 0.01 0.02 0.03 0.03 0.03 0.04 0.05 0.07 0.09 0.08 0.08 0.09 0.10 0.08 0.06 0.04 0.05
0.00 0.01 0.03 0.03 0.01 0.00 0.00 0.00 0.00 0.00 0.00 0.00 0.00 0.00 0.00 0.00 0.00 0.00 0.00 0.00 0.00 0.00 0.01 0.01 0.01 0.01 0.01 0.02 0.02 0.03 0.03 0.04 0.05 0.07 0.11 0.11 0.12 0.10 0.08 0.07 0.06 0.04 0.05
0.00 0.00 0.02 0.03 0.01 0.01 0.00 0.00 0.00 0.00 0.00 0.00 0.00 0.00 0.00 0.00 0.00 0.00 0.00 0.00 0.01 0.01 0.00 0.01 0.01 0.01 0.01 0.01 0.02 0.03 0.03 0.04 0.05 0.07 0.07 0.07 0.09 0.08 0.06 0.06 0.08 0.06 0.04
0.00 0.00 0.01 0.02 0.01 0.01 0.00 0.00 0.00 0.00 0.00 0.00 0.00 0.00 0.00 0.00 0.00 0.00 0.00 0.00 0.01 0.01 0.00 0.01 0.01 0.01 0.01 0.01 0.02 0.02 0.03 0.05 0.06 0.05 0.02 0.03 0.05 0.06 0.06 0.06 0.08 0.06 0.04
0.01 0.00 0.01 0.02 0.01 0.00 0.00 0.00 0.00 0.00 0.00 0.00 0.00 0.00 0.00 0.00 0.00 0.01 0.00 0.00 0.01 0.00 0.00 0.00 0.01 0.01 0.01 0.01 0.02 0.03 0.04 0.05 0.04 0.02 0.00 0.01 0.03 0.06 0.07 0.07 0.07 0.05 0.05
0.01 0.01 0.01 0.01 0.01 0.00 0.00 0.00 0.00 0.00 0.00 0.00 0.00 0.00 0.00 0.00 0.00 0.00 0.01 0.01 0.00 0.00 0.00 0.00 0.01 0.01 0.01 0.02 0.02 0.04 0.07 0.06 0.01 0.00 0.00 0.01 0.02 0.06 0.06 0.06 0.05 0.03 0.03
0.01 0.02 0.01 0.01 0.01 0.00 0.00 0.00 0.00 0.00 0.00 0.00 0.01 0.00 0.00 0.00 0.00 0.00 0.00 0.00 0.00 0.00 0.00 0.00 0.00 0.01 0.01 0.02 0.03 0.04 0.07 0.06 0.01 0.00 0.00 0.01 0.01 0.04 0.05 0.05 0.05 0.03 0.03
0.00 0.01 0.01 0.01 0.01 0.00 0.00 0.00 0.00 0.00 0.00 0.00 0.01 0.00 0.00 0.00 0.00 0.00 0.00 0.00 0.00 0.00 0.00 0.01 0.01 0.01 0.01 0.02 0.03 0.03 0.05 0.04 0.00 0.01 0.01 0.01 0.02 0.03 0.04 0.05 0.04 0.03 0.03
0.02 0.02 0.02 0.01 0.01 0.01 0.00 0.00 0.00 0.00 0.00 0.01 0.01 0.01 0.01 0.01 0.01 0.01 0.01 0.01 0.00 0.00 0.00 0.01 0.01 0.01 0.01 0.01 0.02 0.03 0.04 0.04 0.01 0.01 0.01 0.01 0.02 0.02 0.03 0.04 0.03 0.03 0.03
0.09 0.07 0.04 0.02 0.01 0.00 0.00 0.00 0.01 0.01 0.01 0.01 0.01 0.01 0.01 0.01 0.01 0.01 0.01 0.01 0.01 0.01 0.01 0.01 0.01 0.01 0.01 0.01 0.02 0.03 0.04 0.03 0.01 0.00 0.00 0.01 0.02 0.02 0.03 0.03 0.02 0.02 0.02
0.16 0.19 0.11 0.05 0.02 0.01 0.01 0.01 0.01 0.01 0.01 0.01 0.01 0.01 0.01 0.01 0.01 0.01 0.01 0.01 0.01 0.01 0.01 0.01 0.01 0.01 0.01 0.01 0.02 0.02 0.03 0.01 0.01 0.00 0.00 0.01 0.02 0.04 0.04 0.02 0.02 0.03 0.02
0.10 0.12 0.13 0.08 0.05 0.02 0.02 0.01 0.01 0.01 0.01 0.01 0.00 0.01 0.01 0.00 0.01 0.01 0.02 0.02 0.02 0.01 0.01 0.02 0.03 0.03 0.02 0.01 0.01 0.01 0.02 0.02 0.01 0.00 0.00 0.02 0.03 0.04 0.04 0.03 0.03 0.04 0.03
0.10 0.08 0.08 0.07 0.07 0.04 0.03 0.02 0.01 0.00 0.00 0.00 0.00 0.01 0.01 0.00 0.01 0.01 0.01 0.02 0.02 0.02 0.02 0.03 0.03 0.03 0.02 0.02 0.01 0.01 0.01 0.01 0.01 0.01 0.01 0.02 0.03 0.05 0.04 0.04 0.05 0.05 0.04
0.12 0.10 0.08 0.07 0.06 0.05 0.03 0.03 0.02 0.01 0.00 0.00 0.00 0.01 0.01 0.01 0.01 0.01 0.01 0.02 0.02 0.02 0.01 0.02 0.02 0.02 0.03 0.03 0.02 0.02 0.02 0.02 0.02 0.01 0.01 0.03 0.04 0.05 0.05 0.04 0.04 0.05 0.05
0.23 0.19 0.14 0.12 0.08 0.06 0.05 0.04 0.02 0.01 0.01 0.01 0.00 0.00 0.01 0.01 0.02 0.02 0.02 0.02 0.02 0.02 0.02 0.01 0.01 0.02 0.03 0.04 0.03 0.03 0.03 0.03 0.03 0.02 0.02 0.04 0.05 0.06 0.06 0.06 0.05 0.05 0.05
0.39 0.31 0.23 0.16 0.11 0.09 0.06 0.04 0.03 0.02 0.02 0.01 0.01 0.01 0.01 0.01 0.01 0.01 0.01 0.01 0.01 0.02 0.02 0.02 0.01 0.02 0.03 0.05 0.05 0.05 0.03 0.03 0.03 0.03 0.02 0.04 0.07 0.08 0.10 0.10 0.09 0.09 0.09
0.31 0.30 0.29 0.24 0.15 0.11 0.09 0.06 0.05 0.03 0.02 0.02 0.02 0.02 0.02 0.02 0.01 0.01 0.01 0.01 0.01 0.01 0.01 0.01 0.01 0.01 0.02 0.02 0.03 0.03 0.03 0.03 0.04 0.04 0.03 0.03 0.04 0.08 0.11 0.13 0.12 0.12 0.11
0.31 0.27 0.26 0.25 0.20 0.16 0.14 0.10 0.08 0.05 0.03 0.02 0.02 0.02 0.02 0.01 0.00 0.00 0.00 0.00 0.00 0.00 0.01 0.01 0.01 0.01 0.01 0.01 0.01 0.02 0.03 0.04 0.04 0.04 0.03 0.04 0.04 0.04 0.08 0.12 0.12 0.12 0.15
0.38 0.31 0.28 0.25 0.23 0.20 0.16 0.13 0.11 0.08 0.05 0.04 0.02 0.01 0.01 0.00 0.00 0.00 0.00 0.00 0.00 0.00 0.00 0.01 0.00 0.00 0.01 0.01 0.01 0.02 0.02 0.03 0.03 0.03 0.03 0.03 0.03 0.03 0.05 0.08 0.11 0.11 0.14
0.47 0.42 0.34 0.33 0.29 0.23 0.20 0.16 0.13 0.10 0.07 0.05 0.03 0.02 0.01 0.01 0.00 0.00 0.00 0.00 0.00 0.00 0.00 0.00 0.00 0.00 0.00 0.00 0.01 0.01 0.01 0.01 0.02 0.02 0.03 0.03 0.02 0.02 0.02 0.04 0.05 0.06 0.11
0.49 0.49 0.38 0.32 0.29 0.25 0.20 0.16 0.13 0.09 0.07 0.05 0.04 0.02 0.01 0.00 0.00 0.00 0.00 0.00 0.00 0.00 0.00 0.00 0.00 0.00 0.00 0.00 0.00 0.00 0.00 0.01 0.01 0.01 0.01 0.01 0.01 0.01 0.01 0.02 0.03 0.02 0.04
0.38 0.40 0.34 0.29 0.25 0.20 0.17 0.15 0.13 0.11 0.08 0.06 0.04 0.02 0.00 0.00 0.00 0.00 0.00 0.00 0.00 0.00 0.00 0.00 0.00 0.00 0.00 0.00 0.00 0.00 0.00 0.00 0.00 0.00 0.00 0.00 0.01 0.01 0.01 0.01 0.01 0.01 0.02
0.24 0.26 0.28 0.29 0.26 0.19 0.17 0.16 0.12 0.09 0.07 0.05 0.02 0.01 0.00 0.00 0.00 0.00 0.00 0.00 0.00 0.00 0.00 0.00 0.00 0.00 0.00 0.00 0.00 0.00 0.00 0.00 0.00 0.00 0.00 0.00 0.00 0.00 0.00 0.00 0.00 0.00 0.01
0.20 0.17 0.21 0.27 0.26 0.22 0.19 0.13 0.08 0.05 0.04 0.03 0.01 0.01 0.00 0.00 0.00 0.00 0.00 0.00 0.00 0.00 0.00 0.00 0.00 0.00 0.00 0.00 0.00 0.00 0.00 0.00 0.00 0.00 0.00 0.00 0.00 0.00 0.00 0.00 0.00 0.00 0.00
0.16 0.15 0.16 0.19 0.20 0.18 0.17 0.14 0.11 0.07 0.05 0.03 0.01 0.01 0.00 0.00 0.00 0.00 0.00 0.00 0.00 0.00 0.00 0.00 0.00 0.00 0.00 0.00 0.00 0.00 0.00 0.00 0.00 0.00 0.00 0.00 0.00 0.00 0.00 0.00 0.00 0.00 0.00
0.12 0.14 0.15 0.16 0.15 0.14 0.16 0.15 0.11 0.07 0.05 0.03 0.01 0.00 0.00 0.00 0.00 0.00 0.00 0.00 0.00 0.00 0.00 0.00 0.00 0.00 0.00 0.00 0.00 0.00 0.00 0.00 0.00 0.00 0.00 0.00 0.00 0.00 0.00 0.00 0.00 0.00 0.00

GEFSSE_prec_meanprec_096.txt.gz
QPF
0.00 0.00 0.02 0.02 0.01 0.00 0.00 0.00 0.00 0.00 0.00 0.00 0.00 0.00 0.01 0.01 0.00 0.00 0.00 0.00 0.00 0.00 0.01 0.01 0.02 0.02 0.02 0.02 0.03 0.03 0.02 0.03 0.08 0.09 0.06 0.08 0.09 0.09 0.09 0.09 0.06 0.03 0.03
0.00 0.00 0.01 0.01 0.01 0.01 0.00 0.00 0.00 0.00 0.00 0.00 0.00 0.00 0.00 0.01 0.00 0.00 0.01 0.01 0.00 0.00 0.00 0.01 0.01 0.01 0.01 0.02 0.02 0.03 0.03 0.05 0.09 0.11 0.08 0.08 0.08 0.08 0.08 0.08 0.05 0.04 0.04
0.00 0.00 0.01 0.01 0.01 0.01 0.00 0.00 0.00 0.00 0.00 0.00 0.00 0.00 0.00 0.01 0.01 0.01 0.01 0.01 0.01 0.01 0.00 0.01 0.01 0.01 0.01 0.02 0.02 0.02 0.03 0.06 0.10 0.11 0.09 0.08 0.07 0.08 0.08 0.08 0.06 0.05 0.04
0.00 0.00 0.00 0.01 0.01 0.01 0.00 0.00 0.00 0.00 0.00 0.00 0.00 0.00 0.00 0.01 0.01 0.01 0.01 0.01 0.01 0.01 0.00 0.01 0.01 0.01 0.01 0.01 0.02 0.03 0.04 0.06 0.07 0.07 0.06 0.05 0.06 0.07 0.09 0.08 0.06 0.05 0.04
0.00 0.00 0.00 0.01 0.01 0.00 0.00 0.00 0.00 0.00 0.00 0.00 0.00 0.00 0.00 0.01 0.01 0.01 0.01 0.01 0.01 0.01 0.01 0.01 0.01 0.01 0.01 0.01 0.02 0.03 0.04 0.04 0.02 0.03 0.03 0.07 0.09 0.08 0.08 0.07 0.06 0.05 0.04
0.00 0.00 0.00 0.01 0.01 0.00 0.00 0.00 0.00 0.00 0.00 0.00 0.00 0.00 0.00 0.01 0.01 0.01 0.01 0.01 0.01 0.01 0.01 0.01 0.01 0.01 0.02 0.02 0.02 0.03 0.03 0.02 0.01 0.01 0.03 0.06 0.07 0.08 0.09 0.08 0.05 0.03 0.03
0.00 0.00 0.00 0.01 0.01 0.01 0.00 0.00 0.00 0.00 0.00 0.00 0.00 0.00 0.01 0.01 0.01 0.01 0.01 0.01 0.01 0.01 0.01 0.01 0.01 0.01 0.02 0.04 0.04 0.04 0.03 0.01 0.00 0.00 0.02 0.04 0.05 0.07 0.08 0.07 0.05 0.03 0.03
0.00 0.00 0.00 0.01 0.01 0.01 0.01 0.00 0.00 0.00 0.00 0.01 0.00 0.01 0.01 0.01 0.01 0.01 0.01 0.01 0.01 0.01 0.01 0.01 0.01 0.01 0.03 0.04 0.06 0.06 0.05 0.02 0.00 0.00 0.02 0.03 0.04 0.06 0.07 0.05 0.04 0.04 0.04
0.00 0.00 0.01 0.01 0.01 0.01 0.01 0.01 0.00 0.00 0.01 0.01 0.01 0.01 0.01 0.01 0.01 0.01 0.01 0.01 0.01 0.01 0.01 0.01 0.01 0.02 0.03 0.04 0.05 0.06 0.05 0.03 0.01 0.01 0.01 0.03 0.03 0.05 0.05 0.04 0.03 0.04 0.04
0.01 0.02 0.03 0.03 0.03 0.02 0.02 0.01 0.01 0.01 0.01 0.01 0.01 0.01 0.01 0.01 0.01 0.01 0.01 0.01 0.00 0.01 0.01 0.01 0.02 0.02 0.03 0.03 0.05 0.06 0.06 0.04 0.01 0.00 0.01 0.02 0.03 0.05 0.05 0.04 0.03 0.03 0.05
0.07 0.08 0.06 0.06 0.06 0.04 0.03 0.01 0.02 0.02 0.01 0.01 0.02 0.01 0.01 0.02 0.02 0.01 0.01 0.01 0.00 0.00 0.01 0.01 0.01 0.01 0.02 0.03 0.04 0.05 0.05 0.04 0.02 0.01 0.01 0.02 0.03 0.04 0.05 0.05 0.05 0.05 0.05
0.10 0.12 0.12 0.11 0.07 0.06 0.04 0.03 0.04 0.03 0.03 0.02 0.02 0.03 0.03 0.02 0.02 0.01 0.01 0.01 0.01 0.01 0.01 0.01 0.01 0.01 0.02 0.03 0.03 0.04 0.05 0.04 0.03 0.01 0.02 0.03 0.05 0.06 0.05 0.05 0.05 0.05 0.05
0.13 0.17 0.12 0.14 0.08 0.06 0.04 0.04 0.04 0.04 0.04 0.03 0.03 0.03 0.03 0.02 0.01 0.01 0.02 0.03 0.03 0.03 0.03 0.02 0.01 0.02 0.02 0.04 0.04 0.03 0.03 0.04 0.04 0.02 0.02 0.03 0.05 0.06 0.06 0.05 0.05 0.06 0.05
0.17 0.20 0.18 0.12 0.10 0.08 0.06 0.04 0.03 0.02 0.02 0.03 0.03 0.02 0.02 0.03 0.03 0.03 0.04 0.05 0.05 0.06 0.05 0.04 0.03 0.03 0.03 0.02 0.03 0.03 0.02 0.03 0.04 0.03 0.04 0.04 0.05 0.07 0.07 0.07 0.06 0.06 0.05
0.17 0.16 0.23 0.18 0.12 0.11 0.09 0.07 0.04 0.02 0.02 0.03 0.03 0.02 0.04 0.05 0.06 0.06 0.06 0.06 0.05 0.05 0.06 0.05 0.03 0.04 0.04 0.03 0.03 0.03 0.04 0.04 0.04 0.04 0.05 0.06 0.07 0.07 0.08 0.08 0.08 0.07 0.06
0.17 0.17 0.17 0.20 0.14 0.12 0.12 0.09 0.05 0.03 0.03 0.04 0.03 0.03 0.04 0.06 0.07 0.07 0.06 0.05 0.04 0.04 0.04 0.04 0.04 0.05 0.06 0.05 0.05 0.05 0.04 0.05 0.06 0.07 0.06 0.06 0.08 0.07 0.08 0.09 0.10 0.09 0.08
0.16 0.16 0.11 0.12 0.12 0.11 0.12 0.11 0.08 0.05 0.04 0.03 0.02 0.03 0.04 0.05 0.05 0.05 0.05 0.03 0.03 0.03 0.03 0.02 0.03 0.04 0.04 0.05 0.05 0.05 0.05 0.06 0.07 0.07 0.08 0.08 0.09 0.06 0.06 0.07 0.08 0.10 0.12
0.18 0.18 0.14 0.12 0.13 0.11 0.12 0.13 0.13 0.09 0.06 0.04 0.02 0.03 0.03 0.04 0.05 0.05 0.04 0.02 0.02 0.03 0.02 0.02 0.02 0.02 0.04 0.04 0.04 0.04 0.05 0.07 0.08 0.09 0.09 0.10 0.10 0.08 0.07 0.05 0.05 0.06 0.09
0.16 0.21 0.20 0.15 0.13 0.11 0.13 0.15 0.13 0.11 0.08 0.05 0.04 0.03 0.03 0.04 0.04 0.04 0.04 0.02 0.02 0.02 0.02 0.01 0.01 0.02 0.03 0.03 0.02 0.03 0.04 0.05 0.07 0.06 0.08 0.07 0.07 0.07 0.09 0.08 0.05 0.04 0.06
0.14 0.20 0.26 0.24 0.18 0.16 0.16 0.16 0.14 0.12 0.09 0.06 0.05 0.05 0.05 0.04 0.03 0.03 0.02 0.02 0.01 0.01 0.02 0.02 0.02 0.02 0.02 0.02 0.01 0.01 0.02 0.03 0.05 0.05 0.06 0.05 0.06 0.05 0.05 0.05 0.06 0.05 0.04
0.14 0.18 0.26 0.28 0.22 0.14 0.13 0.13 0.12 0.10 0.09 0.07 0.06 0.07 0.05 0.03 0.02 0.02 0.01 0.01 0.01 0.01 0.02 0.02 0.02 0.02 0.02 0.01 0.01 0.02 0.02 0.02 0.02 0.02 0.03 0.04 0.03 0.04 0.05 0.05 0.06 0.07 0.05
0.14 0.13 0.18 0.22 0.21 0.14 0.13 0.13 0.13 0.12 0.09 0.08 0.06 0.05 0.04 0.03 0.02 0.01 0.01 0.01 0.01 0.01 0.01 0.01 0.01 0.01 0.01 0.01 0.01 0.02 0.02 0.02 0.01 0.01 0.01 0.01 0.02 0.03 0.03 0.03 0.04 0.07 0.06
0.14 0.13 0.15 0.17 0.16 0.15 0.15 0.14 0.10 0.09 0.08 0.06 0.05 0.04 0.04 0.02 0.01 0.01 0.00 0.00 0.00 0.00 0.00 0.01 0.01 0.01 0.01 0.00 0.01 0.01 0.02 0.02 0.01 0.01 0.01 0.00 0.01 0.01 0.01 0.02 0.02 0.03 0.04
0.11 0.11 0.12 0.14 0.12 0.15 0.16 0.13 0.08 0.08 0.07 0.06 0.06 0.05 0.03 0.02 0.01 0.00 0.00 0.00 0.00 0.00 0.00 0.00 0.00 0.00 0.00 0.00 0.00 0.00 0.01 0.01 0.01 0.02 0.01 0.00 0.00 0.01 0.01 0.01 0.00 0.01 0.02
0.09 0.08 0.10 0.11 0.11 0.13 0.14 0.14 0.14 0.12 0.11 0.09 0.06 0.04 0.02 0.01 0.01 0.00 0.00 0.00 0.00 0.00 0.00 0.00 0.00 0.00 0.00 0.00 0.00 0.00 0.00 0.00 0.01 0.01 0.01 0.01 0.00 0.00 0.00 0.01 0.01 0.01 0.02
0.08 0.08 0.08 0.10 0.11 0.12 0.12 0.15 0.19 0.15 0.10 0.08 0.05 0.03 0.02 0.01 0.00 0.00 0.00 0.00 0.00 0.00 0.00 0.00 0.00 0.00 0.00 0.00 0.00 0.00 0.00 0.00 0.01 0.01 0.01 0.01 0.01 0.00 0.00 0.00 0.00 0.01 0.01

GEFSSE_prec_meanprec_102.txt.gz
QPF
0.00 0.00 0.00 0.00 0.00 0.00 0.01 0.01 0.02 0.02 0.01 0.01 0.01 0.01 0.01 0.01 0.00 0.01 0.01 0.01 0.01 0.01 0.01 0.02 0.02 0.02 0.03 0.03 0.02 0.03 0.04 0.03 0.05 0.05 0.05 0.07 0.08 0.07 0.09 0.12 0.13 0.07 0.04
0.00 0.00 0.00 0.00 0.00 0.00 0.01 0.01 0.02 0.02 0.01 0.01 0.01 0.01 0.01 0.01 0.01 0.01 0.01 0.01 0.01 0.01 0.01 0.02 0.02 0.03 0.03 0.02 0.02 0.04 0.04 0.05 0.06 0.07 0.08 0.08 0.09 0.10 0.11 0.14 0.16 0.05 0.05
0.00 0.00 0.00 0.00 0.00 0.00 0.00 0.00 0.01 0.01 0.02 0.02 0.01 0.01 0.01 0.01 0.01 0.01 0.01 0.01 0.01 0.01 0.01 0.01 0.02 0.03 0.03 0.03 0.03 0.04 0.04 0.07 0.11 0.12 0.14 0.12 0.10 0.11 0.13 0.15 0.14 0.06 0.07
0.00 0.00 0.00 0.00 0.00 0.00 0.00 0.00 0.00 0.01 0.01 0.01 0.01 0.01 0.01 0.01 0.01 0.01 0.01 0.01 0.01 0.01 0.01 0.02 0.02 0.02 0.02 0.02 0.03 0.04 0.03 0.05 0.10 0.18 0.17 0.14 0.10 0.09 0.13 0.13 0.11 0.08 0.07
0.00 0.00 0.00 0.00 0.00 0.00 0.00 0.00 0.00 0.00 0.01 0.01 0.01 0.01 0.01 0.01 0.01 0.01 0.01 0.02 0.01 0.01 0.02 0.02 0.02 0.03 0.03 0.02 0.03 0.04 0.02 0.04 0.08 0.20 0.14 0.13 0.12 0.10 0.11 0.10 0.09 0.06 0.05
0.00 0.00 0.00 0.00 0.00 0.00 0.00 0.00 0.00 0.00 0.00 0.01 0.01 0.01 0.01 0.01 0.01 0.01 0.01 0.01 0.02 0.02 0.02 0.02 0.03 0.03 0.03 0.02 0.02 0.02 0.02 0.04 0.11 0.11 0.10 0.14 0.10 0.10 0.09 0.07 0.08 0.07 0.05
0.00 0.00 0.00 0.00 0.00 0.00 0.00 0.00 0.00 0.01 0.00 0.00 0.01 0.01 0.01 0.01 0.01 0.01 0.01 0.01 0.01 0.02 0.02 0.02 0.02 0.02 0.02 0.02 0.02 0.01 0.01 0.05 0.11 0.07 0.10 0.14 0.10 0.08 0.09 0.08 0.10 0.08 0.07
0.00 0.00 0.00 0.00 0.00 0.00 0.00 0.00 0.00 0.01 0.01 0.01 0.01 0.01 0.01 0.01 0.01 0.01 0.01 0.01 0.01 0.01 0.02 0.02 0.01 0.01 0.02 0.02 0.01 0.01 0.01 0.05 0.09 0.07 0.08 0.08 0.05 0.06 0.08 0.07 0.08 0.08 0.07
0.01 0.00 0.00 0.00 0.00 0.01 0.00 0.00 0.01 0.01 0.01 0.01 0.01 0.01 0.01 0.01 0.01 0.00 0.01 0.01 0.01 0.01 0.01 0.01 0.01 0.01 0.01 0.01 0.01 0.00 0.01 0.04 0.09 0.06 0.04 0.03 0.03 0.04 0.05 0.05 0.06 0.05 0.04
0.01 0.02 0.01 0.01 0.01 0.01 0.01 0.01 0.01 0.01 0.01 0.01 0.01 0.01 0.01 0.01 0.01 0.00 0.01 0.01 0.01 0.01 0.01 0.01 0.01 0.01 0.01 0.01 0.01 0.01 0.01 0.05 0.09 0.05 0.03 0.01 0.02 0.03 0.04 0.05 0.05 0.06 0.04
0.04 0.05 0.08 0.03 0.02 0.03 0.03 0.01 0.01 0.01 0.01 0.01 0.01 0.01 0.02 0.03 0.02 0.02 0.01 0.00 0.00 0.01 0.01 0.01 0.01 0.01 0.01 0.01 0.01 0.01 0.02 0.09 0.12 0.08 0.05 0.01 0.02 0.02 0.04 0.05 0.05 0.06 0.07
0.06 0.06 0.11 0.07 0.03 0.03 0.04 0.03 0.04 0.04 0.02 0.02 0.03 0.01 0.04 0.07 0.08 0.05 0.02 0.00 0.01 0.01 0.01 0.01 0.01 0.01 0.03 0.03 0.01 0.02 0.05 0.11 0.13 0.07 0.04 0.01 0.02 0.03 0.04 0.05 0.05 0.07 0.08
0.11 0.08 0.09 0.08 0.06 0.04 0.05 0.06 0.06 0.08 0.05 0.05 0.05 0.04 0.06 0.05 0.05 0.05 0.04 0.02 0.02 0.02 0.03 0.03 0.02 0.03 0.04 0.06 0.05 0.05 0.05 0.05 0.06 0.06 0.03 0.01 0.02 0.02 0.02 0.04 0.05 0.05 0.05
0.14 0.10 0.10 0.10 0.10 0.09 0.07 0.07 0.06 0.05 0.05 0.06 0.06 0.04 0.06 0.07 0.07 0.08 0.09 0.08 0.09 0.08 0.07 0.04 0.04 0.04 0.03 0.02 0.03 0.07 0.06 0.03 0.04 0.04 0.03 0.01 0.02 0.02 0.02 0.02 0.03 0.04 0.05
0.10 0.14 0.15 0.14 0.15 0.14 0.12 0.10 0.07 0.08 0.05 0.05 0.06 0.04 0.05 0.05 0.07 0.08 0.08 0.09 0.08 0.07 0.05 0.03 0.02 0.03 0.03 0.03 0.03 0.02 0.03 0.04 0.07 0.05 0.07 0.02 0.02 0.02 0.02 0.02 0.03 0.05 0.05
0.12 0.14 0.18 0.16 0.16 0.14 0.12 0.12 0.10 0.07 0.07 0.07 0.05 0.03 0.03 0.05 0.06 0.06 0.06 0.06 0.05 0.06 0.05 0.03 0.02 0.03 0.03 0.04 0.03 0.02 0.02 0.02 0.03 0.04 0.10 0.05 0.02 0.02 0.03 0.03 0.03 0.04 0.03
0.19 0.16 0.16 0.15 0.17 0.15 0.15 0.12 0.10 0.07 0.04 0.06 0.05 0.04 0.03 0.03 0.05 0.05 0.06 0.06 0.05 0.05 0.04 0.03 0.03 0.02 0.02 0.03 0.03 0.02 0.02 0.02 0.03 0.04 0.06 0.08 0.06 0.04 0.03 0.03 0.04 0.04 0.04
0.25 0.17 0.14 0.12 0.17 0.16 0.16 0.15 0.10 0.08 0.05 0.06 0.05 0.04 0.03 0.03 0.03 0.04 0.05 0.05 0.04 0.02 0.02 0.03 0.02 0.02 0.04 0.04 0.04 0.04 0.04 0.03 0.04 0.04 0.04 0.07 0.12 0.11 0.05 0.03 0.04 0.04 0.04
0.21 0.16 0.14 0.18 0.17 0.18 0.18 0.17 0.14 0.11 0.10 0.09 0.08 0.06 0.05 0.03 0.02 0.02 0.03 0.05 0.03 0.01 0.02 0.02 0.02 0.03 0.05 0.04 0.03 0.05 0.03 0.03 0.04 0.03 0.03 0.03 0.06 0.09 0.09 0.06 0.04 0.04 0.05
0.15 0.14 0.14 0.21 0.19 0.18 0.21 0.22 0.22 0.16 0.12 0.08 0.08 0.08 0.06 0.05 0.04 0.03 0.02 0.03 0.02 0.02 0.03 0.04 0.04 0.03 0.03 0.03 0.02 0.04 0.02 0.02 0.03 0.03 0.02 0.03 0.04 0.05 0.09 0.10 0.07 0.03 0.04
0.14 0.14 0.14 0.18 0.20 0.19 0.19 0.17 0.16 0.14 0.11 0.08 0.07 0.06 0.05 0.05 0.05 0.04 0.03 0.03 0.01 0.02 0.02 0.02 0.03 0.03 0.03 0.03 0.05 0.06 0.03 0.02 0.02 0.02 0.01 0.01 0.03 0.04 0.06 0.08 0.07 0.08 0.05
0.12 0.15 0.15 0.15 0.18 0.19 0.20 0.19 0.15 0.15 0.10 0.06 0.07 0.08 0.04 0.03 0.04 0.02 0.02 0.01 0.01 0.01 0.02 0.02 0.02 0.03 0.03 0.03 0.04 0.06 0.06 0.07 0.05 0.02 0.01 0.01 0.03 0.04 0.04 0.04 0.05 0.06 0.05
0.11 0.13 0.11 0.10 0.17 0.22 0.22 0.21 0.18 0.18 0.13 0.08 0.07 0.09 0.07 0.05 0.04 0.03 0.02 0.01 0.01 0.00 0.01 0.01 0.01 0.02 0.04 0.03 0.02 0.04 0.08 0.11 0.09 0.06 0.02 0.01 0.01 0.02 0.02 0.02 0.01 0.03 0.03
0.10 0.13 0.12 0.10 0.14 0.17 0.20 0.20 0.16 0.13 0.11 0.08 0.08 0.07 0.08 0.07 0.05 0.03 0.01 0.01 0.00 0.00 0.01 0.00 0.00 0.01 0.02 0.02 0.02 0.02 0.03 0.06 0.07 0.08 0.05 0.02 0.02 0.01 0.01 0.01 0.01 0.02 0.02
0.08 0.12 0.14 0.13 0.13 0.14 0.18 0.20 0.21 0.19 0.16 0.11 0.09 0.08 0.07 0.06 0.04 0.03 0.01 0.01 0.01 0.01 0.01 0.00 0.01 0.00 0.01 0.01 0.01 0.01 0.01 0.01 0.01 0.03 0.05 0.04 0.02 0.01 0.01 0.01 0.01 0.01 0.01
0.07 0.12 0.14 0.12 0.13 0.13 0.14 0.16 0.19 0.19 0.17 0.14 0.10 0.07 0.07 0.05 0.04 0.02 0.01 0.02 0.01 0.01 0.01 0.00 0.00 0.00 0.01 0.01 0.01 0.01 0.00 0.00 0.01 0.01 0.02 0.03 0.02 0.01 0.00 0.00 0.00 0.00 0.00

GEFSSE_prec_meanprec_108.txt.gz
QPF
0.02 0.01 0.00 0.00 0.00 0.00 0.00 0.00 0.00 0.00 0.00 0.00 0.00 0.00 0.00 0.00 0.00 0.00 0.00 0.00 0.00 0.00 0.00 0.01 0.01 0.02 0.01 0.02 0.03 0.04 0.04 0.04 0.05 0.04 0.04 0.05 0.05 0.07 0.07 0.06 0.05 0.02 0.02
0.01 0.00 0.00 0.00 0.00 0.00 0.00 0.00 0.00 0.00 0.00 0.00 0.00 0.00 0.00 0.00 0.00 0.00 0.01 0.00 0.00 0.01 0.01 0.02 0.02 0.02 0.02 0.02 0.02 0.04 0.04 0.06 0.07 0.07 0.05 0.05 0.06 0.09 0.10 0.07 0.04 0.02 0.03
0.01 0.00 0.00 0.00 0.00 0.00 0.00 0.00 0.00 0.00 0.00 0.00 0.00 0.00 0.00 0.00 0.00 0.01 0.00 0.00 0.00 0.00 0.01 0.01 0.02 0.01 0.02 0.02 0.02 0.04 0.04 0.06 0.08 0.06 0.03 0.03 0.04 0.08 0.09 0.08 0.08 0.04 0.04
0.00 0.00 0.00 0.00 0.00 0.00 0.00 0.00 0.00 0.00 0.00 0.00 0.00 0.00 0.00 0.00 0.00 0.00 0.00 0.00 0.01 0.00 0.01 0.01 0.02 0.01 0.01 0.02 0.03 0.04 0.05 0.06 0.06 0.04 0.02 0.01 0.02 0.08 0.08 0.07 0.06 0.03 0.04
0.00 0.00 0.00 0.00 0.00 0.00 0.00 0.00 0.00 0.00 0.00 0.00 0.00 0.00 0.01 0.00 0.01 0.01 0.00 0.01 0.01 0.01 0.01 0.01 0.02 0.02 0.01 0.01 0.02 0.04 0.06 0.07 0.05 0.05 0.03 0.01 0.01 0.05 0.05 0.06 0.06 0.03 0.03
0.00 0.00 0.00 0.00 0.00 0.00 0.00 0.00 0.00 0.00 0.00 0.00 0.00 0.01 0.01 0.00 0.00 0.01 0.01 0.01 0.01 0.01 0.01 0.01 0.02 0.02 0.01 0.01 0.02 0.04 0.06 0.08 0.07 0.05 0.03 0.01 0.01 0.03 0.04 0.05 0.04 0.03 0.02
0.01 0.00 0.00 0.00 0.00 0.00 0.00 0.00 0.00 0.00 0.00 0.00 0.00 0.01 0.01 0.01 0.01 0.01 0.01 0.01 0.01 0.01 0.01 0.01 0.01 0.01 0.01 0.01 0.02 0.03 0.06 0.09 0.08 0.04 0.02 0.01 0.01 0.02 0.02 0.03 0.04 0.03 0.03
0.02 0.00 0.00 0.00 0.00 0.00 0.00 0.00 0.00 0.00 0.00 0.00 0.00 0.00 0.01 0.01 0.01 0.00 0.01 0.01 0.00 0.01 0.01 0.00 0.01 0.01 0.01 0.01 0.01 0.02 0.06 0.10 0.09 0.04 0.02 0.01 0.01 0.02 0.02 0.02 0.02 0.02 0.02
0.09 0.02 0.01 0.00 0.00 0.00 0.00 0.00 0.00 0.00 0.00 0.00 0.00 0.00 0.01 0.01 0.00 0.00 0.01 0.00 0.00 0.01 0.01 0.00 0.01 0.01 0.01 0.01 0.02 0.03 0.07 0.11 0.08 0.05 0.02 0.01 0.01 0.01 0.01 0.01 0.02 0.02 0.01
0.09 0.02 0.02 0.01 0.00 0.00 0.00 0.00 0.00 0.00 0.01 0.01 0.00 0.00 0.00 0.01 0.01 0.01 0.01 0.00 0.00 0.00 0.01 0.01 0.01 0.01 0.01 0.02 0.03 0.05 0.09 0.10 0.09 0.10 0.04 0.01 0.01 0.01 0.01 0.01 0.01 0.02 0.01
0.12 0.05 0.03 0.03 0.01 0.00 0.00 0.00 0.01 0.01 0.00 0.00 0.00 0.01 0.01 0.01 0.01 0.01 0.00 0.00 0.00 0.00 0.00 0.00 0.00 0.01 0.01 0.02 0.04 0.06 0.11 0.15 0.18 0.12 0.05 0.02 0.02 0.01 0.00 0.01 0.01 0.01 0.01
0.20 0.10 0.06 0.06 0.04 0.02 0.01 0.00 0.00 0.00 0.00 0.00 0.00 0.00 0.01 0.01 0.01 0.01 0.01 0.00 0.01 0.01 0.01 0.01 0.01 0.01 0.02 0.03 0.05 0.10 0.18 0.20 0.22 0.11 0.04 0.03 0.02 0.01 0.00 0.01 0.01 0.02 0.01
0.26 0.15 0.08 0.06 0.05 0.04 0.02 0.01 0.01 0.01 0.01 0.00 0.01 0.01 0.01 0.02 0.02 0.01 0.01 0.00 0.00 0.00 0.00 0.01 0.01 0.02 0.04 0.07 0.09 0.13 0.20 0.20 0.18 0.11 0.05 0.03 0.01 0.01 0.01 0.01 0.01 0.02 0.01
0.27 0.19 0.19 0.12 0.07 0.06 0.04 0.02 0.01 0.01 0.01 0.01 0.01 0.01 0.02 0.02 0.02 0.01 0.01 0.00 0.01 0.00 0.01 0.01 0.02 0.05 0.07 0.09 0.09 0.11 0.14 0.15 0.14 0.11 0.05 0.03 0.02 0.01 0.01 0.01 0.02 0.02 0.02
0.27 0.16 0.18 0.17 0.15 0.11 0.08 0.06 0.04 0.02 0.01 0.01 0.01 0.02 0.02 0.01 0.02 0.02 0.01 0.02 0.02 0.02 0.01 0.02 0.03 0.04 0.05 0.07 0.08 0.09 0.12 0.16 0.13 0.08 0.05 0.04 0.03 0.03 0.02 0.01 0.01 0.02 0.02
0.29 0.25 0.23 0.24 0.14 0.11 0.12 0.10 0.06 0.04 0.03 0.02 0.02 0.02 0.02 0.01 0.01 0.01 0.02 0.02 0.01 0.01 0.01 0.01 0.02 0.02 0.03 0.05 0.07 0.10 0.14 0.16 0.12 0.09 0.06 0.05 0.04 0.04 0.03 0.02 0.01 0.01 0.02
0.26 0.34 0.36 0.33 0.20 0.15 0.16 0.16 0.08 0.06 0.05 0.04 0.03 0.02 0.02 0.01 0.01 0.01 0.01 0.01 0.01 0.01 0.01 0.01 0.02 0.01 0.02 0.05 0.07 0.08 0.11 0.13 0.11 0.10 0.05 0.04 0.04 0.04 0.05 0.05 0.04 0.04 0.05
0.19 0.27 0.34 0.32 0.21 0.17 0.16 0.17 0.10 0.08 0.06 0.06 0.06 0.03 0.02 0.01 0.01 0.01 0.01 0.01 0.01 0.01 0.00 0.01 0.01 0.02 0.02 0.04 0.04 0.07 0.10 0.13 0.12 0.09 0.06 0.05 0.04 0.03 0.05 0.07 0.07 0.07 0.08
0.19 0.22 0.27 0.24 0.20 0.19 0.17 0.19 0.20 0.14 0.10 0.09 0.10 0.07 0.05 0.03 0.03 0.02 0.01 0.01 0.01 0.01 0.01 0.01 0.01 0.01 0.01 0.01 0.03 0.04 0.07 0.10 0.11 0.10 0.09 0.08 0.08 0.04 0.03 0.04 0.07 0.05 0.07
0.15 0.19 0.22 0.21 0.20 0.18 0.17 0.19 0.28 0.22 0.16 0.13 0.12 0.08 0.05 0.03 0.03 0.03 0.02 0.02 0.02 0.02 0.01 0.00 0.00 0.01 0.01 0.01 0.02 0.04 0.05 0.06 0.08 0.09 0.08 0.09 0.06 0.04 0.04 0.04 0.03 0.04 0.05
0.11 0.15 0.18 0.22 0.23 0.20 0.17 0.16 0.22 0.20 0.17 0.14 0.11 0.06 0.04 0.03 0.02 0.03 0.03 0.03 0.02 0.01 0.00 0.00 0.00 0.00 0.00 0.00 0.01 0.02 0.03 0.04 0.06 0.06 0.05 0.07 0.08 0.06 0.08 0.07 0.03 0.01 0.02
0.12 0.16 0.18 0.21 0.22 0.18 0.17 0.17 0.17 0.17 0.17 0.12 0.09 0.07 0.05 0.03 0.02 0.02 0.02 0.02 0.02 0.02 0.01 0.01 0.00 0.00 0.00 0.00 0.00 0.01 0.01 0.03 0.04 0.05 0.05 0.05 0.07 0.05 0.06 0.06 0.04 0.01 0.01
0.12 0.14 0.13 0.12 0.15 0.15 0.19 0.22 0.21 0.20 0.20 0.17 0.12 0.10 0.06 0.03 0.02 0.03 0.03 0.02 0.03 0.02 0.01 0.01 0.00 0.00 0.00 0.00 0.01 0.01 0.01 0.01 0.01 0.03 0.05 0.05 0.04 0.03 0.03 0.03 0.02 0.02 0.01
0.10 0.12 0.10 0.09 0.10 0.12 0.17 0.16 0.13 0.11 0.10 0.09 0.09 0.08 0.07 0.05 0.04 0.04 0.03 0.03 0.02 0.01 0.01 0.00 0.00 0.00 0.00 0.00 0.01 0.01 0.01 0.00 0.00 0.01 0.03 0.03 0.03 0.02 0.01 0.01 0.01 0.01 0.01
0.06 0.08 0.08 0.08 0.09 0.11 0.12 0.11 0.11 0.11 0.11 0.12 0.13 0.13 0.10 0.10 0.07 0.04 0.03 0.03 0.02 0.01 0.01 0.00 0.00 0.00 0.00 0.00 0.00 0.00 0.00 0.00 0.00 0.00 0.01 0.01 0.01 0.01 0.00 0.00 0.00 0.00 0.01
0.04 0.06 0.09 0.09 0.09 0.10 0.11 0.10 0.10 0.11 0.11 0.13 0.13 0.11 0.08 0.06 0.05 0.05 0.04 0.03 0.02 0.01 0.01 0.01 0.00 0.00 0.00 0.00 0.00 0.00 0.00 0.00 0.00 0.00 0.00 0.00 0.00 0.00 0.00 0.00 0.00 0.00 0.00

GEFSSE_prec_meanprec_114.txt.gz
QPF
0.01 0.01 0.02 0.02 0.01 0.00 0.00 0.00 0.00 0.00 0.00 0.00 0.00 0.00 0.00 0.00 0.00 0.00 0.00 0.01 0.01 0.01 0.01 0.01 0.02 0.02 0.02 0.03 0.07 0.07 0.04 0.04 0.04 0.04 0.06 0.07 0.09 0.08 0.08 0.06 0.04 0.03 0.06
0.00 0.01 0.02 0.01 0.01 0.00 0.00 0.00 0.00 0.00 0.00 0.00 0.00 0.00 0.00 0.00 0.00 0.00 0.00 0.01 0.01 0.01 0.02 0.02 0.02 0.02 0.04 0.04 0.05 0.03 0.02 0.04 0.04 0.06 0.08 0.09 0.11 0.10 0.09 0.05 0.02 0.03 0.06
0.00 0.00 0.01 0.02 0.01 0.01 0.00 0.00 0.00 0.00 0.00 0.00 0.00 0.00 0.00 0.00 0.00 0.00 0.00 0.01 0.01 0.01 0.01 0.02 0.01 0.02 0.03 0.04 0.03 0.03 0.03 0.04 0.07 0.10 0.08 0.05 0.10 0.09 0.07 0.05 0.04 0.05 0.06
0.00 0.00 0.00 0.01 0.01 0.01 0.00 0.00 0.00 0.00 0.00 0.00 0.00 0.00 0.00 0.00 0.01 0.00 0.01 0.01 0.01 0.01 0.01 0.01 0.01 0.02 0.03 0.04 0.04 0.04 0.04 0.04 0.06 0.05 0.02 0.02 0.05 0.08 0.07 0.06 0.06 0.07 0.06
0.00 0.00 0.00 0.01 0.01 0.00 0.00 0.00 0.00 0.00 0.00 0.00 0.00 0.00 0.00 0.01 0.01 0.00 0.00 0.01 0.01 0.01 0.01 0.01 0.01 0.01 0.02 0.02 0.04 0.07 0.06 0.06 0.04 0.01 0.01 0.01 0.02 0.08 0.07 0.07 0.06 0.04 0.04
0.00 0.00 0.01 0.01 0.01 0.00 0.00 0.00 0.00 0.00 0.00 0.00 0.00 0.00 0.00 0.01 0.01 0.01 0.01 0.01 0.01 0.01 0.01 0.01 0.01 0.01 0.01 0.03 0.04 0.06 0.08 0.09 0.03 0.00 0.00 0.01 0.02 0.07 0.07 0.07 0.06 0.04 0.03
0.00 0.00 0.01 0.01 0.01 0.00 0.00 0.00 0.00 0.00 0.00 0.01 0.01 0.01 0.01 0.01 0.01 0.01 0.01 0.01 0.01 0.01 0.01 0.01 0.01 0.01 0.02 0.03 0.04 0.04 0.05 0.06 0.01 0.01 0.01 0.01 0.02 0.06 0.07 0.05 0.04 0.04 0.03
0.00 0.01 0.01 0.01 0.01 0.00 0.01 0.00 0.00 0.00 0.00 0.01 0.01 0.01 0.01 0.01 0.01 0.01 0.00 0.01 0.01 0.00 0.01 0.01 0.01 0.01 0.03 0.04 0.04 0.04 0.04 0.04 0.01 0.01 0.01 0.01 0.03 0.05 0.06 0.04 0.04 0.03 0.02
0.01 0.01 0.01 0.01 0.01 0.01 0.01 0.01 0.01 0.01 0.01 0.01 0.01 0.01 0.01 0.01 0.01 0.01 0.01 0.01 0.01 0.01 0.01 0.00 0.01 0.02 0.03 0.04 0.05 0.04 0.04 0.04 0.01 0.00 0.01 0.01 0.03 0.04 0.03 0.03 0.04 0.03 0.03
0.01 0.01 0.01 0.01 0.01 0.01 0.01 0.01 0.01 0.01 0.01 0.01 0.01 0.01 0.01 0.01 0.01 0.01 0.01 0.01 0.01 0.01 0.01 0.01 0.01 0.02 0.02 0.03 0.04 0.04 0.04 0.03 0.01 0.01 0.01 0.02 0.04 0.04 0.02 0.02 0.03 0.04 0.03
0.01 0.01 0.01 0.01 0.01 0.01 0.01 0.01 0.01 0.01 0.01 0.01 0.01 0.01 0.02 0.01 0.00 0.00 0.01 0.01 0.01 0.01 0.01 0.01 0.01 0.02 0.02 0.02 0.04 0.05 0.03 0.02 0.02 0.01 0.01 0.02 0.04 0.04 0.03 0.02 0.03 0.04 0.03
0.02 0.02 0.03 0.02 0.01 0.01 0.01 0.01 0.01 0.01 0.01 0.01 0.01 0.01 0.01 0.00 0.00 0.00 0.01 0.02 0.02 0.01 0.01 0.02 0.03 0.03 0.02 0.02 0.03 0.03 0.02 0.02 0.01 0.00 0.01 0.03 0.03 0.03 0.03 0.02 0.03 0.03 0.04
0.07 0.06 0.05 0.05 0.03 0.02 0.00 0.01 0.00 0.00 0.00 0.00 0.01 0.01 0.00 0.00 0.00 0.00 0.00 0.01 0.01 0.02 0.01 0.02 0.02 0.02 0.01 0.01 0.02 0.02 0.02 0.02 0.01 0.01 0.01 0.03 0.03 0.03 0.03 0.04 0.03 0.03 0.04
0.22 0.13 0.08 0.06 0.04 0.03 0.02 0.01 0.00 0.00 0.00 0.00 0.00 0.00 0.00 0.00 0.00 0.00 0.00 0.00 0.01 0.01 0.01 0.01 0.01 0.01 0.01 0.01 0.01 0.02 0.02 0.02 0.01 0.01 0.01 0.03 0.03 0.03 0.03 0.03 0.04 0.04 0.04
0.12 0.08 0.06 0.05 0.04 0.03 0.04 0.03 0.02 0.01 0.00 0.00 0.01 0.01 0.00 0.00 0.00 0.00 0.00 0.01 0.01 0.01 0.01 0.01 0.02 0.03 0.02 0.02 0.02 0.02 0.03 0.02 0.02 0.01 0.02 0.04 0.04 0.04 0.04 0.03 0.03 0.04 0.04
0.15 0.13 0.08 0.07 0.05 0.04 0.04 0.05 0.02 0.01 0.00 0.00 0.00 0.01 0.00 0.01 0.01 0.00 0.01 0.01 0.01 0.01 0.01 0.02 0.03 0.04 0.03 0.03 0.04 0.04 0.03 0.02 0.02 0.02 0.02 0.03 0.04 0.04 0.05 0.05 0.04 0.04 0.04
0.17 0.17 0.13 0.11 0.10 0.10 0.10 0.07 0.04 0.02 0.01 0.01 0.00 0.00 0.01 0.01 0.01 0.01 0.01 0.01 0.02 0.02 0.01 0.02 0.04 0.03 0.04 0.04 0.04 0.03 0.04 0.04 0.03 0.02 0.03 0.03 0.04 0.06 0.07 0.07 0.07 0.08 0.07
0.20 0.18 0.19 0.19 0.21 0.18 0.16 0.13 0.09 0.06 0.04 0.02 0.01 0.02 0.01 0.01 0.01 0.01 0.01 0.01 0.02 0.02 0.01 0.02 0.04 0.03 0.03 0.03 0.03 0.04 0.04 0.04 0.04 0.03 0.02 0.03 0.03 0.04 0.06 0.08 0.08 0.08 0.10
0.24 0.34 0.40 0.35 0.31 0.27 0.27 0.27 0.20 0.16 0.11 0.06 0.05 0.05 0.03 0.02 0.01 0.01 0.01 0.01 0.01 0.01 0.01 0.02 0.02 0.01 0.02 0.03 0.03 0.03 0.03 0.03 0.04 0.03 0.02 0.02 0.03 0.03 0.03 0.05 0.08 0.08 0.10
0.28 0.40 0.50 0.46 0.36 0.33 0.28 0.24 0.21 0.17 0.15 0.11 0.10 0.07 0.05 0.03 0.02 0.01 0.01 0.01 0.01 0.01 0.01 0.01 0.02 0.01 0.01 0.02 0.03 0.02 0.02 0.02 0.03 0.03 0.02 0.03 0.03 0.04 0.03 0.03 0.03 0.04 0.08
0.17 0.18 0.24 0.30 0.32 0.26 0.22 0.18 0.15 0.11 0.10 0.13 0.14 0.11 0.08 0.05 0.03 0.02 0.01 0.01 0.01 0.01 0.01 0.01 0.02 0.01 0.01 0.01 0.01 0.01 0.01 0.02 0.02 0.02 0.02 0.03 0.03 0.03 0.05 0.04 0.03 0.01 0.03
0.13 0.15 0.15 0.21 0.32 0.31 0.23 0.22 0.23 0.24 0.21 0.18 0.19 0.16 0.11 0.06 0.04 0.02 0.02 0.01 0.01 0.02 0.01 0.01 0.01 0.01 0.01 0.01 0.01 0.01 0.00 0.01 0.01 0.01 0.02 0.02 0.03 0.02 0.03 0.02 0.02 0.01 0.01
0.09 0.13 0.12 0.13 0.22 0.27 0.28 0.32 0.33 0.34 0.33 0.25 0.19 0.15 0.10 0.06 0.05 0.03 0.03 0.02 0.02 0.01 0.02 0.02 0.02 0.01 0.01 0.01 0.01 0.00 0.00 0.00 0.00 0.00 0.01 0.01 0.02 0.02 0.02 0.02 0.01 0.01 0.00
0.06 0.14 0.18 0.14 0.17 0.18 0.19 0.20 0.21 0.19 0.17 0.15 0.13 0.11 0.09 0.07 0.05 0.05 0.04 0.03 0.02 0.01 0.02 0.02 0.02 0.01 0.01 0.01 0.00 0.00 0.00 0.00 0.00 0.00 0.00 0.00 0.00 0.00 0.01 0.01 0.01 0.01 0.01
0.07 0.11 0.16 0.14 0.14 0.13 0.14 0.16 0.13 0.09 0.10 0.11 0.10 0.12 0.12 0.10 0.08 0.06 0.04 0.04 0.03 0.02 0.02 0.01 0.01 0.01 0.00 0.00 0.00 0.00 0.00 0.00 0.00 0.00 0.00 0.00 0.00 0.00 0.00 0.01 0.01 0.01 0.01
0.08 0.07 0.09 0.11 0.12 0.13 0.15 0.16 0.12 0.08 0.09 0.10 0.08 0.09 0.09 0.08 0.07 0.06 0.05 0.04 0.03 0.03 0.02 0.01 0.00 0.00 0.00 0.00 0.00 0.00 0.00 0.00 0.00 0.00 0.00 0.00 0.00 0.00 0.00 0.00 0.00 0.00 0.00

GEFSSE_prec_meanprec_120.txt.gz
QPF
0.00 0.00 0.01 0.01 0.01 0.01 0.01 0.01 0.02 0.01 0.01 0.01 0.01 0.00 0.00 0.00 0.00 0.00 0.01 0.01 0.01 0.02 0.02 0.02 0.01 0.02 0.03 0.05 0.07 0.06 0.06 0.05 0.05 0.05 0.06 0.10 0.10 0.09 0.09 0.10 0.08 0.06 0.08
0.00 0.00 0.01 0.01 0.01 0.01 0.01 0.01 0.01 0.01 0.01 0.01 0.01 0.00 0.00 0.00 0.00 0.00 0.01 0.01 0.01 0.02 0.02 0.01 0.02 0.02 0.04 0.04 0.05 0.05 0.05 0.04 0.07 0.07 0.12 0.13 0.10 0.09 0.10 0.08 0.05 0.06 0.07
0.00 0.00 0.00 0.01 0.01 0.00 0.00 0.01 0.01 0.00 0.00 0.00 0.00 0.00 0.00 0.00 0.00 0.01 0.01 0.01 0.01 0.02 0.02 0.01 0.02 0.03 0.04 0.05 0.05 0.05 0.04 0.05 0.09 0.11 0.13 0.12 0.08 0.09 0.10 0.06 0.03 0.05 0.07
0.00 0.00 0.00 0.00 0.00 0.00 0.00 0.00 0.00 0.00 0.00 0.00 0.00 0.00 0.00 0.00 0.01 0.01 0.01 0.01 0.02 0.01 0.01 0.02 0.03 0.04 0.04 0.06 0.07 0.05 0.05 0.08 0.10 0.11 0.08 0.06 0.05 0.07 0.07 0.05 0.04 0.06 0.08
0.00 0.00 0.00 0.00 0.00 0.00 0.00 0.00 0.00 0.00 0.00 0.00 0.00 0.00 0.00 0.00 0.01 0.01 0.01 0.02 0.02 0.02 0.02 0.02 0.05 0.04 0.03 0.04 0.06 0.05 0.05 0.07 0.07 0.07 0.06 0.07 0.08 0.08 0.07 0.05 0.05 0.05 0.07
0.00 0.00 0.00 0.01 0.00 0.00 0.00 0.00 0.00 0.00 0.00 0.00 0.00 0.00 0.00 0.01 0.01 0.01 0.01 0.02 0.02 0.02 0.02 0.03 0.02 0.03 0.03 0.04 0.06 0.06 0.06 0.06 0.04 0.04 0.05 0.09 0.10 0.09 0.07 0.06 0.05 0.06 0.07
0.00 0.00 0.00 0.01 0.01 0.00 0.00 0.00 0.00 0.00 0.00 0.00 0.00 0.01 0.01 0.01 0.01 0.01 0.01 0.01 0.01 0.02 0.02 0.02 0.02 0.04 0.04 0.04 0.06 0.06 0.05 0.04 0.03 0.04 0.03 0.07 0.10 0.09 0.07 0.07 0.06 0.06 0.06
0.00 0.00 0.01 0.01 0.01 0.01 0.00 0.00 0.00 0.00 0.01 0.01 0.01 0.01 0.01 0.01 0.01 0.02 0.02 0.01 0.01 0.02 0.02 0.03 0.03 0.04 0.05 0.05 0.06 0.05 0.04 0.03 0.01 0.01 0.03 0.04 0.05 0.07 0.05 0.05 0.05 0.07 0.05
0.00 0.01 0.02 0.02 0.02 0.01 0.01 0.00 0.00 0.01 0.01 0.01 0.01 0.01 0.01 0.01 0.01 0.02 0.02 0.02 0.01 0.01 0.01 0.02 0.02 0.03 0.04 0.04 0.05 0.04 0.03 0.03 0.01 0.01 0.02 0.04 0.03 0.06 0.06 0.04 0.04 0.06 0.05
0.01 0.02 0.02 0.02 0.03 0.02 0.02 0.01 0.01 0.01 0.01 0.01 0.01 0.01 0.01 0.01 0.02 0.03 0.03 0.02 0.01 0.01 0.01 0.02 0.02 0.02 0.03 0.05 0.06 0.06 0.05 0.03 0.03 0.03 0.03 0.02 0.04 0.05 0.05 0.04 0.05 0.07 0.05
0.03 0.04 0.04 0.04 0.03 0.03 0.02 0.01 0.01 0.02 0.02 0.02 0.01 0.02 0.02 0.03 0.02 0.03 0.02 0.02 0.01 0.01 0.01 0.02 0.03 0.03 0.04 0.05 0.06 0.07 0.04 0.03 0.02 0.04 0.05 0.03 0.04 0.06 0.06 0.06 0.07 0.07 0.06
0.03 0.04 0.05 0.06 0.06 0.04 0.02 0.01 0.03 0.03 0.03 0.03 0.03 0.03 0.04 0.04 0.04 0.02 0.02 0.02 0.02 0.01 0.01 0.02 0.04 0.03 0.03 0.05 0.05 0.04 0.03 0.01 0.01 0.02 0.04 0.04 0.06 0.07 0.08 0.06 0.06 0.06 0.07
0.04 0.05 0.05 0.07 0.09 0.07 0.03 0.02 0.02 0.03 0.04 0.04 0.04 0.04 0.03 0.02 0.02 0.02 0.04 0.05 0.04 0.02 0.02 0.01 0.01 0.02 0.03 0.06 0.05 0.03 0.03 0.01 0.00 0.02 0.04 0.05 0.06 0.07 0.06 0.05 0.05 0.05 0.05
0.06 0.10 0.11 0.14 0.14 0.11 0.07 0.03 0.02 0.02 0.02 0.03 0.04 0.03 0.03 0.02 0.02 0.03 0.04 0.04 0.03 0.03 0.04 0.03 0.03 0.02 0.02 0.02 0.02 0.03 0.03 0.03 0.02 0.04 0.06 0.04 0.05 0.05 0.04 0.04 0.05 0.05 0.04
0.04 0.09 0.18 0.26 0.21 0.13 0.09 0.07 0.03 0.02 0.02 0.02 0.03 0.03 0.02 0.02 0.01 0.02 0.03 0.03 0.02 0.02 0.02 0.02 0.02 0.04 0.04 0.03 0.03 0.02 0.03 0.04 0.04 0.03 0.04 0.04 0.03 0.04 0.05 0.04 0.04 0.04 0.05
0.05 0.06 0.13 0.34 0.26 0.14 0.08 0.06 0.04 0.03 0.03 0.02 0.02 0.02 0.01 0.01 0.01 0.01 0.02 0.03 0.02 0.02 0.02 0.03 0.03 0.05 0.06 0.06 0.05 0.04 0.04 0.04 0.05 0.03 0.04 0.05 0.04 0.03 0.04 0.05 0.06 0.05 0.04
0.06 0.06 0.07 0.20 0.18 0.10 0.07 0.06 0.05 0.05 0.03 0.02 0.02 0.02 0.01 0.01 0.01 0.02 0.02 0.02 0.02 0.02 0.03 0.03 0.05 0.06 0.05 0.05 0.06 0.05 0.05 0.05 0.07 0.06 0.04 0.05 0.05 0.05 0.05 0.05 0.05 0.06 0.06
0.07 0.09 0.08 0.13 0.15 0.10 0.09 0.09 0.08 0.06 0.04 0.03 0.03 0.02 0.02 0.02 0.02 0.03 0.03 0.02 0.03 0.03 0.03 0.06 0.07 0.07 0.07 0.06 0.06 0.05 0.05 0.06 0.07 0.07 0.06 0.04 0.07 0.06 0.05 0.04 0.04 0.05 0.06
0.05 0.09 0.13 0.17 0.18 0.10 0.09 0.11 0.13 0.12 0.08 0.06 0.04 0.03 0.03 0.03 0.03 0.04 0.04 0.05 0.03 0.04 0.04 0.04 0.06 0.08 0.08 0.08 0.07 0.06 0.05 0.06 0.05 0.04 0.05 0.05 0.06 0.06 0.07 0.05 0.04 0.05 0.07
0.05 0.09 0.14 0.21 0.20 0.13 0.10 0.11 0.14 0.14 0.12 0.09 0.05 0.05 0.05 0.06 0.06 0.05 0.05 0.05 0.03 0.04 0.06 0.07 0.09 0.08 0.06 0.06 0.04 0.04 0.04 0.03 0.04 0.05 0.04 0.05 0.05 0.03 0.05 0.05 0.06 0.04 0.05
0.04 0.06 0.08 0.08 0.11 0.10 0.08 0.08 0.09 0.07 0.07 0.06 0.04 0.04 0.07 0.07 0.08 0.08 0.06 0.07 0.06 0.05 0.07 0.06 0.05 0.05 0.04 0.03 0.05 0.05 0.04 0.02 0.03 0.05 0.04 0.05 0.03 0.04 0.06 0.07 0.08 0.08 0.06
0.03 0.04 0.05 0.06 0.07 0.07 0.07 0.09 0.09 0.10 0.08 0.07 0.05 0.06 0.06 0.06 0.07 0.07 0.08 0.08 0.07 0.08 0.06 0.05 0.05 0.04 0.03 0.03 0.04 0.05 0.05 0.05 0.04 0.02 0.03 0.04 0.03 0.04 0.05 0.05 0.06 0.09 0.08
0.02 0.03 0.05 0.07 0.08 0.08 0.08 0.11 0.13 0.16 0.14 0.11 0.07 0.06 0.05 0.06 0.07 0.08 0.10 0.10 0.08 0.07 0.06 0.06 0.04 0.04 0.04 0.03 0.03 0.03 0.03 0.03 0.03 0.02 0.02 0.01 0.02 0.05 0.06 0.06 0.04 0.06 0.06
0.02 0.03 0.07 0.09 0.10 0.11 0.09 0.10 0.13 0.17 0.12 0.09 0.08 0.06 0.07 0.07 0.08 0.09 0.09 0.11 0.09 0.06 0.07 0.05 0.04 0.04 0.05 0.05 0.03 0.02 0.02 0.03 0.03 0.03 0.03 0.02 0.01 0.03 0.04 0.04 0.03 0.05 0.04
0.02 0.04 0.09 0.09 0.11 0.14 0.11 0.10 0.14 0.17 0.14 0.09 0.08 0.08 0.08 0.08 0.07 0.07 0.07 0.08 0.09 0.06 0.07 0.05 0.04 0.04 0.03 0.03 0.03 0.02 0.02 0.03 0.02 0.03 0.05 0.04 0.02 0.02 0.02 0.03 0.03 0.03 0.03
0.01 0.04 0.07 0.09 0.08 0.09 0.09 0.08 0.09 0.09 0.09 0.08 0.06 0.07 0.09 0.08 0.07 0.07 0.06 0.09 0.09 0.08 0.08 0.06 0.05 0.04 0.04 0.03 0.02 0.02 0.03 0.03 0.02 0.02 0.03 0.04 0.03 0.02 0.02 0.02 0.01 0.02 0.02

GEFSSE_prec_meanprec_126.txt.gz
QPF
0.00 0.00 0.00 0.00 0.00 0.01 0.01 0.01 0.02 0.02 0.02 0.01 0.01 0.00 0.00 0.00 0.00 0.01 0.01 0.01 0.02 0.03 0.04 0.03 0.03 0.04 0.05 0.08 0.05 0.03 0.03 0.02 0.04 0.04 0.05 0.05 0.05 0.06 0.10 0.12 0.13 0.09 0.08
0.00 0.00 0.00 0.00 0.00 0.01 0.01 0.01 0.01 0.02 0.02 0.01 0.01 0.01 0.00 0.00 0.01 0.01 0.01 0.02 0.02 0.03 0.03 0.02 0.02 0.03 0.05 0.06 0.05 0.04 0.02 0.03 0.06 0.06 0.08 0.09 0.05 0.06 0.11 0.17 0.15 0.08 0.07
0.00 0.00 0.00 0.00 0.00 0.00 0.01 0.01 0.01 0.02 0.02 0.01 0.01 0.01 0.00 0.01 0.01 0.01 0.02 0.03 0.02 0.03 0.02 0.02 0.02 0.04 0.05 0.05 0.05 0.04 0.03 0.03 0.06 0.11 0.16 0.11 0.04 0.06 0.09 0.14 0.10 0.06 0.05
0.00 0.00 0.00 0.00 0.00 0.00 0.01 0.01 0.01 0.01 0.01 0.01 0.01 0.01 0.01 0.01 0.02 0.02 0.03 0.03 0.02 0.03 0.03 0.04 0.06 0.04 0.04 0.03 0.04 0.04 0.05 0.06 0.07 0.16 0.16 0.09 0.05 0.05 0.08 0.08 0.05 0.05 0.05
0.00 0.00 0.00 0.00 0.00 0.00 0.00 0.01 0.01 0.01 0.01 0.01 0.01 0.01 0.01 0.01 0.02 0.02 0.03 0.03 0.03 0.04 0.04 0.05 0.05 0.03 0.03 0.02 0.02 0.02 0.03 0.05 0.10 0.19 0.15 0.10 0.07 0.06 0.06 0.05 0.03 0.04 0.04
0.00 0.00 0.00 0.00 0.00 0.00 0.00 0.00 0.00 0.01 0.01 0.01 0.01 0.01 0.01 0.01 0.01 0.02 0.02 0.02 0.04 0.05 0.04 0.04 0.03 0.03 0.03 0.02 0.02 0.03 0.04 0.08 0.15 0.13 0.09 0.10 0.07 0.05 0.04 0.05 0.04 0.05 0.05
0.00 0.00 0.00 0.00 0.00 0.00 0.00 0.00 0.01 0.01 0.01 0.01 0.01 0.01 0.02 0.01 0.02 0.01 0.02 0.02 0.03 0.04 0.03 0.02 0.02 0.02 0.03 0.02 0.02 0.02 0.03 0.06 0.10 0.06 0.07 0.10 0.05 0.04 0.03 0.04 0.05 0.06 0.05
0.00 0.00 0.00 0.00 0.00 0.00 0.00 0.01 0.01 0.01 0.01 0.00 0.01 0.01 0.02 0.02 0.01 0.01 0.01 0.02 0.03 0.03 0.04 0.03 0.02 0.02 0.02 0.02 0.01 0.01 0.01 0.04 0.04 0.03 0.05 0.05 0.03 0.04 0.03 0.03 0.04 0.05 0.05
0.02 0.02 0.00 0.00 0.00 0.00 0.00 0.00 0.01 0.01 0.01 0.01 0.01 0.01 0.01 0.01 0.01 0.01 0.02 0.02 0.02 0.02 0.02 0.03 0.02 0.01 0.01 0.01 0.01 0.01 0.01 0.03 0.04 0.03 0.03 0.02 0.01 0.03 0.03 0.02 0.02 0.03 0.03
0.04 0.02 0.02 0.02 0.01 0.01 0.01 0.00 0.01 0.01 0.01 0.01 0.01 0.01 0.01 0.01 0.01 0.02 0.03 0.02 0.01 0.01 0.01 0.01 0.01 0.00 0.01 0.01 0.01 0.00 0.01 0.02 0.04 0.04 0.03 0.01 0.01 0.02 0.03 0.02 0.03 0.04 0.03
0.07 0.04 0.04 0.04 0.04 0.03 0.02 0.01 0.01 0.01 0.01 0.01 0.01 0.01 0.02 0.07 0.04 0.04 0.03 0.02 0.01 0.01 0.01 0.01 0.01 0.01 0.01 0.01 0.01 0.00 0.02 0.04 0.04 0.04 0.02 0.01 0.01 0.02 0.03 0.03 0.03 0.03 0.03
0.06 0.06 0.06 0.05 0.05 0.04 0.04 0.02 0.02 0.02 0.01 0.03 0.04 0.03 0.09 0.13 0.14 0.08 0.03 0.02 0.01 0.01 0.01 0.01 0.02 0.03 0.04 0.04 0.01 0.02 0.05 0.05 0.04 0.03 0.02 0.01 0.01 0.01 0.02 0.02 0.02 0.03 0.03
0.05 0.05 0.09 0.11 0.08 0.08 0.09 0.07 0.04 0.04 0.04 0.07 0.08 0.07 0.09 0.08 0.08 0.07 0.05 0.03 0.03 0.03 0.04 0.02 0.04 0.08 0.08 0.06 0.05 0.07 0.07 0.05 0.03 0.05 0.03 0.01 0.01 0.01 0.01 0.01 0.03 0.03 0.04
0.06 0.10 0.14 0.16 0.12 0.13 0.13 0.11 0.07 0.05 0.04 0.07 0.08 0.06 0.06 0.08 0.09 0.10 0.09 0.07 0.07 0.08 0.08 0.05 0.08 0.09 0.07 0.02 0.02 0.05 0.04 0.03 0.04 0.06 0.04 0.02 0.01 0.02 0.02 0.01 0.02 0.03 0.03
0.07 0.12 0.15 0.19 0.18 0.13 0.14 0.12 0.08 0.06 0.05 0.05 0.06 0.05 0.04 0.05 0.07 0.08 0.07 0.08 0.07 0.06 0.04 0.05 0.05 0.05 0.04 0.02 0.02 0.02 0.01 0.03 0.05 0.06 0.06 0.02 0.01 0.01 0.02 0.01 0.02 0.03 0.03
0.07 0.11 0.14 0.19 0.26 0.18 0.11 0.09 0.08 0.05 0.06 0.07 0.05 0.04 0.04 0.04 0.05 0.06 0.05 0.06 0.06 0.05 0.05 0.04 0.03 0.03 0.03 0.02 0.03 0.02 0.02 0.04 0.08 0.09 0.07 0.04 0.02 0.01 0.02 0.01 0.01 0.02 0.03
0.11 0.12 0.13 0.19 0.33 0.25 0.12 0.08 0.06 0.05 0.04 0.04 0.05 0.05 0.03 0.03 0.05 0.06 0.06 0.06 0.05 0.04 0.03 0.03 0.03 0.03 0.02 0.02 0.02 0.02 0.03 0.04 0.08 0.08 0.06 0.07 0.07 0.05 0.02 0.01 0.01 0.02 0.03
0.08 0.08 0.08 0.11 0.26 0.25 0.15 0.09 0.06 0.06 0.05 0.04 0.04 0.05 0.03 0.03 0.04 0.05 0.05 0.05 0.03 0.02 0.02 0.03 0.04 0.04 0.03 0.03 0.03 0.02 0.04 0.04 0.03 0.04 0.03 0.05 0.10 0.06 0.03 0.02 0.01 0.01 0.01
0.04 0.04 0.06 0.08 0.12 0.17 0.14 0.10 0.09 0.08 0.07 0.05 0.05 0.05 0.04 0.03 0.02 0.04 0.06 0.06 0.03 0.02 0.02 0.02 0.05 0.05 0.04 0.04 0.03 0.03 0.02 0.03 0.04 0.02 0.02 0.03 0.04 0.05 0.04 0.02 0.01 0.01 0.01
0.04 0.05 0.06 0.08 0.09 0.13 0.14 0.12 0.11 0.10 0.08 0.05 0.03 0.05 0.04 0.03 0.03 0.04 0.04 0.04 0.03 0.05 0.06 0.05 0.08 0.05 0.05 0.04 0.03 0.04 0.02 0.02 0.03 0.03 0.02 0.02 0.02 0.03 0.04 0.06 0.04 0.02 0.01
0.04 0.05 0.06 0.07 0.08 0.10 0.10 0.08 0.08 0.10 0.08 0.05 0.03 0.03 0.03 0.03 0.04 0.05 0.06 0.07 0.05 0.07 0.06 0.04 0.05 0.05 0.06 0.04 0.06 0.08 0.05 0.02 0.02 0.02 0.02 0.02 0.04 0.03 0.05 0.07 0.08 0.08 0.05
0.04 0.05 0.05 0.07 0.07 0.06 0.08 0.10 0.09 0.11 0.10 0.07 0.05 0.07 0.03 0.03 0.04 0.04 0.08 0.07 0.06 0.08 0.06 0.05 0.06 0.09 0.08 0.04 0.05 0.10 0.11 0.11 0.07 0.03 0.02 0.02 0.03 0.03 0.04 0.03 0.04 0.08 0.09
0.03 0.04 0.04 0.07 0.07 0.08 0.11 0.11 0.12 0.14 0.13 0.12 0.10 0.09 0.05 0.03 0.04 0.07 0.08 0.08 0.09 0.06 0.07 0.08 0.07 0.08 0.08 0.05 0.03 0.06 0.10 0.13 0.12 0.08 0.05 0.03 0.02 0.03 0.03 0.04 0.04 0.04 0.06
0.02 0.02 0.03 0.07 0.09 0.10 0.12 0.10 0.09 0.09 0.10 0.10 0.09 0.08 0.07 0.05 0.05 0.05 0.06 0.10 0.10 0.07 0.10 0.06 0.06 0.07 0.09 0.06 0.04 0.03 0.04 0.07 0.09 0.13 0.09 0.05 0.02 0.02 0.03 0.03 0.04 0.05 0.04
0.03 0.02 0.02 0.05 0.09 0.08 0.09 0.12 0.13 0.13 0.14 0.13 0.10 0.12 0.10 0.08 0.06 0.04 0.05 0.08 0.08 0.07 0.09 0.07 0.09 0.06 0.07 0.06 0.05 0.04 0.03 0.04 0.04 0.08 0.12 0.11 0.07 0.04 0.04 0.03 0.04 0.04 0.04
0.05 0.04 0.04 0.06 0.09 0.11 0.15 0.21 0.13 0.15 0.17 0.16 0.15 0.13 0.08 0.06 0.06 0.06 0.07 0.08 0.06 0.07 0.08 0.06 0.07 0.06 0.06 0.06 0.05 0.04 0.04 0.03 0.03 0.04 0.06 0.08 0.07 0.04 0.02 0.02 0.02 0.04 0.03

GEFSSE_prec_meanprec_132.txt.gz
QPF
0.00 0.00 0.00 0.00 0.00 0.00 0.00 0.00 0.00 0.00 0.00 0.00 0.01 0.00 0.00 0.00 0.00 0.00 0.00 0.01 0.01 0.01 0.01 0.02 0.03 0.03 0.04 0.04 0.04 0.03 0.02 0.03 0.04 0.04 0.04 0.04 0.05 0.07 0.08 0.07 0.04 0.02 0.04
0.00 0.00 0.00 0.00 0.00 0.00 0.00 0.00 0.00 0.00 0.00 0.00 0.00 0.00 0.00 0.00 0.00 0.00 0.00 0.01 0.01 0.01 0.01 0.01 0.02 0.03 0.03 0.03 0.03 0.02 0.02 0.04 0.05 0.05 0.05 0.04 0.06 0.07 0.06 0.07 0.05 0.03 0.02
0.00 0.00 0.00 0.00 0.00 0.00 0.00 0.00 0.00 0.00 0.00 0.00 0.00 0.00 0.00 0.00 0.00 0.00 0.01 0.01 0.01 0.01 0.01 0.01 0.02 0.03 0.03 0.02 0.02 0.02 0.03 0.05 0.07 0.06 0.04 0.02 0.04 0.07 0.05 0.05 0.05 0.05 0.02
0.00 0.00 0.00 0.00 0.00 0.00 0.00 0.00 0.00 0.00 0.00 0.00 0.00 0.00 0.01 0.01 0.01 0.01 0.01 0.01 0.01 0.01 0.02 0.02 0.03 0.02 0.02 0.03 0.02 0.03 0.05 0.05 0.06 0.04 0.02 0.01 0.01 0.05 0.04 0.04 0.03 0.02 0.02
0.00 0.00 0.00 0.00 0.00 0.00 0.00 0.00 0.00 0.00 0.00 0.00 0.01 0.01 0.01 0.01 0.01 0.02 0.01 0.01 0.02 0.02 0.02 0.03 0.02 0.02 0.02 0.02 0.03 0.04 0.06 0.07 0.08 0.04 0.02 0.01 0.01 0.04 0.04 0.03 0.02 0.02 0.02
0.00 0.00 0.00 0.00 0.00 0.00 0.00 0.00 0.00 0.00 0.00 0.01 0.01 0.01 0.01 0.01 0.01 0.01 0.01 0.01 0.01 0.02 0.02 0.02 0.02 0.02 0.02 0.02 0.02 0.04 0.07 0.09 0.06 0.03 0.02 0.01 0.01 0.04 0.04 0.03 0.02 0.02 0.02
0.00 0.00 0.00 0.00 0.00 0.00 0.00 0.00 0.00 0.00 0.00 0.01 0.01 0.01 0.01 0.01 0.01 0.01 0.01 0.01 0.01 0.01 0.01 0.01 0.01 0.01 0.01 0.02 0.03 0.04 0.06 0.08 0.07 0.04 0.02 0.01 0.01 0.04 0.04 0.03 0.02 0.03 0.03
0.01 0.00 0.00 0.00 0.00 0.00 0.00 0.00 0.00 0.00 0.01 0.01 0.01 0.00 0.00 0.01 0.01 0.01 0.01 0.01 0.01 0.01 0.01 0.01 0.01 0.01 0.02 0.02 0.03 0.04 0.06 0.08 0.08 0.04 0.01 0.01 0.03 0.04 0.03 0.02 0.03 0.03 0.03
0.04 0.03 0.02 0.01 0.00 0.00 0.00 0.00 0.00 0.00 0.01 0.01 0.01 0.00 0.00 0.01 0.01 0.01 0.01 0.01 0.02 0.02 0.02 0.01 0.02 0.02 0.02 0.02 0.02 0.03 0.06 0.09 0.07 0.03 0.01 0.00 0.02 0.03 0.02 0.01 0.02 0.02 0.02
0.08 0.03 0.02 0.01 0.01 0.01 0.01 0.01 0.01 0.01 0.01 0.00 0.00 0.01 0.01 0.01 0.01 0.01 0.01 0.01 0.01 0.01 0.02 0.02 0.02 0.02 0.02 0.02 0.02 0.04 0.07 0.08 0.06 0.04 0.01 0.01 0.01 0.02 0.01 0.01 0.02 0.02 0.01
0.09 0.06 0.05 0.04 0.02 0.02 0.01 0.01 0.01 0.01 0.01 0.01 0.01 0.01 0.01 0.01 0.01 0.01 0.01 0.01 0.00 0.01 0.01 0.01 0.01 0.01 0.01 0.02 0.03 0.04 0.08 0.11 0.09 0.05 0.02 0.01 0.01 0.02 0.01 0.01 0.01 0.01 0.01
0.07 0.07 0.05 0.04 0.03 0.03 0.02 0.02 0.01 0.01 0.01 0.01 0.01 0.01 0.01 0.01 0.01 0.01 0.01 0.01 0.01 0.01 0.01 0.01 0.02 0.01 0.01 0.02 0.03 0.05 0.09 0.13 0.16 0.07 0.03 0.03 0.02 0.01 0.01 0.01 0.01 0.01 0.01
0.06 0.06 0.06 0.05 0.04 0.04 0.03 0.04 0.03 0.02 0.01 0.01 0.01 0.01 0.01 0.01 0.02 0.01 0.00 0.01 0.01 0.01 0.01 0.01 0.02 0.03 0.03 0.05 0.06 0.06 0.09 0.11 0.18 0.09 0.03 0.03 0.03 0.02 0.01 0.01 0.01 0.01 0.01
0.05 0.08 0.11 0.11 0.08 0.09 0.08 0.06 0.04 0.03 0.01 0.01 0.01 0.01 0.01 0.01 0.01 0.01 0.01 0.00 0.00 0.00 0.01 0.01 0.03 0.06 0.05 0.05 0.06 0.07 0.07 0.11 0.14 0.09 0.06 0.03 0.03 0.03 0.02 0.01 0.01 0.02 0.02
0.04 0.13 0.24 0.25 0.16 0.12 0.11 0.08 0.04 0.03 0.02 0.02 0.02 0.01 0.01 0.02 0.01 0.01 0.01 0.01 0.01 0.01 0.02 0.02 0.03 0.04 0.04 0.04 0.05 0.07 0.07 0.08 0.08 0.07 0.05 0.04 0.03 0.02 0.02 0.01 0.01 0.01 0.01
0.05 0.09 0.13 0.21 0.22 0.13 0.08 0.08 0.05 0.04 0.03 0.02 0.02 0.02 0.02 0.03 0.02 0.01 0.02 0.02 0.03 0.03 0.02 0.02 0.03 0.02 0.02 0.03 0.04 0.04 0.04 0.04 0.05 0.05 0.06 0.04 0.02 0.01 0.02 0.02 0.02 0.01 0.01
0.09 0.08 0.10 0.15 0.19 0.17 0.09 0.09 0.09 0.07 0.03 0.02 0.02 0.02 0.02 0.03 0.03 0.01 0.01 0.02 0.03 0.03 0.02 0.02 0.03 0.02 0.03 0.03 0.04 0.04 0.04 0.04 0.04 0.04 0.07 0.04 0.01 0.01 0.02 0.02 0.02 0.02 0.02
0.10 0.07 0.06 0.09 0.14 0.22 0.16 0.11 0.16 0.14 0.08 0.04 0.03 0.03 0.02 0.04 0.03 0.02 0.02 0.02 0.02 0.02 0.01 0.01 0.01 0.02 0.03 0.03 0.03 0.04 0.04 0.04 0.04 0.04 0.03 0.03 0.02 0.01 0.02 0.02 0.02 0.03 0.02
0.08 0.04 0.04 0.07 0.09 0.18 0.21 0.12 0.19 0.17 0.11 0.06 0.05 0.04 0.03 0.03 0.02 0.02 0.02 0.02 0.02 0.02 0.01 0.01 0.01 0.02 0.03 0.03 0.03 0.04 0.04 0.03 0.04 0.04 0.04 0.04 0.02 0.02 0.01 0.02 0.02 0.02 0.02
0.06 0.05 0.04 0.06 0.06 0.11 0.18 0.12 0.16 0.16 0.14 0.10 0.07 0.06 0.04 0.03 0.02 0.02 0.02 0.03 0.02 0.02 0.02 0.01 0.02 0.02 0.01 0.02 0.05 0.05 0.06 0.05 0.05 0.06 0.07 0.06 0.04 0.03 0.04 0.03 0.02 0.02 0.03
0.06 0.09 0.10 0.07 0.07 0.08 0.10 0.09 0.14 0.14 0.16 0.17 0.12 0.08 0.06 0.05 0.04 0.04 0.04 0.04 0.03 0.02 0.02 0.02 0.03 0.02 0.02 0.03 0.06 0.06 0.08 0.08 0.08 0.07 0.07 0.07 0.08 0.06 0.08 0.08 0.04 0.02 0.02
0.06 0.09 0.11 0.08 0.08 0.08 0.08 0.10 0.14 0.13 0.15 0.20 0.18 0.13 0.09 0.06 0.05 0.05 0.05 0.04 0.03 0.02 0.02 0.02 0.02 0.03 0.02 0.03 0.05 0.04 0.05 0.06 0.07 0.07 0.06 0.07 0.09 0.10 0.11 0.10 0.08 0.06 0.04
0.04 0.06 0.07 0.07 0.07 0.08 0.08 0.10 0.13 0.15 0.18 0.26 0.22 0.17 0.13 0.09 0.05 0.04 0.03 0.03 0.04 0.03 0.02 0.02 0.03 0.03 0.03 0.03 0.04 0.04 0.03 0.02 0.03 0.05 0.06 0.08 0.10 0.09 0.09 0.10 0.09 0.08 0.06
0.01 0.02 0.03 0.05 0.06 0.07 0.07 0.08 0.09 0.09 0.10 0.13 0.15 0.16 0.15 0.13 0.08 0.04 0.03 0.04 0.03 0.02 0.02 0.02 0.03 0.03 0.03 0.02 0.03 0.03 0.03 0.03 0.02 0.03 0.06 0.08 0.06 0.06 0.07 0.09 0.10 0.09 0.09
0.01 0.01 0.02 0.03 0.04 0.06 0.07 0.07 0.08 0.09 0.11 0.11 0.12 0.14 0.15 0.17 0.14 0.08 0.05 0.05 0.05 0.04 0.04 0.03 0.02 0.02 0.02 0.02 0.02 0.03 0.03 0.03 0.03 0.02 0.02 0.05 0.07 0.06 0.07 0.09 0.10 0.09 0.08
0.04 0.04 0.04 0.04 0.05 0.06 0.07 0.07 0.07 0.07 0.10 0.11 0.10 0.09 0.12 0.15 0.14 0.10 0.06 0.06 0.06 0.06 0.05 0.03 0.02 0.02 0.02 0.02 0.02 0.02 0.03 0.03 0.03 0.02 0.01 0.02 0.03 0.05 0.06 0.07 0.07 0.07 0.08

GEFSSE_prec_meanprec_138.txt.gz
QPF
0.01 0.02 0.04 0.04 0.02 0.01 0.01 0.01 0.00 0.00 0.00 0.00 0.01 0.01 0.01 0.01 0.01 0.01 0.01 0.01 0.01 0.02 0.03 0.04 0.05 0.06 0.06 0.06 0.05 0.05 0.06 0.06 0.08 0.07 0.08 0.11 0.10 0.12 0.11 0.09 0.07 0.03 0.05
0.00 0.01 0.03 0.02 0.01 0.01 0.01 0.00 0.00 0.00 0.00 0.00 0.00 0.00 0.00 0.00 0.01 0.01 0.01 0.01 0.01 0.02 0.03 0.03 0.04 0.05 0.06 0.05 0.05 0.05 0.05 0.07 0.07 0.10 0.13 0.12 0.13 0.12 0.08 0.06 0.04 0.04 0.06
0.00 0.00 0.01 0.01 0.01 0.00 0.00 0.00 0.00 0.00 0.00 0.00 0.00 0.00 0.00 0.00 0.01 0.01 0.01 0.01 0.01 0.03 0.03 0.03 0.03 0.03 0.04 0.04 0.03 0.03 0.04 0.06 0.08 0.11 0.10 0.06 0.10 0.11 0.08 0.05 0.05 0.06 0.07
0.00 0.00 0.00 0.01 0.01 0.00 0.00 0.00 0.00 0.00 0.00 0.00 0.00 0.01 0.01 0.01 0.01 0.01 0.01 0.01 0.03 0.03 0.03 0.04 0.04 0.03 0.02 0.02 0.02 0.04 0.05 0.05 0.06 0.06 0.03 0.03 0.04 0.09 0.08 0.07 0.06 0.05 0.04
0.00 0.00 0.01 0.01 0.01 0.00 0.00 0.00 0.00 0.00 0.00 0.01 0.01 0.01 0.01 0.01 0.01 0.01 0.01 0.02 0.03 0.04 0.05 0.05 0.03 0.03 0.02 0.03 0.04 0.05 0.05 0.04 0.04 0.02 0.01 0.01 0.02 0.07 0.07 0.07 0.06 0.05 0.04
0.00 0.00 0.02 0.02 0.01 0.01 0.00 0.00 0.00 0.00 0.00 0.01 0.01 0.01 0.01 0.01 0.01 0.02 0.02 0.03 0.04 0.06 0.05 0.03 0.03 0.03 0.02 0.03 0.05 0.05 0.04 0.03 0.01 0.01 0.01 0.02 0.03 0.06 0.06 0.05 0.05 0.05 0.04
0.00 0.00 0.01 0.01 0.01 0.01 0.00 0.00 0.00 0.00 0.00 0.01 0.01 0.01 0.01 0.02 0.02 0.03 0.03 0.03 0.04 0.05 0.04 0.02 0.03 0.02 0.02 0.04 0.05 0.05 0.04 0.03 0.01 0.00 0.01 0.01 0.02 0.06 0.06 0.05 0.06 0.06 0.05
0.00 0.00 0.01 0.01 0.01 0.01 0.01 0.01 0.01 0.00 0.00 0.00 0.01 0.01 0.01 0.02 0.02 0.03 0.02 0.03 0.03 0.03 0.02 0.02 0.02 0.01 0.02 0.03 0.05 0.06 0.05 0.04 0.01 0.00 0.00 0.01 0.03 0.06 0.06 0.04 0.05 0.05 0.04
0.00 0.00 0.01 0.01 0.01 0.01 0.01 0.01 0.01 0.01 0.01 0.01 0.01 0.01 0.01 0.02 0.02 0.02 0.02 0.02 0.03 0.02 0.02 0.03 0.02 0.01 0.02 0.03 0.06 0.05 0.05 0.04 0.01 0.01 0.01 0.01 0.03 0.04 0.04 0.05 0.04 0.04 0.04
0.00 0.00 0.00 0.01 0.01 0.01 0.01 0.01 0.01 0.01 0.01 0.01 0.01 0.01 0.02 0.02 0.02 0.02 0.02 0.03 0.03 0.03 0.03 0.03 0.02 0.02 0.03 0.04 0.05 0.05 0.06 0.04 0.02 0.01 0.01 0.02 0.03 0.03 0.03 0.04 0.04 0.03 0.03
0.01 0.01 0.01 0.01 0.01 0.01 0.01 0.01 0.01 0.01 0.01 0.01 0.01 0.02 0.02 0.01 0.01 0.01 0.01 0.02 0.02 0.02 0.02 0.03 0.02 0.03 0.03 0.04 0.06 0.06 0.05 0.03 0.03 0.01 0.01 0.02 0.03 0.04 0.04 0.03 0.02 0.02 0.02
0.00 0.01 0.00 0.00 0.00 0.01 0.01 0.02 0.01 0.01 0.01 0.01 0.01 0.01 0.00 0.00 0.00 0.00 0.01 0.02 0.01 0.01 0.02 0.02 0.02 0.02 0.02 0.01 0.04 0.04 0.02 0.01 0.01 0.01 0.01 0.02 0.03 0.04 0.03 0.02 0.02 0.02 0.02
0.01 0.01 0.00 0.00 0.01 0.01 0.01 0.02 0.01 0.01 0.01 0.00 0.00 0.00 0.00 0.00 0.00 0.00 0.00 0.01 0.01 0.01 0.00 0.01 0.01 0.01 0.01 0.02 0.03 0.03 0.02 0.02 0.01 0.01 0.01 0.02 0.03 0.04 0.04 0.03 0.03 0.04 0.02
0.01 0.01 0.01 0.00 0.00 0.01 0.01 0.01 0.01 0.01 0.01 0.00 0.00 0.00 0.00 0.00 0.00 0.00 0.00 0.00 0.00 0.00 0.00 0.00 0.01 0.01 0.01 0.02 0.03 0.02 0.01 0.02 0.02 0.01 0.01 0.03 0.02 0.03 0.04 0.04 0.04 0.05 0.03
0.02 0.03 0.05 0.04 0.03 0.02 0.01 0.01 0.01 0.01 0.01 0.00 0.00 0.00 0.00 0.00 0.00 0.00 0.00 0.00 0.00 0.00 0.00 0.00 0.01 0.02 0.02 0.02 0.02 0.02 0.02 0.01 0.02 0.01 0.01 0.03 0.04 0.03 0.03 0.04 0.03 0.03 0.03
0.05 0.06 0.05 0.06 0.07 0.09 0.07 0.04 0.02 0.01 0.01 0.01 0.01 0.01 0.01 0.01 0.00 0.00 0.00 0.00 0.00 0.00 0.00 0.01 0.02 0.02 0.02 0.02 0.01 0.01 0.02 0.01 0.01 0.01 0.01 0.02 0.04 0.04 0.04 0.04 0.05 0.05 0.03
0.09 0.07 0.06 0.08 0.08 0.10 0.09 0.06 0.05 0.04 0.03 0.01 0.01 0.02 0.02 0.01 0.00 0.00 0.00 0.00 0.00 0.00 0.00 0.01 0.02 0.02 0.02 0.02 0.01 0.02 0.02 0.01 0.01 0.01 0.01 0.01 0.02 0.04 0.05 0.05 0.05 0.06 0.05
0.13 0.09 0.08 0.10 0.11 0.12 0.10 0.08 0.09 0.07 0.06 0.04 0.03 0.03 0.03 0.03 0.01 0.01 0.01 0.01 0.01 0.00 0.01 0.01 0.01 0.02 0.02 0.02 0.02 0.02 0.02 0.02 0.01 0.01 0.02 0.01 0.01 0.02 0.04 0.05 0.06 0.06 0.07
0.16 0.12 0.12 0.12 0.12 0.14 0.14 0.13 0.12 0.09 0.06 0.05 0.05 0.04 0.04 0.03 0.02 0.01 0.01 0.01 0.01 0.01 0.02 0.02 0.01 0.02 0.02 0.02 0.02 0.03 0.03 0.02 0.02 0.02 0.02 0.02 0.02 0.02 0.03 0.06 0.07 0.05 0.06
0.18 0.15 0.13 0.13 0.15 0.17 0.17 0.16 0.16 0.14 0.12 0.10 0.08 0.05 0.05 0.05 0.04 0.02 0.02 0.02 0.02 0.02 0.01 0.02 0.02 0.02 0.02 0.04 0.04 0.03 0.03 0.02 0.03 0.04 0.04 0.04 0.04 0.04 0.03 0.02 0.04 0.04 0.06
0.19 0.17 0.11 0.12 0.14 0.16 0.17 0.17 0.22 0.19 0.16 0.14 0.11 0.08 0.07 0.07 0.07 0.05 0.04 0.04 0.05 0.04 0.02 0.03 0.03 0.03 0.03 0.03 0.04 0.03 0.02 0.02 0.03 0.04 0.05 0.05 0.04 0.04 0.04 0.05 0.04 0.02 0.03
0.14 0.14 0.12 0.12 0.15 0.16 0.18 0.20 0.23 0.20 0.21 0.16 0.14 0.12 0.10 0.09 0.07 0.05 0.05 0.06 0.06 0.04 0.04 0.04 0.05 0.03 0.03 0.04 0.04 0.04 0.03 0.01 0.02 0.03 0.04 0.04 0.04 0.05 0.05 0.06 0.05 0.04 0.03
0.08 0.08 0.10 0.11 0.13 0.15 0.16 0.17 0.16 0.18 0.17 0.14 0.12 0.12 0.10 0.10 0.10 0.07 0.05 0.06 0.05 0.03 0.03 0.04 0.04 0.03 0.02 0.04 0.04 0.03 0.01 0.01 0.01 0.01 0.02 0.04 0.05 0.05 0.05 0.05 0.04 0.03 0.03
0.06 0.07 0.09 0.10 0.12 0.12 0.12 0.12 0.11 0.11 0.10 0.08 0.09 0.11 0.12 0.11 0.11 0.10 0.07 0.06 0.06 0.05 0.04 0.05 0.04 0.03 0.02 0.03 0.02 0.02 0.01 0.01 0.01 0.01 0.01 0.02 0.03 0.03 0.03 0.04 0.03 0.04 0.04
0.06 0.06 0.08 0.09 0.10 0.12 0.10 0.11 0.10 0.09 0.08 0.10 0.12 0.12 0.13 0.16 0.16 0.14 0.10 0.08 0.07 0.06 0.06 0.06 0.06 0.03 0.02 0.02 0.02 0.02 0.02 0.01 0.01 0.01 0.01 0.02 0.02 0.02 0.02 0.02 0.03 0.03 0.04
0.06 0.07 0.08 0.09 0.09 0.12 0.12 0.13 0.10 0.09 0.07 0.07 0.08 0.07 0.08 0.10 0.12 0.12 0.10 0.10 0.09 0.06 0.05 0.05 0.05 0.04 0.02 0.02 0.02 0.02 0.02 0.02 0.02 0.02 0.01 0.01 0.01 0.01 0.02 0.02 0.03 0.03 0.04

GEFSSE_prec_meanprec_144.txt.gz
QPF
0.01 0.02 0.03 0.03 0.03 0.02 0.02 0.03 0.03 0.03 0.02 0.02 0.02 0.02 0.02 0.01 0.02 0.02 0.02 0.03 0.04 0.05 0.05 0.06 0.08 0.09 0.07 0.05 0.05 0.05 0.04 0.04 0.05 0.05 0.05 0.08 0.12 0.11 0.08 0.09 0.10 0.05 0.05
0.00 0.01 0.02 0.02 0.02 0.01 0.01 0.02 0.02 0.02 0.01 0.01 0.01 0.01 0.02 0.02 0.02 0.02 0.02 0.03 0.04 0.06 0.05 0.05 0.05 0.07 0.06 0.05 0.04 0.03 0.04 0.05 0.07 0.07 0.08 0.10 0.15 0.12 0.07 0.07 0.09 0.09 0.08
0.00 0.00 0.01 0.01 0.01 0.01 0.01 0.01 0.01 0.01 0.01 0.01 0.00 0.01 0.01 0.01 0.02 0.02 0.03 0.02 0.03 0.05 0.05 0.04 0.05 0.05 0.05 0.04 0.03 0.03 0.04 0.05 0.09 0.11 0.11 0.13 0.13 0.09 0.08 0.07 0.08 0.08 0.09
0.00 0.00 0.01 0.01 0.01 0.00 0.01 0.01 0.01 0.01 0.01 0.01 0.01 0.01 0.01 0.01 0.01 0.02 0.03 0.03 0.04 0.06 0.06 0.05 0.05 0.04 0.03 0.02 0.03 0.05 0.04 0.05 0.07 0.08 0.07 0.08 0.08 0.07 0.08 0.07 0.08 0.09 0.08
0.00 0.00 0.01 0.01 0.01 0.01 0.01 0.01 0.01 0.01 0.01 0.01 0.01 0.01 0.01 0.02 0.02 0.03 0.04 0.05 0.05 0.07 0.07 0.05 0.04 0.03 0.03 0.03 0.05 0.04 0.04 0.06 0.06 0.05 0.04 0.05 0.07 0.07 0.07 0.07 0.09 0.08 0.07
0.00 0.00 0.01 0.01 0.02 0.02 0.01 0.01 0.01 0.01 0.01 0.01 0.01 0.01 0.01 0.02 0.03 0.05 0.05 0.05 0.04 0.04 0.05 0.06 0.04 0.04 0.03 0.04 0.07 0.04 0.05 0.06 0.04 0.03 0.03 0.06 0.06 0.06 0.07 0.07 0.06 0.07 0.06
0.00 0.00 0.01 0.01 0.02 0.02 0.02 0.01 0.01 0.01 0.01 0.01 0.01 0.01 0.02 0.03 0.04 0.05 0.05 0.03 0.04 0.04 0.06 0.05 0.05 0.04 0.04 0.06 0.06 0.03 0.03 0.04 0.02 0.02 0.04 0.05 0.05 0.05 0.06 0.07 0.08 0.07 0.05
0.00 0.00 0.01 0.01 0.01 0.02 0.02 0.01 0.01 0.01 0.01 0.01 0.01 0.02 0.03 0.03 0.03 0.04 0.03 0.04 0.04 0.04 0.05 0.05 0.05 0.04 0.05 0.05 0.04 0.02 0.02 0.02 0.02 0.02 0.03 0.03 0.03 0.05 0.06 0.07 0.08 0.07 0.04
0.00 0.00 0.01 0.01 0.01 0.01 0.02 0.02 0.01 0.01 0.01 0.02 0.02 0.02 0.03 0.02 0.03 0.03 0.04 0.04 0.03 0.04 0.04 0.04 0.03 0.03 0.04 0.04 0.04 0.03 0.03 0.02 0.02 0.03 0.02 0.03 0.03 0.05 0.05 0.05 0.04 0.06 0.06
0.01 0.01 0.00 0.00 0.01 0.01 0.01 0.02 0.02 0.02 0.01 0.02 0.02 0.02 0.03 0.03 0.03 0.03 0.05 0.05 0.03 0.03 0.03 0.04 0.04 0.03 0.03 0.04 0.04 0.03 0.04 0.03 0.02 0.02 0.02 0.02 0.04 0.05 0.05 0.04 0.03 0.04 0.04
0.01 0.01 0.01 0.01 0.01 0.01 0.01 0.01 0.03 0.02 0.01 0.02 0.03 0.03 0.06 0.07 0.05 0.05 0.03 0.03 0.02 0.03 0.04 0.05 0.05 0.03 0.02 0.03 0.05 0.03 0.03 0.03 0.02 0.02 0.02 0.02 0.04 0.05 0.05 0.03 0.02 0.03 0.04
0.01 0.01 0.01 0.01 0.01 0.01 0.01 0.02 0.04 0.02 0.02 0.03 0.05 0.06 0.06 0.06 0.06 0.04 0.03 0.03 0.03 0.03 0.04 0.05 0.04 0.02 0.03 0.04 0.04 0.02 0.03 0.02 0.01 0.01 0.01 0.02 0.03 0.04 0.04 0.03 0.03 0.02 0.04
0.02 0.01 0.01 0.01 0.01 0.02 0.02 0.03 0.03 0.03 0.03 0.03 0.03 0.04 0.05 0.04 0.04 0.04 0.04 0.04 0.05 0.03 0.03 0.02 0.02 0.02 0.02 0.04 0.04 0.02 0.02 0.01 0.01 0.01 0.02 0.02 0.03 0.04 0.04 0.04 0.05 0.04 0.03
0.03 0.01 0.01 0.02 0.03 0.03 0.02 0.02 0.03 0.03 0.02 0.02 0.02 0.03 0.03 0.03 0.03 0.04 0.04 0.04 0.04 0.04 0.04 0.02 0.04 0.04 0.03 0.02 0.02 0.03 0.02 0.02 0.02 0.02 0.03 0.01 0.03 0.04 0.04 0.05 0.06 0.07 0.04
0.03 0.02 0.02 0.03 0.04 0.04 0.03 0.03 0.02 0.02 0.02 0.02 0.02 0.02 0.02 0.02 0.02 0.04 0.03 0.03 0.02 0.01 0.02 0.03 0.03 0.04 0.03 0.02 0.02 0.03 0.02 0.02 0.02 0.03 0.03 0.02 0.02 0.03 0.04 0.05 0.05 0.07 0.06
0.05 0.04 0.03 0.06 0.07 0.06 0.05 0.04 0.04 0.03 0.03 0.02 0.02 0.02 0.02 0.02 0.02 0.03 0.03 0.03 0.02 0.01 0.01 0.02 0.03 0.05 0.04 0.03 0.02 0.02 0.01 0.01 0.01 0.02 0.03 0.03 0.03 0.04 0.04 0.06 0.06 0.07 0.06
0.09 0.08 0.08 0.12 0.08 0.08 0.10 0.08 0.06 0.05 0.04 0.04 0.03 0.02 0.02 0.03 0.03 0.03 0.03 0.03 0.04 0.03 0.03 0.03 0.03 0.04 0.05 0.04 0.04 0.02 0.02 0.02 0.02 0.02 0.02 0.03 0.05 0.04 0.04 0.05 0.05 0.05 0.07
0.12 0.15 0.16 0.12 0.09 0.13 0.15 0.09 0.05 0.05 0.05 0.06 0.05 0.04 0.03 0.03 0.03 0.03 0.02 0.03 0.04 0.04 0.04 0.06 0.05 0.06 0.07 0.06 0.06 0.04 0.04 0.05 0.04 0.04 0.04 0.04 0.06 0.05 0.05 0.04 0.05 0.05 0.06
0.12 0.17 0.14 0.10 0.10 0.14 0.17 0.10 0.06 0.07 0.07 0.06 0.06 0.07 0.05 0.04 0.04 0.04 0.03 0.04 0.04 0.05 0.05 0.04 0.05 0.06 0.08 0.08 0.05 0.05 0.04 0.04 0.05 0.03 0.04 0.04 0.06 0.06 0.05 0.04 0.04 0.04 0.04
0.06 0.08 0.07 0.08 0.10 0.14 0.16 0.10 0.07 0.08 0.07 0.05 0.05 0.09 0.08 0.05 0.04 0.06 0.05 0.04 0.05 0.07 0.07 0.07 0.07 0.08 0.09 0.09 0.04 0.06 0.05 0.03 0.03 0.03 0.04 0.04 0.04 0.03 0.03 0.04 0.08 0.06 0.03
0.05 0.06 0.06 0.06 0.09 0.11 0.12 0.12 0.09 0.08 0.09 0.07 0.05 0.07 0.07 0.05 0.05 0.07 0.06 0.07 0.07 0.07 0.08 0.08 0.06 0.07 0.07 0.07 0.08 0.08 0.05 0.03 0.03 0.03 0.03 0.04 0.03 0.02 0.03 0.07 0.09 0.08 0.06
0.04 0.06 0.05 0.08 0.10 0.10 0.09 0.10 0.10 0.09 0.10 0.08 0.08 0.07 0.07 0.08 0.08 0.07 0.08 0.09 0.08 0.08 0.08 0.09 0.08 0.07 0.07 0.08 0.09 0.09 0.06 0.06 0.05 0.01 0.02 0.04 0.03 0.04 0.04 0.04 0.06 0.10 0.10
0.03 0.05 0.06 0.08 0.11 0.10 0.10 0.09 0.09 0.10 0.13 0.10 0.07 0.08 0.09 0.11 0.11 0.09 0.09 0.10 0.09 0.07 0.08 0.09 0.08 0.09 0.09 0.09 0.08 0.08 0.06 0.07 0.07 0.03 0.02 0.02 0.03 0.07 0.07 0.05 0.04 0.08 0.09
0.03 0.04 0.04 0.05 0.06 0.07 0.08 0.08 0.10 0.09 0.10 0.09 0.09 0.10 0.10 0.11 0.13 0.12 0.10 0.11 0.10 0.08 0.09 0.08 0.07 0.09 0.10 0.08 0.07 0.06 0.05 0.05 0.06 0.07 0.05 0.02 0.04 0.06 0.07 0.06 0.06 0.08 0.06
0.02 0.02 0.03 0.04 0.04 0.06 0.07 0.08 0.09 0.09 0.10 0.12 0.15 0.16 0.16 0.13 0.13 0.13 0.11 0.12 0.12 0.10 0.10 0.09 0.10 0.10 0.09 0.09 0.07 0.06 0.06 0.06 0.05 0.07 0.08 0.05 0.04 0.03 0.04 0.05 0.07 0.08 0.06
0.02 0.02 0.02 0.03 0.04 0.04 0.06 0.10 0.13 0.12 0.11 0.12 0.15 0.16 0.17 0.14 0.11 0.10 0.11 0.11 0.11 0.10 0.11 0.11 0.12 0.11 0.11 0.10 0.08 0.05 0.07 0.07 0.06 0.07 0.07 0.06 0.07 0.04 0.03 0.04 0.05 0.06 0.06

GEFSSE_prec_meanprec_150.txt.gz
QPF
0.01 0.00 0.01 0.02 0.02 0.02 0.02 0.03 0.03 0.03 0.02 0.02 0.02 0.02 0.02 0.03 0.03 0.04 0.03 0.03 0.03 0.03 0.04 0.04 0.06 0.06 0.05 0.03 0.03 0.02 0.03 0.04 0.03 0.02 0.02 0.03 0.05 0.07 0.10 0.10 0.11 0.08 0.06
0.00 0.00 0.01 0.01 0.01 0.01 0.02 0.02 0.03 0.03 0.03 0.02 0.02 0.01 0.02 0.03 0.02 0.03 0.04 0.04 0.03 0.03 0.04 0.05 0.04 0.04 0.04 0.02 0.03 0.02 0.02 0.03 0.04 0.04 0.05 0.05 0.06 0.08 0.11 0.11 0.13 0.08 0.06
0.00 0.00 0.00 0.01 0.01 0.01 0.01 0.02 0.02 0.03 0.03 0.03 0.02 0.01 0.02 0.02 0.02 0.03 0.03 0.04 0.04 0.03 0.04 0.04 0.04 0.05 0.04 0.03 0.03 0.01 0.02 0.03 0.06 0.09 0.12 0.11 0.08 0.07 0.11 0.11 0.07 0.04 0.04
0.00 0.00 0.00 0.01 0.02 0.02 0.01 0.01 0.02 0.02 0.02 0.02 0.02 0.01 0.02 0.02 0.03 0.03 0.03 0.03 0.04 0.04 0.06 0.05 0.04 0.04 0.04 0.03 0.02 0.02 0.01 0.04 0.10 0.18 0.19 0.12 0.08 0.06 0.08 0.08 0.05 0.03 0.04
0.00 0.00 0.00 0.01 0.01 0.02 0.01 0.01 0.01 0.02 0.02 0.02 0.02 0.03 0.02 0.02 0.02 0.03 0.03 0.04 0.05 0.10 0.08 0.06 0.04 0.03 0.03 0.02 0.02 0.02 0.02 0.06 0.12 0.17 0.13 0.12 0.10 0.07 0.07 0.06 0.05 0.04 0.03
0.00 0.00 0.00 0.00 0.01 0.01 0.01 0.01 0.01 0.02 0.02 0.03 0.03 0.02 0.02 0.02 0.03 0.04 0.04 0.04 0.04 0.06 0.06 0.06 0.04 0.03 0.03 0.03 0.02 0.02 0.03 0.07 0.10 0.08 0.10 0.12 0.07 0.07 0.07 0.07 0.07 0.03 0.02
0.00 0.00 0.00 0.00 0.01 0.01 0.02 0.02 0.02 0.02 0.02 0.02 0.02 0.02 0.02 0.02 0.03 0.06 0.05 0.03 0.02 0.03 0.04 0.04 0.04 0.04 0.04 0.03 0.02 0.01 0.02 0.05 0.08 0.08 0.09 0.10 0.05 0.03 0.04 0.05 0.06 0.05 0.03
0.00 0.00 0.00 0.00 0.00 0.00 0.02 0.03 0.03 0.01 0.01 0.02 0.02 0.02 0.02 0.03 0.03 0.04 0.04 0.03 0.03 0.03 0.04 0.04 0.03 0.03 0.03 0.03 0.02 0.01 0.01 0.04 0.04 0.05 0.06 0.05 0.03 0.02 0.02 0.03 0.05 0.06 0.05
0.00 0.00 0.00 0.00 0.00 0.00 0.01 0.02 0.03 0.01 0.01 0.01 0.02 0.02 0.02 0.02 0.02 0.03 0.04 0.05 0.03 0.03 0.03 0.04 0.04 0.03 0.03 0.02 0.02 0.01 0.01 0.04 0.03 0.04 0.04 0.02 0.02 0.02 0.02 0.03 0.03 0.04 0.04
0.00 0.00 0.00 0.00 0.00 0.00 0.00 0.01 0.02 0.01 0.01 0.01 0.02 0.01 0.02 0.02 0.02 0.03 0.04 0.06 0.06 0.05 0.03 0.02 0.02 0.03 0.03 0.01 0.00 0.00 0.01 0.03 0.03 0.03 0.04 0.02 0.01 0.02 0.03 0.03 0.03 0.03 0.02
0.01 0.00 0.00 0.00 0.00 0.00 0.01 0.01 0.01 0.01 0.01 0.02 0.02 0.03 0.06 0.11 0.07 0.05 0.04 0.03 0.05 0.05 0.03 0.04 0.03 0.02 0.02 0.01 0.00 0.00 0.02 0.05 0.03 0.03 0.03 0.01 0.01 0.02 0.04 0.03 0.02 0.03 0.03
0.01 0.00 0.00 0.01 0.00 0.01 0.01 0.02 0.05 0.04 0.03 0.07 0.06 0.05 0.12 0.15 0.15 0.08 0.04 0.03 0.03 0.03 0.02 0.03 0.03 0.02 0.03 0.03 0.01 0.01 0.02 0.02 0.02 0.01 0.01 0.01 0.01 0.02 0.03 0.02 0.01 0.02 0.02
0.01 0.00 0.00 0.01 0.02 0.05 0.04 0.03 0.05 0.07 0.06 0.08 0.07 0.05 0.10 0.09 0.10 0.06 0.05 0.04 0.04 0.05 0.05 0.03 0.03 0.05 0.06 0.06 0.04 0.01 0.01 0.01 0.01 0.01 0.02 0.01 0.01 0.01 0.02 0.01 0.01 0.02 0.01
0.02 0.02 0.01 0.02 0.03 0.05 0.04 0.04 0.05 0.07 0.06 0.07 0.07 0.04 0.06 0.08 0.09 0.08 0.09 0.07 0.07 0.09 0.09 0.06 0.07 0.06 0.06 0.04 0.02 0.03 0.02 0.02 0.02 0.03 0.02 0.00 0.01 0.01 0.01 0.01 0.01 0.02 0.01
0.03 0.04 0.04 0.06 0.02 0.03 0.04 0.04 0.04 0.09 0.07 0.06 0.06 0.04 0.04 0.06 0.07 0.07 0.08 0.08 0.06 0.04 0.04 0.06 0.04 0.04 0.04 0.03 0.02 0.02 0.02 0.02 0.02 0.03 0.02 0.01 0.00 0.01 0.01 0.01 0.01 0.01 0.01
0.04 0.04 0.06 0.08 0.03 0.02 0.02 0.03 0.04 0.04 0.05 0.06 0.06 0.04 0.03 0.04 0.05 0.05 0.05 0.07 0.07 0.05 0.04 0.04 0.03 0.04 0.04 0.03 0.02 0.01 0.02 0.01 0.02 0.03 0.05 0.02 0.00 0.01 0.01 0.01 0.01 0.02 0.02
0.04 0.03 0.07 0.06 0.05 0.04 0.03 0.03 0.05 0.04 0.04 0.04 0.06 0.05 0.03 0.04 0.05 0.05 0.05 0.05 0.05 0.04 0.03 0.03 0.02 0.03 0.04 0.05 0.03 0.02 0.01 0.01 0.02 0.03 0.05 0.05 0.03 0.02 0.01 0.02 0.02 0.02 0.01
0.06 0.05 0.06 0.06 0.05 0.05 0.04 0.05 0.05 0.04 0.05 0.05 0.05 0.06 0.04 0.05 0.04 0.05 0.04 0.04 0.03 0.02 0.02 0.03 0.02 0.02 0.04 0.05 0.04 0.03 0.02 0.02 0.01 0.01 0.03 0.04 0.05 0.05 0.04 0.02 0.02 0.02 0.02
0.05 0.05 0.06 0.06 0.05 0.05 0.05 0.05 0.05 0.05 0.06 0.05 0.05 0.07 0.07 0.05 0.03 0.03 0.05 0.04 0.02 0.03 0.02 0.03 0.03 0.03 0.06 0.06 0.03 0.04 0.02 0.03 0.02 0.01 0.02 0.02 0.04 0.06 0.07 0.05 0.02 0.02 0.03
0.06 0.04 0.05 0.05 0.06 0.06 0.07 0.06 0.04 0.04 0.06 0.05 0.05 0.07 0.06 0.05 0.03 0.05 0.05 0.04 0.03 0.04 0.04 0.05 0.06 0.06 0.05 0.05 0.03 0.06 0.04 0.03 0.02 0.01 0.02 0.03 0.04 0.04 0.06 0.07 0.06 0.04 0.03
0.04 0.03 0.04 0.05 0.06 0.08 0.10 0.08 0.05 0.04 0.06 0.05 0.04 0.04 0.06 0.06 0.06 0.06 0.07 0.08 0.05 0.06 0.04 0.03 0.05 0.07 0.06 0.04 0.06 0.07 0.05 0.03 0.03 0.02 0.02 0.04 0.04 0.02 0.04 0.07 0.08 0.09 0.10
0.02 0.03 0.04 0.05 0.05 0.07 0.08 0.09 0.06 0.06 0.05 0.05 0.04 0.05 0.05 0.07 0.10 0.09 0.06 0.07 0.06 0.07 0.07 0.06 0.07 0.09 0.09 0.07 0.07 0.13 0.14 0.16 0.10 0.04 0.09 0.08 0.05 0.04 0.04 0.07 0.10 0.13 0.13
0.02 0.04 0.05 0.05 0.06 0.06 0.08 0.08 0.07 0.06 0.07 0.07 0.05 0.06 0.04 0.05 0.06 0.07 0.06 0.06 0.07 0.06 0.09 0.08 0.07 0.08 0.09 0.08 0.05 0.10 0.16 0.21 0.16 0.10 0.10 0.08 0.06 0.08 0.09 0.12 0.11 0.17 0.19
0.02 0.03 0.05 0.06 0.06 0.06 0.07 0.08 0.08 0.07 0.09 0.11 0.09 0.08 0.06 0.04 0.04 0.05 0.06 0.08 0.08 0.09 0.11 0.07 0.07 0.08 0.10 0.08 0.06 0.05 0.07 0.13 0.16 0.18 0.14 0.10 0.09 0.11 0.12 0.13 0.10 0.12 0.16
0.02 0.03 0.04 0.05 0.05 0.05 0.06 0.06 0.08 0.09 0.11 0.13 0.10 0.11 0.10 0.08 0.06 0.04 0.06 0.09 0.09 0.09 0.10 0.09 0.14 0.10 0.08 0.07 0.07 0.07 0.08 0.09 0.08 0.14 0.19 0.16 0.13 0.12 0.12 0.10 0.09 0.10 0.12
0.01 0.01 0.02 0.04 0.04 0.04 0.04 0.05 0.06 0.09 0.13 0.12 0.12 0.12 0.10 0.10 0.09 0.08 0.08 0.10 0.10 0.10 0.10 0.10 0.10 0.09 0.08 0.10 0.10 0.08 0.10 0.09 0.07 0.11 0.13 0.13 0.12 0.11 0.14 0.15 0.10 0.10 0.10

GEFSSE_prec_meanprec_156.txt.gz
QPF
0.02 0.02 0.03 0.02 0.01 0.01 0.01 0.01 0.01 0.01 0.02 0.02 0.02 0.02 0.02 0.03 0.05 0.05 0.03 0.02 0.01 0.01 0.01 0.02 0.03 0.03 0.03 0.04 0.05 0.04 0.03 0.03 0.04 0.05 0.07 0.06 0.06 0.06 0.06 0.07 0.05 0.02 0.03
0.01 0.01 0.02 0.02 0.01 0.01 0.01 0.01 0.01 0.01 0.01 0.01 0.01 0.02 0.02 0.02 0.02 0.02 0.02 0.01 0.01 0.01 0.01 0.02 0.02 0.02 0.03 0.04 0.04 0.03 0.03 0.04 0.05 0.05 0.07 0.09 0.08 0.07 0.09 0.09 0.04 0.03 0.04
0.00 0.00 0.01 0.01 0.01 0.00 0.01 0.01 0.01 0.01 0.01 0.01 0.01 0.01 0.02 0.01 0.01 0.01 0.02 0.02 0.02 0.01 0.01 0.01 0.02 0.02 0.02 0.04 0.04 0.03 0.03 0.05 0.05 0.05 0.04 0.03 0.06 0.09 0.10 0.08 0.06 0.04 0.04
0.00 0.00 0.00 0.00 0.00 0.00 0.01 0.01 0.01 0.01 0.01 0.01 0.01 0.01 0.01 0.01 0.02 0.02 0.02 0.02 0.02 0.02 0.02 0.02 0.02 0.02 0.02 0.04 0.04 0.04 0.06 0.07 0.07 0.07 0.02 0.02 0.08 0.11 0.08 0.06 0.06 0.04 0.03
0.00 0.00 0.00 0.00 0.00 0.00 0.01 0.01 0.01 0.01 0.01 0.01 0.01 0.01 0.01 0.01 0.02 0.01 0.03 0.02 0.02 0.02 0.02 0.02 0.02 0.01 0.02 0.04 0.03 0.04 0.08 0.10 0.09 0.06 0.03 0.03 0.07 0.09 0.08 0.05 0.05 0.03 0.01
0.00 0.00 0.00 0.00 0.00 0.00 0.00 0.01 0.00 0.01 0.01 0.01 0.01 0.01 0.01 0.01 0.01 0.02 0.04 0.04 0.03 0.02 0.02 0.02 0.02 0.02 0.03 0.03 0.03 0.04 0.07 0.10 0.07 0.04 0.04 0.03 0.03 0.06 0.07 0.06 0.04 0.02 0.01
0.00 0.00 0.00 0.00 0.00 0.01 0.00 0.00 0.00 0.01 0.00 0.00 0.00 0.01 0.01 0.01 0.02 0.03 0.05 0.04 0.01 0.01 0.02 0.02 0.03 0.04 0.03 0.03 0.03 0.04 0.07 0.10 0.06 0.06 0.06 0.04 0.02 0.03 0.05 0.05 0.04 0.02 0.02
0.00 0.00 0.00 0.00 0.00 0.00 0.00 0.00 0.00 0.00 0.00 0.00 0.00 0.00 0.01 0.01 0.01 0.02 0.03 0.02 0.01 0.01 0.01 0.01 0.02 0.02 0.02 0.02 0.02 0.03 0.06 0.07 0.06 0.07 0.07 0.04 0.03 0.03 0.03 0.03 0.03 0.02 0.02
0.00 0.00 0.00 0.00 0.00 0.00 0.00 0.00 0.00 0.00 0.00 0.00 0.00 0.00 0.00 0.01 0.01 0.02 0.02 0.01 0.01 0.01 0.01 0.02 0.02 0.01 0.01 0.01 0.02 0.03 0.05 0.07 0.06 0.05 0.04 0.03 0.02 0.02 0.02 0.02 0.02 0.02 0.01
0.00 0.00 0.00 0.00 0.00 0.00 0.00 0.00 0.00 0.00 0.00 0.00 0.00 0.00 0.01 0.01 0.01 0.01 0.01 0.01 0.01 0.01 0.02 0.02 0.02 0.01 0.01 0.01 0.02 0.03 0.05 0.06 0.05 0.05 0.05 0.02 0.02 0.02 0.03 0.04 0.04 0.03 0.02
0.01 0.00 0.00 0.00 0.00 0.00 0.00 0.00 0.00 0.00 0.00 0.00 0.01 0.01 0.01 0.01 0.01 0.01 0.01 0.01 0.01 0.02 0.02 0.02 0.02 0.01 0.01 0.02 0.02 0.03 0.04 0.06 0.07 0.04 0.05 0.03 0.02 0.03 0.04 0.04 0.05 0.04 0.03
0.01 0.01 0.01 0.00 0.00 0.01 0.00 0.00 0.00 0.01 0.00 0.01 0.01 0.01 0.01 0.01 0.02 0.01 0.01 0.02 0.02 0.02 0.03 0.03 0.02 0.01 0.01 0.01 0.02 0.02 0.04 0.05 0.07 0.08 0.03 0.02 0.02 0.03 0.04 0.03 0.03 0.04 0.03
0.03 0.03 0.03 0.03 0.02 0.02 0.01 0.02 0.02 0.02 0.02 0.02 0.02 0.02 0.01 0.01 0.01 0.02 0.01 0.02 0.01 0.01 0.01 0.01 0.02 0.02 0.01 0.02 0.02 0.02 0.04 0.06 0.09 0.09 0.05 0.04 0.03 0.02 0.02 0.02 0.02 0.03 0.03
0.07 0.09 0.08 0.06 0.03 0.03 0.03 0.03 0.05 0.08 0.05 0.03 0.03 0.03 0.02 0.02 0.02 0.01 0.01 0.01 0.01 0.01 0.01 0.02 0.02 0.04 0.02 0.03 0.04 0.03 0.03 0.05 0.10 0.10 0.04 0.03 0.02 0.02 0.02 0.02 0.02 0.03 0.03
0.11 0.23 0.19 0.16 0.07 0.04 0.03 0.03 0.03 0.05 0.05 0.03 0.02 0.03 0.03 0.03 0.03 0.02 0.01 0.02 0.02 0.02 0.03 0.04 0.03 0.03 0.03 0.03 0.03 0.03 0.03 0.04 0.05 0.07 0.03 0.03 0.02 0.02 0.02 0.02 0.01 0.02 0.02
0.13 0.17 0.17 0.20 0.13 0.08 0.06 0.04 0.03 0.04 0.04 0.03 0.03 0.03 0.03 0.03 0.03 0.03 0.02 0.02 0.03 0.03 0.03 0.03 0.04 0.03 0.03 0.03 0.03 0.03 0.03 0.03 0.03 0.04 0.02 0.02 0.02 0.02 0.02 0.02 0.02 0.01 0.02
0.06 0.07 0.08 0.16 0.13 0.11 0.06 0.04 0.03 0.02 0.03 0.03 0.03 0.04 0.04 0.04 0.03 0.03 0.02 0.02 0.03 0.02 0.02 0.03 0.04 0.03 0.03 0.03 0.03 0.02 0.03 0.03 0.03 0.03 0.03 0.02 0.01 0.03 0.02 0.02 0.03 0.02 0.02
0.05 0.05 0.05 0.11 0.08 0.05 0.04 0.05 0.03 0.03 0.03 0.03 0.04 0.06 0.05 0.05 0.05 0.04 0.05 0.03 0.02 0.02 0.01 0.02 0.03 0.04 0.05 0.03 0.03 0.03 0.03 0.03 0.03 0.05 0.04 0.04 0.02 0.02 0.03 0.05 0.05 0.04 0.03
0.04 0.04 0.04 0.07 0.06 0.05 0.05 0.06 0.06 0.04 0.05 0.04 0.05 0.07 0.08 0.10 0.08 0.04 0.04 0.03 0.02 0.02 0.03 0.03 0.03 0.04 0.05 0.04 0.03 0.04 0.04 0.03 0.03 0.05 0.07 0.06 0.06 0.06 0.07 0.07 0.07 0.06 0.06
0.02 0.03 0.04 0.05 0.05 0.05 0.07 0.09 0.08 0.07 0.06 0.05 0.05 0.06 0.12 0.20 0.13 0.05 0.04 0.03 0.02 0.03 0.04 0.04 0.08 0.06 0.04 0.03 0.05 0.07 0.09 0.07 0.07 0.06 0.07 0.09 0.11 0.10 0.10 0.10 0.08 0.07 0.08
0.02 0.02 0.03 0.04 0.04 0.05 0.07 0.08 0.10 0.06 0.04 0.04 0.05 0.05 0.11 0.20 0.08 0.04 0.03 0.04 0.04 0.04 0.04 0.04 0.05 0.05 0.04 0.04 0.06 0.09 0.11 0.09 0.08 0.08 0.10 0.12 0.17 0.15 0.13 0.15 0.17 0.14 0.13
0.02 0.02 0.03 0.04 0.04 0.05 0.06 0.09 0.12 0.05 0.04 0.05 0.06 0.07 0.12 0.14 0.06 0.05 0.03 0.03 0.04 0.05 0.06 0.04 0.04 0.04 0.03 0.05 0.06 0.07 0.06 0.08 0.08 0.12 0.15 0.16 0.16 0.16 0.17 0.22 0.30 0.28 0.22
0.02 0.02 0.04 0.04 0.06 0.06 0.05 0.07 0.10 0.05 0.04 0.04 0.05 0.06 0.08 0.07 0.06 0.05 0.02 0.03 0.04 0.04 0.04 0.03 0.04 0.04 0.04 0.05 0.06 0.06 0.06 0.04 0.04 0.08 0.14 0.17 0.17 0.16 0.17 0.17 0.18 0.18 0.18
0.03 0.05 0.05 0.05 0.06 0.05 0.04 0.06 0.07 0.06 0.04 0.04 0.05 0.04 0.05 0.05 0.05 0.04 0.04 0.04 0.04 0.04 0.04 0.03 0.05 0.05 0.04 0.04 0.05 0.05 0.05 0.03 0.03 0.05 0.11 0.18 0.16 0.16 0.16 0.14 0.15 0.14 0.15
0.04 0.05 0.03 0.03 0.04 0.03 0.03 0.04 0.05 0.05 0.04 0.06 0.07 0.04 0.05 0.06 0.06 0.05 0.05 0.04 0.05 0.04 0.04 0.04 0.06 0.06 0.04 0.03 0.04 0.05 0.06 0.06 0.04 0.04 0.05 0.11 0.12 0.11 0.11 0.12 0.13 0.13 0.13
0.03 0.03 0.02 0.02 0.02 0.02 0.02 0.03 0.04 0.04 0.05 0.05 0.04 0.03 0.04 0.05 0.06 0.07 0.06 0.07 0.06 0.06 0.05 0.06 0.08 0.07 0.06 0.05 0.05 0.06 0.06 0.06 0.06 0.07 0.04 0.04 0.05 0.05 0.09 0.10 0.13 0.12 0.10

GEFSSE_prec_meanprec_162.txt.gz
QPF
0.03 0.05 0.06 0.04 0.03 0.03 0.02 0.03 0.03 0.02 0.03 0.04 0.04 0.05 0.08 0.10 0.10 0.09 0.06 0.04 0.05 0.06 0.06 0.06 0.06 0.06 0.07 0.08 0.07 0.06 0.06 0.04 0.04 0.04 0.05 0.06 0.08 0.07 0.07 0.06 0.05 0.04 0.06
0.01 0.02 0.04 0.03 0.02 0.01 0.01 0.02 0.02 0.03 0.03 0.02 0.02 0.02 0.02 0.03 0.04 0.04 0.05 0.05 0.05 0.05 0.05 0.06 0.05 0.05 0.06 0.06 0.06 0.05 0.05 0.05 0.05 0.07 0.09 0.09 0.10 0.10 0.08 0.07 0.06 0.05 0.06
0.01 0.01 0.02 0.01 0.01 0.01 0.01 0.02 0.01 0.01 0.01 0.02 0.03 0.02 0.02 0.03 0.03 0.04 0.05 0.05 0.04 0.04 0.04 0.05 0.04 0.05 0.05 0.05 0.05 0.05 0.07 0.09 0.08 0.08 0.08 0.04 0.07 0.09 0.09 0.09 0.08 0.07 0.07
0.01 0.01 0.01 0.01 0.01 0.01 0.01 0.02 0.01 0.01 0.01 0.01 0.01 0.02 0.02 0.03 0.03 0.03 0.03 0.03 0.03 0.03 0.04 0.04 0.04 0.05 0.05 0.04 0.04 0.05 0.07 0.07 0.09 0.07 0.04 0.03 0.04 0.09 0.09 0.08 0.08 0.07 0.07
0.01 0.00 0.01 0.01 0.01 0.00 0.01 0.01 0.01 0.01 0.01 0.01 0.01 0.01 0.02 0.03 0.02 0.02 0.03 0.02 0.03 0.04 0.04 0.04 0.04 0.04 0.04 0.05 0.04 0.05 0.07 0.08 0.08 0.04 0.02 0.03 0.04 0.09 0.09 0.08 0.07 0.08 0.05
0.00 0.01 0.01 0.01 0.01 0.00 0.00 0.01 0.01 0.01 0.01 0.01 0.01 0.02 0.02 0.03 0.03 0.02 0.02 0.02 0.02 0.02 0.03 0.04 0.05 0.03 0.04 0.05 0.05 0.06 0.10 0.08 0.04 0.01 0.02 0.02 0.03 0.07 0.07 0.06 0.06 0.06 0.04
0.00 0.00 0.00 0.01 0.00 0.00 0.01 0.01 0.01 0.01 0.01 0.01 0.02 0.02 0.02 0.04 0.04 0.04 0.03 0.03 0.02 0.03 0.03 0.05 0.05 0.04 0.03 0.04 0.04 0.05 0.07 0.06 0.02 0.01 0.01 0.00 0.02 0.06 0.07 0.06 0.05 0.04 0.04
0.00 0.00 0.00 0.00 0.00 0.00 0.01 0.01 0.01 0.01 0.01 0.01 0.01 0.01 0.02 0.04 0.05 0.04 0.04 0.03 0.03 0.03 0.03 0.05 0.05 0.03 0.03 0.04 0.05 0.05 0.04 0.02 0.01 0.00 0.00 0.01 0.03 0.05 0.06 0.05 0.06 0.04 0.02
0.00 0.00 0.00 0.00 0.01 0.01 0.01 0.01 0.01 0.01 0.01 0.01 0.01 0.01 0.02 0.03 0.03 0.04 0.04 0.04 0.04 0.03 0.04 0.04 0.03 0.03 0.04 0.03 0.04 0.05 0.04 0.03 0.01 0.00 0.00 0.01 0.03 0.04 0.04 0.04 0.05 0.05 0.03
0.00 0.00 0.00 0.00 0.01 0.01 0.01 0.01 0.01 0.01 0.00 0.01 0.01 0.01 0.02 0.02 0.03 0.03 0.03 0.03 0.04 0.05 0.03 0.03 0.03 0.03 0.04 0.03 0.04 0.07 0.07 0.03 0.02 0.02 0.01 0.01 0.02 0.02 0.03 0.04 0.05 0.05 0.04
0.00 0.00 0.00 0.00 0.00 0.00 0.01 0.01 0.01 0.01 0.01 0.01 0.01 0.02 0.02 0.01 0.01 0.01 0.02 0.03 0.03 0.03 0.03 0.03 0.03 0.03 0.03 0.04 0.06 0.09 0.06 0.02 0.01 0.03 0.04 0.01 0.02 0.03 0.03 0.04 0.06 0.06 0.04
0.01 0.01 0.01 0.01 0.01 0.01 0.01 0.01 0.01 0.01 0.01 0.01 0.01 0.01 0.01 0.00 0.01 0.01 0.02 0.05 0.04 0.04 0.04 0.03 0.03 0.03 0.01 0.01 0.04 0.04 0.03 0.02 0.01 0.02 0.03 0.03 0.04 0.05 0.04 0.03 0.04 0.07 0.07
0.03 0.02 0.01 0.02 0.03 0.02 0.01 0.01 0.00 0.01 0.01 0.00 0.01 0.01 0.01 0.01 0.01 0.01 0.01 0.03 0.03 0.03 0.02 0.02 0.02 0.01 0.01 0.01 0.01 0.01 0.02 0.01 0.01 0.02 0.02 0.03 0.04 0.06 0.06 0.06 0.06 0.06 0.06
0.06 0.04 0.04 0.04 0.03 0.03 0.02 0.01 0.01 0.02 0.02 0.01 0.01 0.02 0.02 0.02 0.01 0.01 0.01 0.01 0.02 0.02 0.01 0.01 0.01 0.01 0.02 0.01 0.01 0.02 0.02 0.02 0.01 0.01 0.02 0.04 0.04 0.05 0.05 0.04 0.05 0.06 0.05
0.07 0.08 0.09 0.06 0.04 0.05 0.04 0.03 0.02 0.02 0.03 0.03 0.02 0.02 0.02 0.02 0.02 0.01 0.01 0.01 0.02 0.02 0.01 0.01 0.01 0.01 0.01 0.01 0.01 0.02 0.02 0.01 0.01 0.01 0.02 0.03 0.04 0.04 0.05 0.05 0.05 0.07 0.06
0.04 0.04 0.05 0.06 0.04 0.04 0.04 0.03 0.03 0.03 0.04 0.05 0.03 0.03 0.03 0.03 0.02 0.02 0.02 0.02 0.02 0.02 0.01 0.01 0.01 0.01 0.01 0.01 0.02 0.02 0.02 0.02 0.02 0.02 0.03 0.03 0.05 0.05 0.04 0.06 0.07 0.07 0.07
0.03 0.03 0.03 0.04 0.03 0.03 0.04 0.03 0.04 0.04 0.05 0.06 0.06 0.04 0.06 0.05 0.04 0.02 0.02 0.02 0.02 0.02 0.03 0.02 0.01 0.02 0.02 0.03 0.03 0.02 0.01 0.02 0.02 0.03 0.04 0.04 0.03 0.05 0.06 0.06 0.07 0.05 0.05
0.04 0.03 0.03 0.02 0.03 0.05 0.05 0.04 0.06 0.07 0.07 0.07 0.07 0.05 0.08 0.07 0.06 0.03 0.02 0.01 0.01 0.02 0.03 0.02 0.02 0.03 0.03 0.03 0.02 0.03 0.03 0.03 0.02 0.02 0.03 0.04 0.03 0.03 0.05 0.06 0.07 0.08 0.05
0.05 0.03 0.02 0.03 0.06 0.05 0.06 0.06 0.06 0.07 0.08 0.08 0.06 0.05 0.05 0.05 0.06 0.04 0.02 0.01 0.01 0.02 0.03 0.03 0.03 0.04 0.04 0.03 0.03 0.04 0.04 0.04 0.03 0.03 0.04 0.03 0.03 0.02 0.03 0.05 0.08 0.10 0.08
0.05 0.05 0.04 0.04 0.09 0.09 0.08 0.07 0.06 0.06 0.07 0.06 0.04 0.04 0.04 0.04 0.04 0.03 0.03 0.03 0.02 0.02 0.03 0.05 0.05 0.04 0.04 0.03 0.04 0.04 0.05 0.04 0.04 0.04 0.05 0.05 0.04 0.03 0.03 0.03 0.06 0.08 0.10
0.05 0.09 0.06 0.05 0.10 0.11 0.08 0.08 0.05 0.04 0.05 0.05 0.05 0.05 0.04 0.04 0.04 0.04 0.04 0.05 0.04 0.04 0.04 0.05 0.06 0.04 0.03 0.03 0.04 0.03 0.04 0.04 0.04 0.05 0.05 0.06 0.06 0.04 0.04 0.05 0.05 0.06 0.06
0.07 0.13 0.08 0.09 0.16 0.14 0.09 0.10 0.09 0.05 0.04 0.05 0.07 0.07 0.06 0.04 0.04 0.04 0.06 0.07 0.05 0.05 0.05 0.04 0.06 0.05 0.04 0.05 0.04 0.03 0.03 0.02 0.02 0.03 0.04 0.05 0.05 0.04 0.05 0.07 0.07 0.06 0.06
0.07 0.08 0.08 0.12 0.17 0.14 0.11 0.10 0.12 0.07 0.03 0.02 0.03 0.05 0.06 0.05 0.05 0.04 0.06 0.06 0.06 0.05 0.05 0.04 0.04 0.05 0.05 0.05 0.04 0.04 0.02 0.01 0.02 0.03 0.04 0.04 0.05 0.05 0.06 0.06 0.06 0.05 0.07
0.07 0.07 0.06 0.09 0.10 0.09 0.08 0.07 0.09 0.07 0.02 0.02 0.02 0.04 0.05 0.06 0.05 0.04 0.05 0.05 0.05 0.04 0.03 0.04 0.05 0.05 0.05 0.05 0.04 0.03 0.03 0.02 0.02 0.02 0.03 0.03 0.03 0.04 0.05 0.05 0.05 0.04 0.05
0.07 0.05 0.05 0.05 0.07 0.07 0.06 0.05 0.04 0.05 0.03 0.02 0.03 0.03 0.04 0.06 0.05 0.06 0.06 0.06 0.06 0.05 0.03 0.04 0.05 0.04 0.03 0.03 0.03 0.04 0.04 0.03 0.02 0.02 0.03 0.04 0.04 0.04 0.05 0.06 0.06 0.04 0.04
0.06 0.05 0.05 0.04 0.05 0.05 0.05 0.04 0.03 0.03 0.03 0.02 0.02 0.02 0.04 0.06 0.06 0.06 0.06 0.06 0.07 0.07 0.06 0.05 0.05 0.06 0.05 0.03 0.03 0.03 0.04 0.05 0.04 0.04 0.03 0.04 0.04 0.04 0.04 0.04 0.04 0.04 0.04

GEFSSE_prec_meanprec_168.txt.gz
QPF
0.02 0.04 0.08 0.09 0.06 0.05 0.04 0.03 0.04 0.04 0.03 0.04 0.08 0.11 0.12 0.11 0.10 0.07 0.06 0.09 0.08 0.06 0.07 0.08 0.07 0.07 0.08 0.08 0.06 0.07 0.07 0.05 0.04 0.05 0.08 0.09 0.08 0.10 0.08 0.06 0.04 0.03 0.04
0.01 0.02 0.06 0.06 0.05 0.04 0.03 0.02 0.03 0.03 0.03 0.04 0.06 0.06 0.07 0.07 0.07 0.06 0.07 0.08 0.08 0.06 0.07 0.08 0.09 0.08 0.05 0.05 0.05 0.06 0.07 0.06 0.06 0.06 0.09 0.11 0.10 0.09 0.07 0.06 0.05 0.05 0.04
0.01 0.01 0.03 0.04 0.04 0.03 0.03 0.03 0.03 0.03 0.03 0.03 0.05 0.05 0.05 0.05 0.06 0.06 0.07 0.07 0.08 0.07 0.06 0.06 0.07 0.07 0.06 0.06 0.06 0.06 0.08 0.10 0.09 0.08 0.09 0.10 0.09 0.08 0.07 0.06 0.07 0.07 0.05
0.01 0.01 0.02 0.02 0.02 0.02 0.03 0.04 0.03 0.03 0.03 0.03 0.03 0.04 0.04 0.04 0.04 0.04 0.05 0.07 0.08 0.06 0.05 0.05 0.04 0.04 0.06 0.06 0.05 0.06 0.08 0.11 0.08 0.06 0.06 0.06 0.06 0.06 0.06 0.07 0.08 0.07 0.07
0.00 0.01 0.02 0.02 0.02 0.02 0.03 0.04 0.04 0.02 0.02 0.02 0.02 0.03 0.03 0.04 0.04 0.04 0.05 0.08 0.08 0.07 0.05 0.04 0.04 0.03 0.04 0.03 0.04 0.06 0.07 0.10 0.08 0.05 0.04 0.06 0.08 0.06 0.06 0.08 0.10 0.10 0.06
0.00 0.00 0.01 0.02 0.02 0.02 0.02 0.02 0.03 0.03 0.03 0.04 0.05 0.05 0.06 0.06 0.05 0.05 0.06 0.06 0.05 0.06 0.07 0.08 0.06 0.03 0.03 0.03 0.05 0.06 0.08 0.07 0.06 0.05 0.04 0.04 0.05 0.06 0.05 0.07 0.09 0.09 0.04
0.00 0.01 0.01 0.02 0.01 0.01 0.01 0.01 0.02 0.02 0.03 0.03 0.04 0.05 0.07 0.09 0.07 0.06 0.06 0.06 0.05 0.04 0.06 0.09 0.08 0.07 0.05 0.04 0.05 0.05 0.06 0.05 0.04 0.04 0.03 0.04 0.05 0.06 0.06 0.06 0.06 0.07 0.05
0.00 0.00 0.01 0.01 0.02 0.01 0.01 0.01 0.02 0.02 0.03 0.03 0.04 0.06 0.07 0.09 0.08 0.07 0.08 0.08 0.07 0.07 0.07 0.07 0.08 0.09 0.07 0.06 0.06 0.05 0.05 0.03 0.02 0.02 0.03 0.04 0.04 0.04 0.06 0.06 0.04 0.05 0.05
0.00 0.00 0.01 0.01 0.01 0.01 0.01 0.01 0.02 0.02 0.02 0.03 0.06 0.07 0.07 0.09 0.08 0.07 0.08 0.08 0.10 0.08 0.05 0.05 0.06 0.07 0.08 0.07 0.07 0.05 0.05 0.03 0.02 0.02 0.02 0.05 0.03 0.04 0.06 0.05 0.05 0.07 0.07
0.00 0.00 0.01 0.01 0.02 0.02 0.02 0.02 0.02 0.02 0.02 0.04 0.06 0.07 0.08 0.07 0.07 0.06 0.08 0.09 0.08 0.05 0.04 0.04 0.05 0.05 0.06 0.05 0.06 0.05 0.05 0.04 0.03 0.01 0.02 0.04 0.03 0.04 0.05 0.04 0.05 0.06 0.06
0.00 0.00 0.01 0.01 0.01 0.02 0.01 0.02 0.03 0.02 0.02 0.05 0.07 0.07 0.08 0.08 0.08 0.08 0.08 0.07 0.04 0.04 0.06 0.05 0.05 0.04 0.04 0.04 0.05 0.05 0.03 0.03 0.02 0.01 0.03 0.02 0.03 0.04 0.04 0.04 0.04 0.05 0.05
0.00 0.00 0.01 0.01 0.01 0.01 0.02 0.03 0.05 0.03 0.03 0.06 0.07 0.07 0.08 0.07 0.09 0.07 0.08 0.07 0.06 0.06 0.08 0.09 0.05 0.03 0.02 0.02 0.04 0.03 0.01 0.01 0.02 0.02 0.02 0.02 0.03 0.08 0.07 0.04 0.03 0.03 0.04
0.01 0.00 0.00 0.01 0.01 0.01 0.02 0.03 0.05 0.05 0.04 0.04 0.04 0.06 0.09 0.06 0.06 0.06 0.07 0.07 0.07 0.05 0.05 0.07 0.05 0.02 0.01 0.02 0.02 0.01 0.01 0.01 0.02 0.03 0.03 0.02 0.04 0.07 0.08 0.05 0.04 0.03 0.04
0.01 0.01 0.01 0.01 0.01 0.02 0.03 0.03 0.05 0.05 0.05 0.04 0.04 0.05 0.07 0.06 0.06 0.06 0.06 0.05 0.05 0.05 0.05 0.05 0.06 0.05 0.04 0.01 0.01 0.02 0.03 0.03 0.03 0.02 0.03 0.02 0.03 0.05 0.07 0.06 0.04 0.03 0.04
0.02 0.02 0.01 0.02 0.02 0.03 0.03 0.04 0.04 0.04 0.04 0.04 0.04 0.05 0.06 0.07 0.07 0.05 0.05 0.04 0.04 0.03 0.04 0.05 0.04 0.05 0.06 0.03 0.02 0.02 0.03 0.03 0.02 0.02 0.03 0.02 0.03 0.03 0.06 0.06 0.05 0.05 0.05
0.03 0.02 0.02 0.03 0.03 0.03 0.03 0.04 0.04 0.04 0.04 0.03 0.05 0.05 0.05 0.07 0.07 0.06 0.05 0.05 0.04 0.04 0.05 0.04 0.03 0.04 0.05 0.04 0.02 0.02 0.02 0.02 0.02 0.03 0.02 0.03 0.03 0.03 0.04 0.04 0.06 0.07 0.06
0.03 0.02 0.03 0.05 0.04 0.04 0.04 0.04 0.04 0.05 0.04 0.04 0.06 0.05 0.05 0.06 0.07 0.06 0.06 0.05 0.05 0.04 0.05 0.05 0.05 0.04 0.04 0.04 0.05 0.03 0.03 0.04 0.04 0.04 0.03 0.04 0.04 0.03 0.03 0.04 0.06 0.07 0.06
0.04 0.03 0.03 0.03 0.03 0.04 0.04 0.04 0.04 0.04 0.04 0.04 0.05 0.05 0.05 0.06 0.06 0.06 0.05 0.05 0.06 0.05 0.04 0.06 0.06 0.07 0.06 0.06 0.08 0.06 0.04 0.05 0.04 0.05 0.03 0.03 0.06 0.06 0.05 0.04 0.04 0.06 0.07
0.06 0.04 0.03 0.03 0.04 0.05 0.06 0.06 0.04 0.04 0.05 0.05 0.04 0.06 0.06 0.05 0.04 0.06 0.05 0.06 0.07 0.06 0.05 0.03 0.05 0.07 0.09 0.12 0.09 0.07 0.04 0.04 0.05 0.04 0.02 0.02 0.05 0.04 0.05 0.05 0.04 0.05 0.07
0.03 0.03 0.05 0.04 0.05 0.07 0.06 0.06 0.06 0.05 0.05 0.05 0.05 0.07 0.08 0.05 0.05 0.06 0.06 0.08 0.08 0.08 0.09 0.08 0.10 0.10 0.09 0.10 0.05 0.06 0.05 0.03 0.04 0.05 0.04 0.04 0.04 0.02 0.02 0.04 0.06 0.06 0.06
0.03 0.03 0.05 0.05 0.06 0.09 0.07 0.07 0.08 0.06 0.05 0.05 0.05 0.05 0.07 0.05 0.04 0.07 0.06 0.08 0.08 0.08 0.08 0.09 0.10 0.09 0.07 0.07 0.08 0.09 0.07 0.03 0.04 0.05 0.04 0.05 0.04 0.02 0.02 0.06 0.09 0.10 0.07
0.04 0.03 0.05 0.06 0.09 0.13 0.10 0.08 0.09 0.07 0.05 0.04 0.03 0.03 0.05 0.04 0.04 0.05 0.08 0.09 0.08 0.09 0.08 0.09 0.10 0.11 0.08 0.07 0.08 0.08 0.07 0.07 0.05 0.02 0.03 0.04 0.04 0.03 0.03 0.04 0.07 0.10 0.07
0.03 0.03 0.05 0.07 0.10 0.13 0.11 0.09 0.09 0.07 0.05 0.03 0.03 0.04 0.04 0.03 0.03 0.05 0.08 0.08 0.08 0.06 0.09 0.12 0.11 0.12 0.10 0.08 0.07 0.08 0.08 0.10 0.08 0.05 0.03 0.03 0.03 0.05 0.05 0.03 0.03 0.06 0.06
0.03 0.03 0.06 0.09 0.12 0.11 0.12 0.12 0.09 0.07 0.05 0.03 0.03 0.04 0.06 0.05 0.04 0.04 0.06 0.08 0.10 0.08 0.10 0.09 0.08 0.12 0.12 0.10 0.08 0.08 0.08 0.11 0.11 0.08 0.04 0.02 0.03 0.04 0.04 0.03 0.04 0.04 0.05
0.02 0.02 0.03 0.05 0.11 0.10 0.07 0.07 0.09 0.08 0.08 0.05 0.03 0.04 0.06 0.06 0.05 0.05 0.08 0.10 0.12 0.10 0.09 0.09 0.11 0.13 0.12 0.11 0.09 0.09 0.10 0.11 0.10 0.11 0.08 0.05 0.04 0.03 0.05 0.04 0.04 0.04 0.05
0.01 0.01 0.01 0.02 0.05 0.05 0.04 0.03 0.05 0.08 0.10 0.07 0.04 0.05 0.05 0.06 0.07 0.08 0.08 0.09 0.10 0.10 0.10 0.10 0.09 0.10 0.11 0.12 0.11 0.10 0.10 0.11 0.12 0.13 0.11 0.08 0.06 0.04 0.04 0.04 0.04 0.05 0.05

GEFSSE_prec_meanprec_174.txt.gz
QPF
0.01 0.01 0.02 0.05 0.08 0.11 0.12 0.09 0.09 0.11 0.10 0.07 0.07 0.07 0.06 0.07 0.08 0.05 0.07 0.09 0.10 0.09 0.09 0.09 0.08 0.06 0.04 0.04 0.04 0.04 0.05 0.04 0.04 0.05 0.06 0.05 0.05 0.06 0.06 0.04 0.05 0.08 0.07
0.00 0.00 0.01 0.04 0.06 0.09 0.09 0.08 0.08 0.08 0.10 0.09 0.08 0.06 0.05 0.06 0.06 0.06 0.08 0.10 0.10 0.08 0.08 0.09 0.07 0.05 0.03 0.03 0.03 0.04 0.04 0.06 0.07 0.06 0.08 0.07 0.04 0.05 0.06 0.06 0.08 0.09 0.07
0.00 0.00 0.00 0.02 0.04 0.06 0.07 0.07 0.07 0.07 0.08 0.10 0.09 0.07 0.07 0.07 0.06 0.07 0.08 0.08 0.07 0.07 0.06 0.07 0.06 0.05 0.05 0.04 0.04 0.05 0.06 0.06 0.09 0.10 0.14 0.16 0.11 0.08 0.06 0.05 0.06 0.06 0.06
0.00 0.00 0.00 0.01 0.03 0.04 0.04 0.04 0.05 0.05 0.06 0.08 0.08 0.07 0.08 0.09 0.09 0.10 0.09 0.07 0.06 0.05 0.06 0.09 0.08 0.05 0.04 0.04 0.04 0.05 0.06 0.05 0.09 0.12 0.16 0.21 0.19 0.07 0.04 0.05 0.06 0.06 0.06
0.00 0.00 0.00 0.01 0.01 0.02 0.03 0.05 0.04 0.04 0.05 0.07 0.07 0.06 0.08 0.09 0.09 0.10 0.08 0.06 0.07 0.07 0.07 0.10 0.08 0.05 0.04 0.04 0.04 0.04 0.04 0.05 0.11 0.15 0.17 0.17 0.14 0.06 0.04 0.05 0.07 0.07 0.05
0.00 0.00 0.00 0.01 0.01 0.01 0.02 0.03 0.03 0.04 0.05 0.06 0.07 0.06 0.08 0.07 0.09 0.11 0.07 0.09 0.08 0.08 0.08 0.07 0.04 0.04 0.03 0.03 0.03 0.03 0.03 0.07 0.14 0.14 0.12 0.12 0.08 0.05 0.06 0.06 0.05 0.05 0.04
0.00 0.00 0.00 0.01 0.01 0.01 0.02 0.02 0.02 0.02 0.02 0.04 0.06 0.06 0.05 0.05 0.08 0.10 0.10 0.12 0.08 0.08 0.06 0.05 0.04 0.04 0.04 0.03 0.02 0.03 0.04 0.07 0.11 0.10 0.10 0.12 0.06 0.05 0.05 0.05 0.05 0.04 0.03
0.00 0.01 0.00 0.00 0.01 0.01 0.01 0.01 0.02 0.03 0.02 0.03 0.05 0.07 0.07 0.07 0.08 0.09 0.14 0.13 0.08 0.05 0.04 0.04 0.04 0.04 0.04 0.03 0.02 0.03 0.04 0.06 0.05 0.05 0.06 0.08 0.03 0.04 0.05 0.04 0.03 0.03 0.03
0.00 0.01 0.01 0.01 0.01 0.01 0.01 0.01 0.02 0.03 0.03 0.04 0.05 0.05 0.06 0.06 0.07 0.09 0.12 0.09 0.05 0.03 0.03 0.04 0.03 0.02 0.03 0.02 0.02 0.02 0.04 0.06 0.03 0.03 0.03 0.05 0.03 0.02 0.03 0.03 0.02 0.04 0.04
0.00 0.01 0.01 0.01 0.01 0.02 0.02 0.02 0.02 0.01 0.02 0.04 0.05 0.04 0.07 0.06 0.07 0.08 0.08 0.06 0.03 0.02 0.03 0.04 0.03 0.02 0.02 0.01 0.01 0.01 0.02 0.03 0.03 0.03 0.03 0.03 0.01 0.01 0.02 0.03 0.03 0.04 0.04
0.02 0.03 0.02 0.01 0.01 0.02 0.03 0.02 0.04 0.03 0.03 0.05 0.07 0.07 0.12 0.15 0.14 0.12 0.08 0.04 0.03 0.04 0.05 0.04 0.03 0.02 0.01 0.01 0.00 0.01 0.01 0.03 0.04 0.04 0.03 0.02 0.01 0.02 0.02 0.03 0.03 0.04 0.03
0.04 0.06 0.07 0.01 0.01 0.02 0.02 0.03 0.07 0.09 0.10 0.13 0.13 0.15 0.20 0.17 0.18 0.14 0.10 0.06 0.04 0.04 0.04 0.05 0.03 0.01 0.02 0.01 0.01 0.01 0.03 0.04 0.04 0.03 0.03 0.01 0.01 0.02 0.02 0.03 0.03 0.03 0.03
0.02 0.03 0.04 0.02 0.02 0.03 0.04 0.04 0.05 0.09 0.14 0.13 0.14 0.14 0.16 0.12 0.13 0.12 0.09 0.09 0.09 0.06 0.05 0.06 0.04 0.04 0.04 0.03 0.02 0.02 0.02 0.01 0.02 0.02 0.02 0.01 0.01 0.02 0.02 0.02 0.03 0.02 0.02
0.01 0.02 0.03 0.02 0.03 0.03 0.03 0.04 0.03 0.04 0.09 0.09 0.11 0.11 0.10 0.12 0.12 0.13 0.12 0.10 0.09 0.09 0.09 0.07 0.07 0.05 0.04 0.02 0.01 0.01 0.01 0.01 0.01 0.02 0.02 0.00 0.00 0.01 0.02 0.02 0.02 0.02 0.02
0.01 0.02 0.03 0.02 0.02 0.03 0.04 0.04 0.02 0.02 0.05 0.08 0.09 0.09 0.06 0.07 0.10 0.10 0.09 0.09 0.07 0.07 0.07 0.07 0.05 0.04 0.02 0.02 0.01 0.00 0.00 0.00 0.01 0.02 0.04 0.01 0.00 0.01 0.02 0.02 0.02 0.02 0.03
0.01 0.02 0.03 0.03 0.03 0.04 0.04 0.04 0.03 0.02 0.04 0.07 0.08 0.06 0.05 0.06 0.06 0.07 0.07 0.08 0.06 0.06 0.07 0.07 0.05 0.04 0.03 0.01 0.01 0.00 0.00 0.00 0.02 0.03 0.03 0.02 0.01 0.01 0.01 0.01 0.02 0.03 0.04
0.01 0.03 0.04 0.03 0.02 0.03 0.04 0.04 0.03 0.02 0.02 0.06 0.09 0.06 0.04 0.05 0.06 0.06 0.07 0.07 0.06 0.04 0.05 0.05 0.05 0.05 0.05 0.04 0.03 0.01 0.01 0.01 0.02 0.02 0.04 0.04 0.03 0.01 0.01 0.02 0.03 0.03 0.04
0.01 0.02 0.02 0.02 0.04 0.03 0.04 0.05 0.04 0.03 0.03 0.05 0.06 0.05 0.04 0.05 0.06 0.08 0.07 0.08 0.07 0.05 0.03 0.06 0.05 0.05 0.08 0.07 0.05 0.04 0.02 0.01 0.01 0.02 0.03 0.04 0.06 0.05 0.04 0.03 0.02 0.02 0.04
0.01 0.02 0.02 0.04 0.06 0.05 0.05 0.05 0.05 0.05 0.05 0.04 0.05 0.04 0.07 0.06 0.05 0.06 0.08 0.10 0.05 0.05 0.05 0.04 0.06 0.08 0.10 0.09 0.06 0.05 0.02 0.01 0.02 0.03 0.04 0.04 0.06 0.08 0.07 0.05 0.04 0.03 0.03
0.01 0.01 0.02 0.04 0.06 0.05 0.05 0.06 0.06 0.06 0.05 0.04 0.06 0.06 0.06 0.07 0.07 0.06 0.06 0.08 0.05 0.08 0.09 0.08 0.12 0.12 0.11 0.08 0.05 0.06 0.03 0.02 0.04 0.06 0.06 0.06 0.06 0.05 0.06 0.06 0.06 0.03 0.02
0.01 0.02 0.02 0.04 0.05 0.05 0.06 0.07 0.08 0.08 0.06 0.05 0.06 0.06 0.06 0.06 0.07 0.08 0.09 0.10 0.07 0.09 0.08 0.09 0.11 0.13 0.11 0.08 0.11 0.11 0.06 0.05 0.08 0.07 0.07 0.09 0.07 0.04 0.04 0.06 0.07 0.07 0.05
0.01 0.02 0.02 0.03 0.04 0.04 0.04 0.05 0.07 0.07 0.05 0.03 0.04 0.06 0.04 0.04 0.05 0.08 0.09 0.07 0.07 0.09 0.10 0.12 0.12 0.13 0.12 0.09 0.12 0.16 0.15 0.17 0.19 0.10 0.08 0.07 0.06 0.05 0.04 0.06 0.09 0.11 0.09
0.01 0.01 0.02 0.02 0.03 0.04 0.06 0.06 0.07 0.07 0.07 0.07 0.06 0.07 0.04 0.04 0.04 0.07 0.07 0.07 0.09 0.07 0.12 0.12 0.11 0.12 0.14 0.11 0.11 0.15 0.19 0.21 0.18 0.10 0.08 0.06 0.06 0.08 0.08 0.08 0.08 0.11 0.12
0.01 0.01 0.01 0.02 0.03 0.05 0.08 0.09 0.09 0.09 0.10 0.08 0.06 0.08 0.07 0.06 0.06 0.05 0.05 0.07 0.08 0.08 0.12 0.08 0.11 0.13 0.13 0.11 0.13 0.13 0.15 0.17 0.19 0.16 0.11 0.08 0.07 0.08 0.09 0.09 0.10 0.11 0.10
0.01 0.01 0.01 0.02 0.04 0.05 0.08 0.10 0.09 0.11 0.11 0.09 0.07 0.10 0.10 0.09 0.07 0.04 0.06 0.08 0.09 0.10 0.10 0.10 0.15 0.12 0.11 0.11 0.13 0.14 0.16 0.16 0.14 0.17 0.16 0.12 0.10 0.08 0.08 0.09 0.09 0.09 0.08
0.01 0.00 0.01 0.01 0.03 0.05 0.06 0.09 0.09 0.10 0.10 0.10 0.11 0.12 0.11 0.10 0.07 0.06 0.07 0.09 0.09 0.11 0.12 0.10 0.11 0.12 0.12 0.12 0.12 0.12 0.12 0.14 0.16 0.19 0.17 0.15 0.13 0.08 0.07 0.08 0.08 0.07 0.07

GEFSSE_prec_meanprec_180.txt.gz
QPF
0.02 0.04 0.10 0.14 0.13 0.11 0.08 0.09 0.10 0.08 0.07 0.07 0.08 0.07 0.09 0.13 0.14 0.11 0.10 0.12 0.13 0.12 0.11 0.07 0.05 0.04 0.04 0.05 0.05 0.04 0.04 0.06 0.05 0.05 0.06 0.05 0.05 0.05 0.06 0.05 0.06 0.04 0.03
0.01 0.01 0.04 0.09 0.12 0.10 0.07 0.07 0.08 0.08 0.09 0.08 0.06 0.06 0.05 0.07 0.09 0.08 0.09 0.11 0.11 0.09 0.08 0.07 0.05 0.03 0.03 0.03 0.03 0.03 0.03 0.06 0.07 0.07 0.06 0.05 0.06 0.05 0.05 0.06 0.05 0.03 0.05
0.01 0.00 0.02 0.04 0.05 0.06 0.07 0.06 0.07 0.07 0.07 0.08 0.06 0.06 0.05 0.04 0.05 0.06 0.07 0.06 0.07 0.06 0.05 0.05 0.05 0.04 0.04 0.03 0.02 0.03 0.04 0.06 0.08 0.10 0.07 0.03 0.04 0.06 0.06 0.05 0.04 0.02 0.05
0.01 0.00 0.01 0.02 0.03 0.03 0.04 0.04 0.04 0.04 0.06 0.08 0.07 0.07 0.06 0.05 0.04 0.04 0.03 0.04 0.05 0.05 0.04 0.03 0.04 0.05 0.05 0.04 0.05 0.06 0.06 0.06 0.09 0.09 0.04 0.02 0.05 0.08 0.06 0.04 0.03 0.03 0.04
0.00 0.00 0.00 0.01 0.02 0.02 0.03 0.03 0.02 0.03 0.06 0.10 0.08 0.06 0.05 0.05 0.05 0.05 0.05 0.05 0.05 0.04 0.03 0.03 0.04 0.04 0.04 0.04 0.04 0.05 0.06 0.08 0.11 0.07 0.03 0.02 0.04 0.07 0.04 0.03 0.03 0.03 0.03
0.01 0.01 0.00 0.01 0.01 0.01 0.01 0.01 0.01 0.02 0.03 0.05 0.06 0.04 0.05 0.05 0.05 0.08 0.08 0.06 0.06 0.05 0.04 0.03 0.02 0.02 0.02 0.02 0.03 0.03 0.05 0.08 0.08 0.05 0.05 0.05 0.04 0.06 0.04 0.03 0.03 0.03 0.02
0.01 0.02 0.00 0.00 0.00 0.01 0.01 0.01 0.02 0.02 0.02 0.03 0.02 0.03 0.05 0.05 0.07 0.10 0.08 0.07 0.06 0.04 0.02 0.01 0.01 0.01 0.02 0.02 0.02 0.03 0.06 0.08 0.05 0.06 0.05 0.04 0.03 0.06 0.04 0.03 0.03 0.02 0.02
0.01 0.01 0.00 0.00 0.01 0.01 0.01 0.01 0.01 0.01 0.01 0.02 0.02 0.02 0.03 0.04 0.09 0.09 0.06 0.07 0.07 0.04 0.02 0.01 0.01 0.01 0.02 0.02 0.03 0.04 0.05 0.06 0.06 0.07 0.05 0.03 0.04 0.04 0.03 0.02 0.02 0.02 0.02
0.01 0.01 0.01 0.01 0.00 0.01 0.01 0.01 0.01 0.01 0.01 0.01 0.02 0.02 0.02 0.04 0.10 0.07 0.06 0.06 0.04 0.03 0.03 0.03 0.01 0.01 0.01 0.01 0.02 0.04 0.06 0.07 0.05 0.04 0.05 0.04 0.04 0.03 0.02 0.02 0.02 0.02 0.01
0.02 0.02 0.02 0.02 0.01 0.01 0.03 0.03 0.03 0.02 0.01 0.02 0.03 0.03 0.03 0.06 0.09 0.07 0.08 0.06 0.03 0.03 0.04 0.05 0.02 0.01 0.01 0.02 0.02 0.04 0.05 0.05 0.05 0.03 0.04 0.03 0.03 0.03 0.02 0.02 0.02 0.02 0.02
0.03 0.02 0.04 0.04 0.03 0.02 0.02 0.02 0.02 0.03 0.03 0.03 0.04 0.05 0.04 0.03 0.07 0.08 0.06 0.05 0.03 0.03 0.04 0.03 0.02 0.02 0.02 0.02 0.03 0.04 0.04 0.07 0.07 0.05 0.05 0.04 0.02 0.03 0.02 0.02 0.03 0.03 0.02
0.03 0.03 0.06 0.04 0.04 0.03 0.01 0.01 0.02 0.03 0.06 0.04 0.02 0.03 0.02 0.03 0.06 0.05 0.04 0.04 0.03 0.04 0.05 0.04 0.03 0.02 0.02 0.02 0.03 0.04 0.05 0.08 0.07 0.06 0.06 0.04 0.02 0.03 0.02 0.02 0.02 0.02 0.02
0.03 0.03 0.03 0.02 0.02 0.03 0.02 0.02 0.03 0.04 0.04 0.04 0.04 0.07 0.03 0.03 0.03 0.03 0.02 0.03 0.02 0.03 0.03 0.03 0.03 0.02 0.02 0.03 0.04 0.05 0.05 0.06 0.07 0.08 0.05 0.03 0.02 0.02 0.01 0.01 0.02 0.02 0.01
0.02 0.02 0.03 0.02 0.02 0.03 0.02 0.02 0.03 0.04 0.03 0.04 0.03 0.02 0.02 0.02 0.02 0.03 0.03 0.02 0.02 0.02 0.03 0.03 0.03 0.05 0.05 0.04 0.05 0.05 0.05 0.06 0.06 0.08 0.05 0.03 0.02 0.02 0.02 0.02 0.02 0.02 0.01
0.01 0.02 0.02 0.02 0.01 0.02 0.02 0.02 0.02 0.03 0.02 0.02 0.01 0.02 0.02 0.02 0.03 0.04 0.04 0.03 0.02 0.02 0.03 0.04 0.05 0.05 0.04 0.04 0.04 0.04 0.04 0.03 0.03 0.04 0.03 0.04 0.02 0.02 0.02 0.02 0.02 0.02 0.02
0.00 0.01 0.02 0.02 0.01 0.01 0.01 0.01 0.03 0.03 0.02 0.02 0.02 0.02 0.01 0.02 0.02 0.03 0.04 0.03 0.04 0.03 0.05 0.03 0.03 0.03 0.03 0.04 0.04 0.03 0.04 0.02 0.02 0.02 0.02 0.03 0.02 0.02 0.02 0.02 0.02 0.02 0.03
0.00 0.00 0.01 0.01 0.01 0.01 0.01 0.01 0.02 0.03 0.02 0.02 0.02 0.02 0.02 0.02 0.01 0.02 0.03 0.03 0.06 0.03 0.03 0.03 0.03 0.03 0.02 0.04 0.04 0.03 0.04 0.06 0.03 0.02 0.02 0.02 0.01 0.02 0.03 0.03 0.04 0.03 0.03
0.00 0.00 0.01 0.01 0.02 0.02 0.01 0.01 0.01 0.02 0.02 0.03 0.04 0.04 0.04 0.03 0.02 0.03 0.04 0.04 0.03 0.03 0.03 0.03 0.03 0.03 0.04 0.05 0.05 0.03 0.04 0.05 0.04 0.04 0.04 0.04 0.03 0.03 0.03 0.03 0.03 0.03 0.04
0.00 0.00 0.01 0.01 0.01 0.02 0.01 0.01 0.02 0.02 0.03 0.04 0.05 0.05 0.05 0.04 0.03 0.04 0.04 0.03 0.03 0.04 0.04 0.03 0.04 0.03 0.04 0.04 0.04 0.04 0.04 0.05 0.05 0.06 0.07 0.07 0.06 0.05 0.05 0.03 0.03 0.02 0.03
0.01 0.01 0.01 0.01 0.02 0.02 0.02 0.02 0.02 0.03 0.03 0.04 0.05 0.04 0.04 0.03 0.03 0.04 0.03 0.02 0.03 0.05 0.04 0.04 0.05 0.03 0.03 0.03 0.06 0.07 0.06 0.06 0.07 0.10 0.08 0.09 0.09 0.06 0.06 0.06 0.04 0.03 0.04
0.02 0.02 0.01 0.02 0.02 0.02 0.02 0.03 0.04 0.05 0.03 0.03 0.03 0.03 0.04 0.04 0.03 0.04 0.04 0.03 0.04 0.04 0.03 0.05 0.06 0.03 0.03 0.06 0.10 0.11 0.09 0.08 0.09 0.09 0.09 0.15 0.15 0.12 0.11 0.10 0.09 0.07 0.06
0.02 0.02 0.01 0.01 0.02 0.01 0.02 0.02 0.04 0.06 0.05 0.03 0.02 0.02 0.02 0.02 0.03 0.03 0.03 0.02 0.03 0.03 0.03 0.04 0.05 0.05 0.06 0.08 0.10 0.08 0.06 0.07 0.07 0.08 0.12 0.16 0.18 0.17 0.13 0.13 0.11 0.10 0.09
0.01 0.02 0.02 0.02 0.02 0.02 0.03 0.03 0.03 0.05 0.07 0.07 0.04 0.02 0.02 0.03 0.04 0.05 0.04 0.03 0.03 0.02 0.03 0.03 0.05 0.04 0.04 0.06 0.08 0.08 0.05 0.04 0.06 0.06 0.08 0.11 0.13 0.12 0.13 0.13 0.11 0.11 0.09
0.01 0.01 0.02 0.02 0.03 0.04 0.05 0.07 0.05 0.04 0.06 0.07 0.06 0.06 0.05 0.04 0.04 0.04 0.05 0.05 0.04 0.03 0.03 0.03 0.05 0.05 0.04 0.04 0.06 0.07 0.07 0.05 0.06 0.05 0.04 0.06 0.08 0.10 0.13 0.16 0.17 0.15 0.11
0.01 0.01 0.01 0.01 0.02 0.03 0.04 0.07 0.08 0.06 0.05 0.05 0.05 0.05 0.06 0.07 0.05 0.05 0.04 0.04 0.04 0.04 0.04 0.03 0.04 0.05 0.04 0.04 0.07 0.08 0.07 0.06 0.05 0.03 0.03 0.04 0.08 0.10 0.10 0.09 0.11 0.13 0.13
0.01 0.01 0.01 0.01 0.01 0.01 0.02 0.05 0.06 0.06 0.05 0.03 0.02 0.02 0.03 0.04 0.05 0.05 0.03 0.03 0.04 0.05 0.04 0.03 0.04 0.04 0.05 0.05 0.06 0.07 0.07 0.05 0.05 0.03 0.02 0.02 0.04 0.05 0.07 0.07 0.09 0.09 0.12

GEFSSE_prec_meanprec_186.txt.gz
QPF
0.05 0.08 0.11 0.09 0.08 0.06 0.07 0.09 0.08 0.08 0.09 0.12 0.13 0.11 0.15 0.14 0.14 0.14 0.12 0.13 0.13 0.11 0.11 0.12 0.10 0.09 0.09 0.09 0.08 0.06 0.06 0.06 0.06 0.06 0.05 0.05 0.07 0.07 0.06 0.07 0.07 0.04 0.05
0.03 0.06 0.10 0.09 0.08 0.06 0.06 0.07 0.07 0.07 0.08 0.13 0.12 0.10 0.11 0.10 0.09 0.11 0.11 0.14 0.13 0.14 0.12 0.11 0.08 0.08 0.09 0.10 0.08 0.07 0.06 0.08 0.10 0.09 0.09 0.10 0.09 0.08 0.06 0.06 0.07 0.05 0.06
0.02 0.03 0.06 0.11 0.10 0.08 0.06 0.07 0.07 0.07 0.09 0.12 0.10 0.09 0.09 0.10 0.12 0.15 0.17 0.13 0.13 0.13 0.10 0.10 0.08 0.08 0.08 0.08 0.08 0.07 0.07 0.09 0.11 0.12 0.10 0.06 0.08 0.08 0.07 0.07 0.07 0.06 0.06
0.01 0.01 0.04 0.10 0.08 0.05 0.04 0.05 0.09 0.08 0.08 0.09 0.08 0.07 0.08 0.09 0.12 0.15 0.14 0.11 0.12 0.07 0.06 0.06 0.07 0.08 0.07 0.07 0.07 0.07 0.07 0.06 0.11 0.08 0.03 0.02 0.04 0.09 0.09 0.07 0.06 0.04 0.03
0.00 0.00 0.02 0.07 0.08 0.05 0.03 0.05 0.07 0.06 0.07 0.09 0.08 0.07 0.06 0.06 0.06 0.08 0.07 0.08 0.07 0.05 0.05 0.06 0.07 0.07 0.06 0.06 0.06 0.07 0.06 0.07 0.10 0.03 0.01 0.02 0.04 0.07 0.08 0.06 0.05 0.03 0.02
0.01 0.01 0.02 0.04 0.06 0.06 0.04 0.04 0.05 0.05 0.05 0.08 0.12 0.10 0.07 0.06 0.05 0.05 0.05 0.04 0.04 0.04 0.05 0.05 0.05 0.05 0.05 0.05 0.06 0.07 0.08 0.09 0.06 0.01 0.01 0.02 0.04 0.06 0.07 0.06 0.06 0.04 0.04
0.01 0.01 0.02 0.03 0.04 0.05 0.04 0.04 0.03 0.03 0.04 0.07 0.12 0.11 0.08 0.07 0.05 0.06 0.05 0.03 0.04 0.05 0.05 0.05 0.04 0.04 0.05 0.05 0.07 0.09 0.09 0.06 0.02 0.01 0.01 0.01 0.02 0.05 0.06 0.06 0.07 0.05 0.04
0.01 0.01 0.02 0.03 0.03 0.04 0.03 0.03 0.03 0.03 0.03 0.05 0.08 0.08 0.08 0.06 0.05 0.06 0.04 0.03 0.04 0.05 0.05 0.05 0.04 0.04 0.05 0.05 0.06 0.09 0.09 0.04 0.02 0.01 0.01 0.01 0.02 0.04 0.06 0.05 0.05 0.04 0.03
0.00 0.01 0.02 0.03 0.05 0.05 0.06 0.04 0.03 0.02 0.02 0.03 0.03 0.04 0.07 0.06 0.06 0.06 0.05 0.05 0.06 0.05 0.05 0.04 0.03 0.02 0.03 0.04 0.04 0.06 0.07 0.04 0.01 0.01 0.01 0.02 0.03 0.04 0.04 0.03 0.03 0.04 0.04
0.02 0.01 0.01 0.01 0.02 0.04 0.07 0.06 0.04 0.03 0.02 0.03 0.03 0.04 0.06 0.07 0.08 0.08 0.06 0.07 0.07 0.06 0.05 0.04 0.04 0.03 0.03 0.03 0.03 0.05 0.05 0.04 0.02 0.01 0.01 0.02 0.03 0.03 0.03 0.03 0.03 0.04 0.04
0.02 0.01 0.01 0.01 0.01 0.01 0.03 0.04 0.05 0.03 0.04 0.03 0.03 0.05 0.04 0.07 0.10 0.10 0.07 0.06 0.05 0.07 0.08 0.06 0.06 0.05 0.03 0.04 0.06 0.06 0.04 0.02 0.01 0.00 0.01 0.03 0.03 0.04 0.04 0.05 0.05 0.04 0.05
0.01 0.01 0.01 0.01 0.01 0.01 0.01 0.02 0.02 0.01 0.01 0.01 0.01 0.02 0.02 0.05 0.09 0.08 0.08 0.05 0.05 0.09 0.08 0.06 0.05 0.05 0.02 0.02 0.04 0.03 0.02 0.01 0.01 0.01 0.01 0.03 0.03 0.04 0.05 0.05 0.04 0.03 0.03
0.01 0.01 0.01 0.00 0.01 0.01 0.00 0.00 0.01 0.01 0.01 0.01 0.01 0.01 0.02 0.03 0.06 0.07 0.05 0.03 0.03 0.05 0.03 0.03 0.03 0.01 0.01 0.01 0.01 0.01 0.02 0.02 0.02 0.02 0.02 0.03 0.03 0.04 0.05 0.04 0.04 0.03 0.03
0.00 0.01 0.01 0.01 0.01 0.01 0.01 0.00 0.00 0.01 0.01 0.01 0.01 0.01 0.01 0.01 0.03 0.04 0.02 0.01 0.01 0.01 0.01 0.01 0.01 0.02 0.02 0.03 0.03 0.02 0.02 0.03 0.03 0.03 0.02 0.03 0.04 0.05 0.06 0.06 0.05 0.03 0.03
0.01 0.01 0.02 0.02 0.02 0.01 0.01 0.01 0.01 0.01 0.02 0.01 0.01 0.01 0.00 0.00 0.01 0.01 0.01 0.00 0.01 0.01 0.01 0.01 0.01 0.02 0.02 0.03 0.03 0.02 0.02 0.02 0.02 0.02 0.02 0.04 0.05 0.04 0.06 0.06 0.05 0.05 0.04
0.01 0.01 0.02 0.02 0.01 0.01 0.01 0.01 0.01 0.02 0.03 0.02 0.02 0.02 0.02 0.01 0.01 0.01 0.01 0.00 0.01 0.01 0.00 0.01 0.02 0.02 0.02 0.02 0.03 0.03 0.02 0.02 0.02 0.01 0.01 0.03 0.06 0.05 0.05 0.06 0.06 0.07 0.08
0.01 0.01 0.02 0.01 0.01 0.01 0.01 0.01 0.01 0.03 0.04 0.03 0.04 0.03 0.03 0.02 0.03 0.03 0.02 0.01 0.01 0.01 0.01 0.01 0.02 0.02 0.03 0.04 0.04 0.03 0.02 0.03 0.03 0.02 0.01 0.01 0.03 0.05 0.06 0.07 0.07 0.08 0.09
0.00 0.00 0.01 0.01 0.02 0.02 0.01 0.01 0.02 0.04 0.03 0.02 0.03 0.04 0.03 0.03 0.05 0.04 0.03 0.02 0.01 0.01 0.01 0.02 0.03 0.03 0.04 0.04 0.03 0.02 0.03 0.03 0.02 0.02 0.01 0.01 0.02 0.02 0.05 0.08 0.08 0.07 0.08
0.01 0.00 0.01 0.01 0.01 0.02 0.01 0.02 0.04 0.05 0.03 0.02 0.03 0.03 0.03 0.04 0.04 0.04 0.04 0.02 0.02 0.02 0.02 0.03 0.04 0.03 0.03 0.03 0.02 0.02 0.02 0.03 0.02 0.02 0.02 0.03 0.03 0.02 0.03 0.05 0.08 0.07 0.08
0.01 0.02 0.02 0.01 0.02 0.02 0.02 0.02 0.05 0.06 0.05 0.04 0.04 0.04 0.04 0.03 0.04 0.04 0.04 0.03 0.02 0.02 0.02 0.02 0.03 0.03 0.03 0.03 0.03 0.04 0.03 0.02 0.02 0.03 0.04 0.06 0.05 0.04 0.04 0.04 0.06 0.07 0.08
0.03 0.06 0.03 0.02 0.02 0.02 0.01 0.02 0.04 0.06 0.06 0.05 0.05 0.04 0.03 0.04 0.04 0.04 0.04 0.03 0.03 0.03 0.03 0.02 0.02 0.04 0.04 0.05 0.05 0.05 0.05 0.02 0.03 0.04 0.06 0.07 0.06 0.06 0.06 0.05 0.05 0.06 0.05
0.03 0.03 0.02 0.02 0.03 0.02 0.02 0.03 0.04 0.05 0.07 0.07 0.06 0.04 0.03 0.03 0.02 0.02 0.02 0.03 0.03 0.03 0.02 0.03 0.03 0.03 0.04 0.05 0.05 0.06 0.04 0.02 0.02 0.02 0.02 0.03 0.04 0.05 0.04 0.05 0.05 0.05 0.04
0.01 0.02 0.02 0.03 0.04 0.03 0.04 0.04 0.03 0.04 0.05 0.05 0.05 0.04 0.04 0.04 0.03 0.02 0.01 0.02 0.04 0.04 0.02 0.02 0.03 0.02 0.02 0.05 0.05 0.06 0.05 0.02 0.02 0.02 0.01 0.02 0.03 0.03 0.04 0.05 0.05 0.05 0.04
0.01 0.02 0.04 0.03 0.03 0.04 0.05 0.03 0.02 0.03 0.04 0.04 0.05 0.05 0.06 0.05 0.05 0.03 0.04 0.04 0.04 0.03 0.02 0.02 0.03 0.03 0.03 0.03 0.04 0.04 0.05 0.03 0.02 0.01 0.01 0.01 0.01 0.01 0.02 0.03 0.04 0.05 0.04
0.01 0.02 0.03 0.02 0.02 0.03 0.04 0.03 0.04 0.03 0.03 0.03 0.04 0.05 0.06 0.06 0.07 0.05 0.06 0.06 0.05 0.05 0.04 0.03 0.03 0.03 0.03 0.04 0.04 0.04 0.04 0.04 0.03 0.02 0.01 0.01 0.01 0.01 0.01 0.02 0.03 0.04 0.04
0.00 0.01 0.02 0.01 0.01 0.01 0.01 0.02 0.03 0.03 0.03 0.03 0.04 0.03 0.04 0.06 0.08 0.08 0.08 0.08 0.08 0.06 0.06 0.06 0.05 0.05 0.05 0.05 0.04 0.04 0.04 0.05 0.04 0.02 0.02 0.01 0.02 0.02 0.02 0.02 0.02 0.03 0.03

GEFSSE_prec_meanprec_192.txt.gz
QPF
0.05 0.07 0.12 0.14 0.13 0.10 0.09 0.11 0.11 0.11 0.11 0.10 0.10 0.10 0.11 0.14 0.15 0.13 0.14 0.16 0.18 0.16 0.12 0.11 0.09 0.07 0.08 0.09 0.09 0.07 0.06 0.06 0.05 0.06 0.08 0.09 0.10 0.08 0.09 0.09 0.05 0.03 0.05
0.02 0.05 0.11 0.11 0.09 0.08 0.10 0.13 0.11 0.10 0.09 0.09 0.10 0.12 0.09 0.10 0.13 0.16 0.14 0.15 0.17 0.17 0.14 0.13 0.11 0.08 0.09 0.10 0.09 0.06 0.06 0.06 0.06 0.07 0.09 0.11 0.12 0.10 0.07 0.08 0.06 0.06 0.07
0.02 0.05 0.14 0.09 0.08 0.09 0.12 0.13 0.12 0.10 0.09 0.11 0.13 0.12 0.09 0.09 0.12 0.17 0.14 0.13 0.17 0.18 0.15 0.14 0.10 0.08 0.08 0.09 0.07 0.06 0.05 0.05 0.07 0.08 0.08 0.11 0.10 0.09 0.09 0.10 0.08 0.09 0.08
0.01 0.04 0.15 0.15 0.11 0.09 0.11 0.11 0.10 0.09 0.08 0.11 0.15 0.14 0.11 0.10 0.14 0.15 0.14 0.13 0.17 0.17 0.14 0.12 0.09 0.09 0.09 0.08 0.07 0.06 0.05 0.06 0.06 0.06 0.06 0.09 0.08 0.07 0.08 0.09 0.08 0.08 0.07
0.02 0.04 0.09 0.12 0.11 0.09 0.10 0.11 0.10 0.08 0.08 0.12 0.16 0.14 0.12 0.14 0.17 0.17 0.17 0.16 0.16 0.14 0.12 0.10 0.11 0.11 0.11 0.10 0.06 0.06 0.07 0.07 0.07 0.04 0.05 0.08 0.09 0.08 0.08 0.08 0.07 0.06 0.05
0.01 0.03 0.05 0.07 0.06 0.06 0.09 0.13 0.11 0.11 0.12 0.14 0.17 0.13 0.12 0.16 0.19 0.19 0.18 0.18 0.15 0.13 0.10 0.08 0.09 0.10 0.09 0.06 0.05 0.06 0.07 0.08 0.04 0.03 0.04 0.06 0.06 0.07 0.08 0.08 0.08 0.06 0.05
0.01 0.02 0.04 0.06 0.09 0.13 0.15 0.15 0.15 0.15 0.13 0.15 0.15 0.11 0.10 0.14 0.17 0.17 0.15 0.13 0.11 0.10 0.09 0.08 0.08 0.09 0.07 0.06 0.07 0.07 0.06 0.06 0.03 0.02 0.03 0.04 0.04 0.05 0.06 0.06 0.06 0.06 0.04
0.01 0.02 0.04 0.05 0.06 0.10 0.13 0.14 0.16 0.16 0.15 0.14 0.16 0.16 0.13 0.12 0.12 0.11 0.10 0.09 0.09 0.09 0.07 0.07 0.08 0.08 0.06 0.06 0.08 0.07 0.05 0.04 0.01 0.01 0.02 0.03 0.04 0.04 0.04 0.04 0.06 0.06 0.05
0.01 0.01 0.02 0.03 0.06 0.07 0.13 0.16 0.15 0.17 0.16 0.14 0.18 0.20 0.15 0.11 0.11 0.10 0.09 0.08 0.09 0.09 0.07 0.06 0.07 0.07 0.06 0.06 0.06 0.05 0.05 0.04 0.01 0.02 0.02 0.03 0.03 0.04 0.03 0.03 0.05 0.06 0.05
0.02 0.02 0.01 0.03 0.06 0.09 0.09 0.09 0.08 0.11 0.12 0.12 0.17 0.20 0.19 0.15 0.12 0.08 0.07 0.07 0.08 0.08 0.07 0.07 0.06 0.06 0.06 0.07 0.06 0.05 0.05 0.04 0.02 0.01 0.03 0.02 0.03 0.05 0.02 0.02 0.05 0.05 0.05
0.01 0.01 0.01 0.02 0.04 0.06 0.06 0.07 0.07 0.08 0.08 0.09 0.13 0.19 0.21 0.15 0.10 0.09 0.07 0.08 0.08 0.08 0.08 0.08 0.06 0.04 0.04 0.06 0.08 0.05 0.04 0.03 0.02 0.03 0.03 0.03 0.02 0.04 0.03 0.04 0.06 0.07 0.06
0.00 0.00 0.01 0.01 0.01 0.01 0.02 0.05 0.07 0.07 0.08 0.09 0.10 0.15 0.20 0.14 0.10 0.07 0.09 0.09 0.09 0.11 0.09 0.08 0.07 0.04 0.03 0.03 0.04 0.04 0.03 0.02 0.02 0.02 0.02 0.02 0.03 0.04 0.06 0.07 0.07 0.06 0.06
0.00 0.01 0.00 0.01 0.01 0.02 0.02 0.03 0.04 0.05 0.06 0.06 0.05 0.09 0.14 0.12 0.08 0.08 0.11 0.11 0.10 0.09 0.07 0.06 0.06 0.05 0.04 0.04 0.04 0.04 0.03 0.01 0.02 0.01 0.03 0.03 0.04 0.04 0.06 0.06 0.06 0.05 0.05
0.00 0.01 0.01 0.01 0.02 0.03 0.03 0.03 0.03 0.03 0.02 0.03 0.04 0.05 0.09 0.12 0.08 0.09 0.11 0.10 0.08 0.07 0.08 0.07 0.07 0.07 0.07 0.04 0.03 0.02 0.02 0.02 0.02 0.02 0.03 0.03 0.04 0.05 0.06 0.05 0.05 0.04 0.04
0.00 0.01 0.01 0.02 0.03 0.04 0.04 0.04 0.02 0.03 0.03 0.03 0.04 0.06 0.07 0.08 0.06 0.07 0.09 0.10 0.08 0.06 0.06 0.06 0.05 0.07 0.07 0.04 0.03 0.02 0.02 0.01 0.01 0.02 0.03 0.02 0.03 0.03 0.04 0.04 0.03 0.03 0.03
0.00 0.01 0.01 0.02 0.02 0.02 0.03 0.03 0.04 0.03 0.04 0.04 0.07 0.07 0.05 0.06 0.04 0.04 0.05 0.07 0.06 0.06 0.05 0.05 0.06 0.08 0.07 0.06 0.04 0.02 0.02 0.02 0.02 0.04 0.04 0.03 0.02 0.02 0.03 0.04 0.05 0.04 0.04
0.01 0.01 0.01 0.01 0.01 0.02 0.02 0.02 0.03 0.03 0.04 0.06 0.08 0.05 0.04 0.04 0.05 0.05 0.05 0.04 0.04 0.04 0.04 0.04 0.05 0.07 0.06 0.05 0.05 0.03 0.03 0.03 0.02 0.03 0.04 0.04 0.03 0.02 0.02 0.03 0.05 0.05 0.06
0.01 0.02 0.02 0.01 0.00 0.01 0.03 0.03 0.03 0.03 0.04 0.06 0.05 0.03 0.03 0.03 0.04 0.05 0.05 0.05 0.04 0.03 0.03 0.05 0.06 0.07 0.07 0.06 0.06 0.05 0.03 0.04 0.03 0.03 0.03 0.05 0.05 0.05 0.04 0.03 0.04 0.04 0.06
0.01 0.02 0.02 0.01 0.01 0.01 0.03 0.04 0.04 0.04 0.04 0.03 0.04 0.03 0.03 0.04 0.05 0.06 0.06 0.06 0.04 0.04 0.05 0.06 0.07 0.08 0.08 0.09 0.07 0.06 0.04 0.04 0.05 0.03 0.04 0.04 0.04 0.05 0.06 0.04 0.03 0.03 0.04
0.01 0.01 0.02 0.02 0.02 0.02 0.02 0.04 0.04 0.05 0.04 0.03 0.05 0.05 0.05 0.06 0.06 0.07 0.07 0.06 0.05 0.04 0.07 0.08 0.10 0.10 0.09 0.10 0.05 0.05 0.05 0.05 0.04 0.03 0.04 0.03 0.03 0.02 0.03 0.05 0.08 0.05 0.03
0.00 0.01 0.02 0.03 0.03 0.02 0.02 0.03 0.04 0.06 0.06 0.06 0.07 0.06 0.07 0.07 0.08 0.08 0.08 0.08 0.06 0.05 0.06 0.06 0.07 0.08 0.07 0.09 0.09 0.08 0.05 0.04 0.03 0.03 0.02 0.02 0.02 0.02 0.02 0.05 0.07 0.09 0.08
0.00 0.02 0.02 0.02 0.03 0.02 0.02 0.04 0.03 0.03 0.04 0.05 0.06 0.05 0.05 0.06 0.05 0.05 0.09 0.08 0.06 0.06 0.06 0.05 0.06 0.07 0.07 0.08 0.10 0.08 0.07 0.06 0.03 0.02 0.01 0.02 0.03 0.03 0.02 0.03 0.05 0.08 0.07
0.00 0.01 0.02 0.01 0.02 0.03 0.04 0.04 0.03 0.04 0.05 0.04 0.05 0.05 0.04 0.05 0.04 0.06 0.06 0.07 0.07 0.05 0.07 0.08 0.08 0.09 0.10 0.09 0.08 0.09 0.09 0.08 0.05 0.03 0.01 0.01 0.02 0.03 0.03 0.03 0.02 0.03 0.05
0.00 0.00 0.01 0.01 0.01 0.02 0.03 0.02 0.03 0.05 0.06 0.07 0.05 0.06 0.06 0.06 0.05 0.06 0.05 0.07 0.09 0.07 0.08 0.08 0.07 0.11 0.11 0.11 0.09 0.09 0.09 0.09 0.08 0.06 0.05 0.02 0.01 0.01 0.02 0.03 0.03 0.03 0.06
0.00 0.00 0.01 0.01 0.01 0.01 0.01 0.01 0.03 0.04 0.06 0.07 0.05 0.06 0.07 0.06 0.05 0.03 0.04 0.05 0.07 0.07 0.07 0.07 0.09 0.10 0.10 0.11 0.12 0.10 0.08 0.08 0.07 0.07 0.07 0.06 0.03 0.02 0.03 0.04 0.04 0.05 0.03
0.00 0.00 0.01 0.02 0.01 0.01 0.01 0.01 0.02 0.03 0.05 0.05 0.05 0.06 0.06 0.06 0.06 0.06 0.05 0.05 0.06 0.06 0.07 0.08 0.08 0.08 0.09 0.10 0.11 0.09 0.09 0.10 0.09 0.09 0.08 0.07 0.06 0.04 0.03 0.03 0.03 0.04 0.03

GEFSSE_prec_meanprec_198.txt.gz
QPF
0.03 0.03 0.04 0.07 0.09 0.10 0.11 0.11 0.10 0.10 0.12 0.13 0.12 0.14 0.12 0.12 0.15 0.16 0.16 0.16 0.16 0.16 0.16 0.16 0.14 0.11 0.09 0.08 0.09 0.06 0.05 0.04 0.04 0.04 0.05 0.05 0.06 0.07 0.06 0.07 0.08 0.06 0.05
0.02 0.02 0.05 0.07 0.09 0.10 0.14 0.12 0.08 0.08 0.10 0.11 0.12 0.12 0.10 0.11 0.13 0.12 0.11 0.12 0.14 0.13 0.14 0.15 0.12 0.09 0.07 0.07 0.08 0.05 0.03 0.04 0.04 0.05 0.05 0.06 0.07 0.07 0.06 0.08 0.09 0.08 0.06
0.02 0.03 0.05 0.07 0.10 0.12 0.13 0.11 0.10 0.10 0.09 0.09 0.11 0.11 0.09 0.10 0.13 0.13 0.11 0.12 0.16 0.14 0.14 0.13 0.10 0.08 0.06 0.08 0.07 0.04 0.03 0.03 0.06 0.07 0.10 0.11 0.08 0.07 0.07 0.07 0.08 0.07 0.06
0.03 0.03 0.05 0.07 0.09 0.11 0.10 0.10 0.10 0.10 0.08 0.09 0.11 0.12 0.10 0.10 0.14 0.16 0.13 0.13 0.17 0.16 0.15 0.13 0.10 0.08 0.07 0.09 0.09 0.06 0.05 0.05 0.07 0.11 0.16 0.18 0.12 0.06 0.06 0.07 0.05 0.05 0.07
0.03 0.02 0.04 0.04 0.05 0.06 0.06 0.08 0.10 0.09 0.07 0.10 0.14 0.15 0.14 0.14 0.16 0.17 0.13 0.14 0.17 0.16 0.16 0.14 0.13 0.09 0.10 0.09 0.08 0.06 0.05 0.04 0.06 0.12 0.14 0.14 0.13 0.06 0.05 0.06 0.06 0.05 0.06
0.02 0.02 0.03 0.05 0.04 0.05 0.07 0.09 0.09 0.10 0.10 0.11 0.14 0.16 0.13 0.13 0.16 0.16 0.15 0.16 0.15 0.14 0.14 0.13 0.12 0.11 0.09 0.08 0.07 0.07 0.04 0.04 0.07 0.13 0.14 0.12 0.10 0.05 0.04 0.04 0.04 0.03 0.04
0.01 0.02 0.02 0.09 0.08 0.06 0.08 0.06 0.08 0.08 0.10 0.13 0.14 0.11 0.13 0.17 0.22 0.23 0.21 0.20 0.15 0.14 0.11 0.10 0.09 0.09 0.06 0.04 0.06 0.05 0.04 0.06 0.08 0.11 0.11 0.09 0.07 0.04 0.04 0.04 0.03 0.02 0.03
0.01 0.03 0.03 0.05 0.08 0.10 0.09 0.08 0.08 0.08 0.10 0.17 0.21 0.11 0.12 0.23 0.29 0.28 0.25 0.20 0.15 0.12 0.10 0.08 0.06 0.06 0.04 0.03 0.04 0.04 0.03 0.05 0.05 0.06 0.08 0.06 0.03 0.02 0.03 0.04 0.04 0.04 0.04
0.01 0.04 0.05 0.09 0.16 0.19 0.17 0.14 0.14 0.13 0.13 0.21 0.26 0.15 0.13 0.14 0.17 0.18 0.17 0.14 0.11 0.11 0.09 0.08 0.06 0.05 0.04 0.03 0.03 0.03 0.02 0.04 0.04 0.05 0.05 0.05 0.02 0.01 0.02 0.04 0.04 0.04 0.03
0.02 0.03 0.03 0.04 0.10 0.14 0.15 0.15 0.17 0.15 0.18 0.20 0.19 0.17 0.13 0.12 0.11 0.11 0.10 0.09 0.10 0.09 0.07 0.05 0.05 0.04 0.04 0.03 0.03 0.03 0.02 0.04 0.04 0.05 0.05 0.04 0.01 0.01 0.01 0.02 0.03 0.03 0.03
0.02 0.02 0.03 0.03 0.04 0.08 0.12 0.15 0.18 0.20 0.23 0.21 0.17 0.18 0.15 0.18 0.14 0.11 0.08 0.07 0.07 0.06 0.06 0.04 0.04 0.04 0.04 0.03 0.03 0.02 0.02 0.03 0.03 0.06 0.06 0.03 0.01 0.01 0.01 0.02 0.03 0.03 0.03
0.01 0.03 0.02 0.02 0.02 0.06 0.08 0.11 0.18 0.21 0.23 0.20 0.19 0.19 0.19 0.19 0.21 0.13 0.08 0.06 0.07 0.06 0.05 0.04 0.04 0.04 0.05 0.03 0.03 0.03 0.03 0.02 0.02 0.04 0.04 0.01 0.01 0.01 0.01 0.03 0.04 0.03 0.03
0.00 0.01 0.02 0.03 0.03 0.04 0.06 0.07 0.10 0.17 0.19 0.15 0.16 0.16 0.14 0.14 0.15 0.12 0.10 0.11 0.12 0.08 0.06 0.05 0.05 0.06 0.05 0.06 0.05 0.03 0.03 0.01 0.01 0.02 0.03 0.01 0.01 0.01 0.01 0.02 0.03 0.03 0.04
0.00 0.00 0.01 0.02 0.04 0.05 0.05 0.06 0.06 0.08 0.09 0.09 0.10 0.12 0.10 0.12 0.13 0.12 0.14 0.13 0.12 0.10 0.11 0.09 0.07 0.05 0.03 0.03 0.03 0.03 0.02 0.01 0.02 0.03 0.05 0.02 0.01 0.01 0.01 0.02 0.01 0.02 0.03
0.00 0.00 0.01 0.02 0.04 0.05 0.06 0.06 0.04 0.06 0.05 0.04 0.05 0.09 0.07 0.08 0.09 0.10 0.10 0.11 0.10 0.08 0.07 0.08 0.05 0.04 0.03 0.04 0.04 0.04 0.03 0.03 0.04 0.05 0.06 0.02 0.01 0.01 0.01 0.01 0.01 0.02 0.02
0.00 0.01 0.02 0.03 0.03 0.04 0.06 0.05 0.05 0.04 0.03 0.03 0.08 0.05 0.06 0.07 0.08 0.07 0.08 0.10 0.08 0.06 0.05 0.05 0.05 0.05 0.06 0.06 0.05 0.04 0.03 0.03 0.04 0.05 0.05 0.03 0.01 0.01 0.01 0.01 0.02 0.03 0.03
0.01 0.01 0.01 0.02 0.02 0.04 0.04 0.03 0.02 0.02 0.01 0.02 0.05 0.03 0.05 0.06 0.07 0.06 0.07 0.08 0.08 0.05 0.04 0.05 0.05 0.05 0.06 0.06 0.05 0.04 0.05 0.03 0.04 0.03 0.04 0.06 0.05 0.03 0.03 0.01 0.02 0.04 0.05
0.01 0.01 0.01 0.01 0.02 0.03 0.04 0.04 0.02 0.02 0.03 0.05 0.05 0.04 0.04 0.04 0.05 0.07 0.08 0.06 0.05 0.04 0.05 0.06 0.07 0.07 0.07 0.06 0.05 0.04 0.04 0.03 0.03 0.02 0.03 0.05 0.07 0.07 0.04 0.02 0.02 0.03 0.04
0.01 0.01 0.01 0.03 0.03 0.02 0.03 0.04 0.04 0.04 0.05 0.04 0.05 0.05 0.05 0.03 0.03 0.07 0.08 0.08 0.05 0.05 0.06 0.06 0.08 0.08 0.09 0.07 0.04 0.04 0.03 0.03 0.04 0.02 0.03 0.04 0.05 0.06 0.07 0.05 0.03 0.03 0.04
0.00 0.01 0.02 0.02 0.02 0.04 0.04 0.04 0.04 0.04 0.05 0.04 0.05 0.06 0.04 0.03 0.02 0.05 0.07 0.06 0.05 0.06 0.08 0.09 0.12 0.10 0.09 0.07 0.04 0.08 0.05 0.04 0.03 0.04 0.04 0.04 0.05 0.04 0.05 0.07 0.07 0.03 0.03
0.00 0.01 0.01 0.02 0.03 0.05 0.05 0.05 0.05 0.06 0.06 0.06 0.05 0.02 0.02 0.03 0.03 0.04 0.07 0.08 0.06 0.07 0.08 0.07 0.10 0.12 0.10 0.07 0.09 0.10 0.06 0.03 0.03 0.03 0.04 0.04 0.06 0.05 0.04 0.07 0.10 0.09 0.06
0.00 0.00 0.00 0.01 0.02 0.03 0.04 0.05 0.06 0.06 0.05 0.06 0.05 0.06 0.04 0.04 0.04 0.04 0.06 0.07 0.09 0.10 0.08 0.09 0.11 0.14 0.13 0.10 0.10 0.14 0.12 0.11 0.08 0.05 0.05 0.04 0.04 0.05 0.05 0.05 0.09 0.11 0.08
0.00 0.00 0.00 0.01 0.02 0.03 0.03 0.03 0.05 0.06 0.07 0.07 0.06 0.08 0.05 0.03 0.03 0.05 0.05 0.07 0.09 0.07 0.13 0.14 0.14 0.14 0.14 0.12 0.09 0.14 0.15 0.17 0.14 0.08 0.05 0.05 0.06 0.07 0.07 0.07 0.06 0.08 0.08
0.00 0.00 0.00 0.01 0.01 0.01 0.02 0.03 0.05 0.06 0.07 0.08 0.07 0.09 0.08 0.05 0.03 0.04 0.04 0.08 0.09 0.09 0.13 0.11 0.14 0.15 0.15 0.13 0.15 0.13 0.11 0.14 0.15 0.14 0.09 0.07 0.07 0.07 0.07 0.07 0.07 0.07 0.11
0.00 0.00 0.00 0.01 0.02 0.02 0.02 0.03 0.04 0.05 0.07 0.07 0.06 0.11 0.08 0.06 0.04 0.04 0.05 0.08 0.08 0.09 0.09 0.11 0.16 0.14 0.12 0.12 0.13 0.14 0.13 0.15 0.13 0.15 0.14 0.12 0.09 0.07 0.07 0.07 0.08 0.08 0.09
0.00 0.00 0.01 0.02 0.03 0.03 0.02 0.02 0.03 0.04 0.06 0.06 0.07 0.07 0.05 0.06 0.04 0.03 0.04 0.08 0.08 0.08 0.08 0.09 0.12 0.11 0.12 0.13 0.12 0.12 0.13 0.14 0.15 0.17 0.16 0.13 0.11 0.08 0.06 0.06 0.07 0.09 0.10

GEFSSE_prec_meanprec_204.txt.gz
QPF
0.04 0.03 0.04 0.03 0.04 0.06 0.09 0.11 0.12 0.10 0.09 0.07 0.08 0.09 0.11 0.13 0.10 0.10 0.14 0.17 0.15 0.16 0.14 0.10 0.07 0.05 0.05 0.07 0.05 0.04 0.03 0.05 0.06 0.07 0.07 0.07 0.06 0.04 0.05 0.07 0.04 0.03 0.05
0.02 0.01 0.02 0.03 0.04 0.04 0.06 0.07 0.07 0.05 0.06 0.05 0.05 0.08 0.11 0.10 0.08 0.09 0.12 0.15 0.12 0.12 0.11 0.09 0.06 0.04 0.06 0.05 0.04 0.04 0.03 0.03 0.05 0.08 0.09 0.07 0.05 0.04 0.04 0.04 0.04 0.04 0.05
0.02 0.01 0.02 0.03 0.04 0.06 0.07 0.05 0.05 0.05 0.05 0.05 0.05 0.07 0.09 0.08 0.08 0.09 0.11 0.11 0.11 0.12 0.10 0.08 0.06 0.04 0.05 0.04 0.04 0.04 0.04 0.03 0.05 0.08 0.07 0.04 0.04 0.04 0.04 0.03 0.03 0.04 0.03
0.02 0.01 0.03 0.07 0.09 0.13 0.10 0.06 0.05 0.06 0.05 0.04 0.06 0.07 0.08 0.08 0.08 0.10 0.11 0.10 0.12 0.12 0.09 0.07 0.06 0.05 0.04 0.03 0.05 0.05 0.05 0.05 0.06 0.09 0.06 0.03 0.02 0.04 0.03 0.03 0.04 0.04 0.03
0.01 0.01 0.01 0.04 0.09 0.13 0.13 0.09 0.05 0.04 0.04 0.04 0.05 0.06 0.06 0.06 0.08 0.10 0.09 0.09 0.12 0.12 0.11 0.08 0.06 0.05 0.04 0.03 0.04 0.05 0.05 0.06 0.09 0.09 0.05 0.01 0.01 0.03 0.03 0.04 0.03 0.03 0.03
0.01 0.01 0.01 0.01 0.02 0.04 0.05 0.04 0.04 0.03 0.03 0.04 0.04 0.05 0.05 0.05 0.08 0.11 0.08 0.08 0.12 0.12 0.11 0.08 0.06 0.05 0.04 0.03 0.04 0.04 0.05 0.07 0.08 0.07 0.04 0.01 0.01 0.02 0.02 0.02 0.01 0.01 0.02
0.04 0.04 0.03 0.03 0.02 0.03 0.03 0.03 0.03 0.02 0.02 0.03 0.03 0.04 0.05 0.06 0.08 0.12 0.11 0.09 0.11 0.14 0.12 0.08 0.06 0.05 0.04 0.03 0.04 0.04 0.05 0.08 0.08 0.10 0.06 0.02 0.01 0.02 0.02 0.02 0.01 0.01 0.01
0.04 0.07 0.06 0.05 0.03 0.03 0.02 0.02 0.02 0.02 0.03 0.04 0.05 0.04 0.06 0.11 0.13 0.18 0.16 0.14 0.13 0.13 0.11 0.07 0.04 0.03 0.02 0.03 0.03 0.04 0.05 0.07 0.07 0.08 0.06 0.04 0.03 0.03 0.02 0.01 0.01 0.01 0.01
0.02 0.03 0.04 0.06 0.06 0.04 0.03 0.03 0.03 0.04 0.05 0.07 0.09 0.09 0.16 0.25 0.27 0.25 0.18 0.14 0.13 0.12 0.10 0.07 0.04 0.02 0.02 0.02 0.02 0.03 0.05 0.08 0.08 0.07 0.09 0.06 0.03 0.02 0.02 0.01 0.01 0.01 0.01
0.02 0.02 0.04 0.07 0.07 0.07 0.05 0.05 0.06 0.05 0.06 0.09 0.10 0.11 0.21 0.24 0.22 0.17 0.12 0.10 0.11 0.12 0.09 0.06 0.04 0.03 0.02 0.01 0.02 0.03 0.05 0.08 0.07 0.06 0.07 0.04 0.02 0.02 0.02 0.01 0.01 0.01 0.01
0.01 0.02 0.02 0.04 0.07 0.09 0.09 0.09 0.09 0.07 0.08 0.09 0.08 0.10 0.12 0.12 0.10 0.07 0.07 0.07 0.08 0.07 0.06 0.06 0.05 0.03 0.02 0.02 0.03 0.03 0.04 0.05 0.06 0.05 0.07 0.03 0.03 0.03 0.03 0.01 0.01 0.01 0.01
0.02 0.03 0.02 0.04 0.07 0.08 0.08 0.10 0.10 0.10 0.12 0.11 0.10 0.10 0.08 0.08 0.07 0.06 0.08 0.08 0.08 0.08 0.07 0.06 0.05 0.03 0.01 0.01 0.02 0.03 0.06 0.06 0.04 0.05 0.08 0.05 0.04 0.04 0.03 0.02 0.01 0.01 0.01
0.01 0.01 0.02 0.03 0.05 0.05 0.08 0.12 0.12 0.14 0.16 0.12 0.08 0.05 0.05 0.09 0.11 0.07 0.08 0.07 0.07 0.06 0.04 0.05 0.04 0.03 0.03 0.02 0.03 0.06 0.06 0.05 0.04 0.03 0.05 0.05 0.04 0.04 0.04 0.02 0.02 0.02 0.02
0.01 0.01 0.01 0.02 0.03 0.04 0.06 0.09 0.11 0.14 0.12 0.09 0.06 0.05 0.04 0.10 0.13 0.08 0.07 0.05 0.04 0.03 0.02 0.02 0.02 0.04 0.06 0.05 0.06 0.06 0.04 0.04 0.03 0.04 0.04 0.04 0.04 0.05 0.04 0.03 0.03 0.03 0.03
0.00 0.00 0.01 0.01 0.02 0.02 0.04 0.06 0.09 0.10 0.08 0.06 0.06 0.05 0.04 0.05 0.08 0.07 0.05 0.04 0.04 0.03 0.02 0.02 0.04 0.04 0.05 0.05 0.07 0.06 0.04 0.04 0.02 0.03 0.04 0.08 0.07 0.04 0.04 0.04 0.03 0.02 0.02
0.00 0.00 0.01 0.01 0.01 0.01 0.01 0.03 0.07 0.08 0.08 0.07 0.06 0.05 0.05 0.05 0.06 0.06 0.04 0.03 0.03 0.03 0.04 0.03 0.04 0.04 0.04 0.04 0.05 0.05 0.05 0.04 0.03 0.04 0.04 0.05 0.06 0.03 0.03 0.04 0.04 0.03 0.03
0.00 0.00 0.00 0.01 0.01 0.00 0.01 0.02 0.03 0.05 0.07 0.06 0.07 0.05 0.07 0.07 0.05 0.05 0.04 0.03 0.04 0.03 0.03 0.03 0.04 0.04 0.04 0.04 0.04 0.04 0.04 0.04 0.04 0.03 0.04 0.04 0.04 0.05 0.05 0.05 0.05 0.05 0.06
0.00 0.00 0.00 0.00 0.00 0.00 0.00 0.01 0.02 0.04 0.04 0.04 0.04 0.05 0.06 0.06 0.06 0.06 0.05 0.04 0.05 0.04 0.03 0.05 0.06 0.07 0.06 0.05 0.03 0.03 0.03 0.03 0.03 0.02 0.03 0.04 0.05 0.03 0.05 0.07 0.06 0.06 0.07
0.00 0.00 0.01 0.01 0.00 0.00 0.00 0.00 0.02 0.04 0.03 0.03 0.05 0.05 0.05 0.05 0.06 0.06 0.04 0.04 0.05 0.05 0.04 0.06 0.08 0.06 0.06 0.04 0.03 0.02 0.03 0.03 0.03 0.02 0.03 0.03 0.04 0.05 0.05 0.08 0.07 0.06 0.05
0.00 0.00 0.00 0.01 0.01 0.00 0.01 0.01 0.01 0.02 0.02 0.03 0.06 0.05 0.04 0.04 0.06 0.06 0.05 0.04 0.04 0.04 0.05 0.07 0.07 0.04 0.04 0.04 0.04 0.05 0.04 0.03 0.04 0.04 0.04 0.04 0.05 0.08 0.07 0.08 0.08 0.05 0.06
0.00 0.00 0.00 0.00 0.00 0.01 0.01 0.01 0.01 0.01 0.02 0.02 0.04 0.04 0.03 0.03 0.05 0.04 0.04 0.04 0.04 0.04 0.03 0.06 0.05 0.05 0.04 0.04 0.07 0.08 0.07 0.07 0.06 0.05 0.06 0.08 0.09 0.11 0.09 0.07 0.08 0.08 0.08
0.01 0.00 0.00 0.00 0.00 0.00 0.01 0.01 0.01 0.01 0.02 0.01 0.02 0.04 0.02 0.03 0.03 0.03 0.04 0.03 0.03 0.03 0.03 0.04 0.05 0.05 0.04 0.06 0.08 0.09 0.07 0.10 0.09 0.06 0.07 0.07 0.06 0.08 0.10 0.09 0.09 0.09 0.12
0.00 0.00 0.00 0.00 0.00 0.00 0.01 0.01 0.01 0.01 0.01 0.01 0.02 0.03 0.02 0.02 0.02 0.02 0.02 0.03 0.03 0.02 0.02 0.03 0.05 0.05 0.05 0.05 0.06 0.07 0.07 0.06 0.05 0.06 0.05 0.06 0.08 0.11 0.15 0.15 0.14 0.15 0.17
0.00 0.00 0.00 0.00 0.00 0.01 0.01 0.01 0.01 0.01 0.01 0.01 0.01 0.01 0.02 0.03 0.03 0.02 0.01 0.02 0.02 0.02 0.01 0.02 0.03 0.03 0.04 0.05 0.07 0.07 0.06 0.05 0.04 0.06 0.06 0.06 0.08 0.10 0.13 0.17 0.24 0.23 0.18
0.00 0.00 0.01 0.00 0.00 0.01 0.01 0.01 0.01 0.01 0.01 0.01 0.01 0.01 0.02 0.03 0.03 0.03 0.01 0.02 0.02 0.02 0.01 0.01 0.02 0.03 0.04 0.05 0.06 0.06 0.07 0.07 0.05 0.04 0.04 0.05 0.07 0.08 0.08 0.11 0.13 0.11 0.09
0.01 0.01 0.01 0.00 0.00 0.01 0.00 0.00 0.01 0.01 0.01 0.02 0.02 0.02 0.02 0.02 0.02 0.02 0.02 0.01 0.01 0.02 0.02 0.02 0.02 0.02 0.03 0.04 0.05 0.06 0.07 0.07 0.06 0.06 0.04 0.03 0.04 0.05 0.06 0.08 0.09 0.08 0.07

GEFSSE_prec_meanprec_210.txt.gz
QPF
0.03 0.07 0.14 0.16 0.17 0.15 0.12 0.13 0.15 0.17 0.16 0.15 0.14 0.18 0.20 0.17 0.18 0.18 0.19 0.19 0.21 0.19 0.14 0.11 0.11 0.11 0.10 0.09 0.07 0.07 0.06 0.06 0.06 0.06 0.05 0.06 0.04 0.04 0.04 0.05 0.02 0.01 0.04
0.02 0.04 0.10 0.10 0.10 0.10 0.09 0.10 0.14 0.12 0.12 0.11 0.11 0.15 0.14 0.13 0.14 0.14 0.14 0.18 0.20 0.18 0.15 0.13 0.10 0.09 0.08 0.06 0.05 0.05 0.05 0.04 0.06 0.07 0.08 0.08 0.07 0.06 0.05 0.04 0.04 0.04 0.07
0.02 0.03 0.06 0.06 0.05 0.06 0.07 0.08 0.12 0.10 0.09 0.08 0.08 0.12 0.14 0.10 0.09 0.10 0.11 0.15 0.19 0.17 0.16 0.13 0.10 0.08 0.07 0.05 0.04 0.04 0.05 0.04 0.05 0.07 0.07 0.04 0.05 0.07 0.07 0.04 0.05 0.06 0.07
0.02 0.03 0.05 0.06 0.06 0.07 0.08 0.08 0.09 0.07 0.06 0.06 0.05 0.07 0.12 0.09 0.07 0.09 0.10 0.16 0.18 0.15 0.13 0.10 0.10 0.08 0.06 0.04 0.04 0.04 0.05 0.06 0.05 0.05 0.02 0.01 0.01 0.04 0.06 0.05 0.06 0.06 0.05
0.02 0.03 0.05 0.08 0.12 0.13 0.09 0.07 0.07 0.05 0.05 0.05 0.04 0.05 0.09 0.09 0.10 0.09 0.10 0.16 0.21 0.17 0.13 0.09 0.09 0.08 0.07 0.07 0.06 0.05 0.06 0.07 0.07 0.04 0.01 0.00 0.01 0.04 0.06 0.05 0.07 0.07 0.06
0.02 0.02 0.04 0.06 0.09 0.09 0.06 0.06 0.05 0.04 0.04 0.05 0.04 0.04 0.06 0.08 0.11 0.10 0.11 0.18 0.24 0.17 0.13 0.10 0.10 0.08 0.08 0.08 0.08 0.08 0.07 0.08 0.06 0.02 0.01 0.01 0.01 0.03 0.05 0.06 0.06 0.05 0.06
0.02 0.02 0.03 0.04 0.04 0.04 0.05 0.05 0.05 0.04 0.04 0.04 0.04 0.04 0.04 0.06 0.09 0.09 0.12 0.20 0.23 0.14 0.10 0.09 0.07 0.06 0.06 0.06 0.07 0.06 0.06 0.07 0.04 0.02 0.01 0.01 0.01 0.04 0.05 0.05 0.05 0.05 0.04
0.02 0.03 0.03 0.05 0.05 0.04 0.04 0.05 0.05 0.05 0.05 0.05 0.05 0.06 0.06 0.06 0.08 0.10 0.16 0.22 0.22 0.17 0.11 0.07 0.05 0.04 0.05 0.05 0.06 0.05 0.06 0.05 0.04 0.02 0.01 0.01 0.01 0.03 0.03 0.03 0.04 0.04 0.03
0.01 0.02 0.03 0.03 0.04 0.04 0.03 0.03 0.04 0.06 0.07 0.06 0.06 0.07 0.08 0.09 0.11 0.17 0.20 0.19 0.19 0.18 0.14 0.07 0.04 0.04 0.05 0.06 0.06 0.06 0.06 0.05 0.03 0.01 0.00 0.01 0.02 0.03 0.03 0.02 0.03 0.03 0.02
0.01 0.02 0.04 0.03 0.02 0.03 0.02 0.03 0.04 0.06 0.06 0.07 0.07 0.09 0.13 0.17 0.19 0.24 0.24 0.20 0.17 0.15 0.11 0.06 0.04 0.04 0.05 0.06 0.07 0.07 0.07 0.05 0.03 0.01 0.00 0.01 0.02 0.04 0.03 0.03 0.03 0.02 0.02
0.01 0.02 0.04 0.03 0.02 0.02 0.02 0.03 0.05 0.06 0.07 0.06 0.07 0.10 0.15 0.22 0.26 0.21 0.17 0.18 0.21 0.15 0.10 0.07 0.05 0.04 0.04 0.04 0.07 0.06 0.05 0.02 0.01 0.02 0.01 0.01 0.02 0.05 0.06 0.04 0.03 0.03 0.03
0.00 0.01 0.03 0.02 0.03 0.03 0.03 0.03 0.04 0.05 0.05 0.04 0.05 0.09 0.14 0.18 0.17 0.12 0.13 0.19 0.23 0.15 0.10 0.08 0.06 0.04 0.03 0.03 0.05 0.06 0.03 0.02 0.02 0.03 0.02 0.01 0.02 0.04 0.06 0.04 0.03 0.03 0.03
0.00 0.00 0.01 0.02 0.05 0.05 0.05 0.05 0.04 0.05 0.05 0.04 0.05 0.05 0.06 0.08 0.09 0.08 0.09 0.13 0.13 0.09 0.07 0.06 0.05 0.02 0.01 0.02 0.03 0.04 0.03 0.02 0.01 0.01 0.02 0.02 0.02 0.04 0.06 0.05 0.04 0.04 0.04
0.00 0.00 0.00 0.01 0.04 0.06 0.06 0.06 0.05 0.06 0.07 0.05 0.04 0.03 0.03 0.04 0.03 0.03 0.03 0.03 0.05 0.05 0.05 0.03 0.02 0.02 0.02 0.02 0.02 0.03 0.03 0.02 0.01 0.01 0.02 0.03 0.04 0.06 0.07 0.06 0.05 0.06 0.06
0.00 0.00 0.00 0.00 0.02 0.08 0.09 0.07 0.06 0.09 0.08 0.04 0.03 0.04 0.03 0.03 0.02 0.02 0.02 0.01 0.01 0.03 0.03 0.02 0.02 0.03 0.02 0.02 0.04 0.06 0.04 0.02 0.01 0.01 0.02 0.03 0.06 0.07 0.07 0.07 0.05 0.05 0.05
0.00 0.00 0.00 0.00 0.02 0.08 0.10 0.07 0.07 0.10 0.09 0.05 0.04 0.04 0.03 0.03 0.03 0.03 0.02 0.01 0.00 0.01 0.01 0.02 0.01 0.02 0.02 0.02 0.03 0.04 0.04 0.02 0.02 0.02 0.02 0.04 0.06 0.05 0.05 0.05 0.05 0.05 0.05
0.00 0.00 0.00 0.00 0.01 0.04 0.06 0.06 0.08 0.11 0.10 0.06 0.05 0.04 0.04 0.04 0.03 0.04 0.03 0.02 0.02 0.01 0.02 0.03 0.03 0.03 0.02 0.02 0.03 0.04 0.03 0.02 0.03 0.02 0.01 0.02 0.02 0.04 0.06 0.05 0.05 0.06 0.07
0.00 0.00 0.00 0.00 0.01 0.01 0.03 0.05 0.06 0.08 0.09 0.06 0.05 0.05 0.04 0.04 0.03 0.03 0.03 0.03 0.04 0.03 0.02 0.03 0.05 0.05 0.03 0.02 0.03 0.03 0.03 0.03 0.03 0.01 0.01 0.01 0.01 0.01 0.03 0.06 0.05 0.05 0.07
0.00 0.00 0.00 0.01 0.01 0.01 0.01 0.04 0.06 0.06 0.07 0.06 0.04 0.04 0.05 0.05 0.03 0.03 0.03 0.05 0.04 0.04 0.04 0.05 0.07 0.05 0.03 0.03 0.03 0.04 0.04 0.04 0.04 0.02 0.02 0.01 0.01 0.02 0.02 0.05 0.08 0.08 0.07
0.00 0.00 0.00 0.02 0.02 0.02 0.02 0.04 0.06 0.04 0.05 0.05 0.05 0.06 0.05 0.06 0.04 0.03 0.03 0.05 0.05 0.04 0.03 0.06 0.08 0.06 0.05 0.05 0.03 0.03 0.03 0.02 0.03 0.02 0.02 0.02 0.04 0.05 0.04 0.04 0.07 0.07 0.08
0.00 0.01 0.03 0.03 0.02 0.02 0.02 0.02 0.04 0.03 0.02 0.03 0.04 0.04 0.04 0.06 0.06 0.05 0.06 0.06 0.06 0.04 0.04 0.05 0.05 0.05 0.06 0.05 0.03 0.04 0.03 0.02 0.03 0.03 0.02 0.04 0.05 0.06 0.05 0.04 0.04 0.05 0.06
0.00 0.00 0.00 0.00 0.01 0.01 0.01 0.02 0.02 0.02 0.01 0.02 0.03 0.03 0.04 0.06 0.08 0.07 0.08 0.08 0.06 0.05 0.05 0.04 0.04 0.05 0.05 0.05 0.04 0.04 0.02 0.02 0.02 0.02 0.03 0.03 0.04 0.04 0.04 0.04 0.04 0.04 0.05
0.00 0.00 0.00 0.00 0.01 0.01 0.01 0.02 0.02 0.01 0.01 0.02 0.01 0.02 0.05 0.05 0.08 0.09 0.09 0.10 0.08 0.06 0.05 0.03 0.04 0.04 0.05 0.05 0.03 0.02 0.01 0.02 0.03 0.02 0.01 0.02 0.03 0.02 0.02 0.03 0.04 0.04 0.05
0.00 0.00 0.00 0.00 0.01 0.01 0.01 0.01 0.01 0.01 0.01 0.01 0.00 0.01 0.03 0.04 0.06 0.07 0.07 0.08 0.09 0.07 0.05 0.04 0.04 0.03 0.04 0.04 0.03 0.02 0.03 0.02 0.02 0.02 0.01 0.01 0.01 0.01 0.02 0.02 0.03 0.06 0.08
0.00 0.00 0.01 0.01 0.01 0.01 0.01 0.01 0.01 0.01 0.01 0.01 0.01 0.02 0.02 0.03 0.05 0.06 0.07 0.08 0.10 0.09 0.07 0.04 0.03 0.02 0.03 0.04 0.04 0.03 0.04 0.04 0.03 0.03 0.02 0.01 0.01 0.01 0.02 0.02 0.03 0.05 0.07
0.00 0.00 0.01 0.01 0.01 0.01 0.01 0.01 0.01 0.01 0.01 0.01 0.01 0.01 0.01 0.02 0.02 0.04 0.06 0.08 0.08 0.09 0.07 0.05 0.04 0.02 0.02 0.03 0.04 0.04 0.04 0.05 0.04 0.04 0.02 0.01 0.02 0.03 0.02 0.02 0.02 0.03 0.06

GEFSSE_prec_meanprec_216.txt.gz
QPF
0.13 0.17 0.18 0.21 0.25 0.25 0.26 0.29 0.26 0.18 0.17 0.18 0.18 0.20 0.24 0.23 0.21 0.23 0.27 0.30 0.30 0.28 0.22 0.16 0.14 0.12 0.11 0.10 0.10 0.10 0.08 0.06 0.06 0.06 0.06 0.07 0.07 0.04 0.05 0.04 0.03 0.03 0.03
0.09 0.14 0.15 0.14 0.17 0.20 0.23 0.22 0.18 0.14 0.15 0.16 0.18 0.19 0.20 0.24 0.26 0.25 0.26 0.24 0.22 0.23 0.19 0.15 0.14 0.10 0.09 0.07 0.07 0.08 0.08 0.07 0.08 0.07 0.06 0.07 0.07 0.04 0.04 0.04 0.03 0.04 0.05
0.05 0.08 0.10 0.11 0.15 0.16 0.15 0.13 0.13 0.14 0.12 0.13 0.14 0.18 0.17 0.19 0.22 0.20 0.21 0.21 0.21 0.23 0.21 0.19 0.16 0.11 0.08 0.06 0.06 0.07 0.06 0.07 0.07 0.06 0.05 0.07 0.06 0.03 0.02 0.04 0.06 0.05 0.05
0.03 0.05 0.07 0.09 0.11 0.12 0.10 0.13 0.13 0.12 0.11 0.11 0.11 0.16 0.18 0.16 0.17 0.17 0.19 0.20 0.21 0.21 0.19 0.16 0.15 0.09 0.08 0.07 0.05 0.04 0.05 0.07 0.07 0.05 0.04 0.04 0.03 0.04 0.03 0.05 0.08 0.07 0.06
0.03 0.05 0.08 0.10 0.10 0.11 0.10 0.13 0.13 0.11 0.11 0.10 0.10 0.11 0.17 0.18 0.16 0.16 0.17 0.19 0.19 0.19 0.18 0.15 0.13 0.11 0.10 0.08 0.05 0.04 0.03 0.04 0.05 0.04 0.02 0.03 0.04 0.06 0.05 0.05 0.07 0.07 0.08
0.02 0.06 0.09 0.16 0.16 0.15 0.11 0.12 0.13 0.11 0.10 0.08 0.08 0.08 0.14 0.16 0.15 0.14 0.15 0.20 0.24 0.21 0.17 0.15 0.13 0.11 0.10 0.09 0.06 0.05 0.04 0.05 0.04 0.03 0.03 0.03 0.04 0.04 0.04 0.06 0.06 0.05 0.06
0.02 0.07 0.07 0.10 0.11 0.12 0.12 0.14 0.13 0.11 0.09 0.08 0.08 0.09 0.11 0.13 0.13 0.12 0.15 0.22 0.29 0.25 0.17 0.15 0.13 0.10 0.09 0.09 0.07 0.06 0.06 0.07 0.06 0.04 0.03 0.04 0.03 0.03 0.04 0.05 0.04 0.03 0.04
0.03 0.06 0.06 0.08 0.09 0.12 0.15 0.12 0.13 0.11 0.08 0.08 0.08 0.10 0.11 0.12 0.13 0.15 0.19 0.27 0.30 0.25 0.18 0.15 0.11 0.07 0.07 0.09 0.07 0.06 0.07 0.06 0.04 0.02 0.02 0.03 0.02 0.02 0.02 0.03 0.03 0.03 0.04
0.02 0.05 0.05 0.04 0.05 0.07 0.08 0.09 0.11 0.11 0.10 0.09 0.10 0.13 0.11 0.12 0.15 0.17 0.23 0.32 0.31 0.22 0.16 0.12 0.10 0.07 0.07 0.08 0.07 0.07 0.07 0.04 0.03 0.04 0.03 0.05 0.02 0.01 0.02 0.02 0.02 0.03 0.04
0.02 0.04 0.04 0.03 0.05 0.05 0.07 0.09 0.11 0.11 0.11 0.11 0.11 0.12 0.12 0.14 0.15 0.18 0.33 0.36 0.32 0.21 0.12 0.09 0.09 0.06 0.06 0.06 0.05 0.07 0.06 0.03 0.02 0.02 0.03 0.03 0.02 0.02 0.03 0.03 0.03 0.03 0.03
0.02 0.03 0.03 0.02 0.03 0.03 0.04 0.06 0.09 0.10 0.11 0.11 0.10 0.10 0.12 0.17 0.22 0.30 0.49 0.40 0.32 0.21 0.11 0.09 0.07 0.05 0.05 0.05 0.05 0.07 0.05 0.03 0.02 0.02 0.02 0.02 0.03 0.05 0.06 0.05 0.04 0.04 0.04
0.01 0.01 0.03 0.03 0.02 0.03 0.03 0.05 0.07 0.07 0.08 0.10 0.10 0.10 0.14 0.23 0.33 0.38 0.46 0.37 0.28 0.19 0.13 0.10 0.07 0.06 0.03 0.04 0.05 0.06 0.05 0.03 0.03 0.02 0.01 0.01 0.02 0.05 0.06 0.05 0.05 0.05 0.04
0.00 0.00 0.02 0.06 0.04 0.04 0.03 0.04 0.04 0.04 0.05 0.07 0.08 0.09 0.11 0.17 0.24 0.25 0.28 0.33 0.25 0.17 0.15 0.11 0.07 0.05 0.03 0.04 0.05 0.04 0.03 0.03 0.03 0.00 0.01 0.01 0.02 0.04 0.06 0.06 0.05 0.05 0.04
0.00 0.00 0.01 0.04 0.06 0.04 0.03 0.02 0.02 0.03 0.04 0.04 0.06 0.07 0.08 0.11 0.14 0.15 0.20 0.27 0.20 0.14 0.13 0.10 0.09 0.05 0.03 0.02 0.03 0.02 0.03 0.04 0.03 0.02 0.02 0.01 0.02 0.03 0.05 0.06 0.06 0.05 0.05
0.00 0.01 0.01 0.03 0.07 0.06 0.05 0.04 0.03 0.05 0.05 0.04 0.05 0.07 0.07 0.06 0.08 0.08 0.11 0.13 0.13 0.10 0.09 0.08 0.06 0.05 0.05 0.04 0.02 0.02 0.02 0.02 0.02 0.02 0.02 0.01 0.02 0.04 0.06 0.07 0.07 0.06 0.07
0.00 0.01 0.01 0.03 0.08 0.10 0.08 0.07 0.07 0.08 0.07 0.05 0.05 0.06 0.07 0.06 0.06 0.07 0.08 0.09 0.08 0.07 0.06 0.04 0.02 0.04 0.04 0.04 0.03 0.02 0.02 0.02 0.02 0.03 0.02 0.03 0.03 0.05 0.06 0.07 0.08 0.07 0.07
0.00 0.01 0.01 0.02 0.07 0.13 0.11 0.10 0.10 0.11 0.08 0.07 0.07 0.05 0.07 0.07 0.08 0.07 0.07 0.08 0.07 0.07 0.07 0.05 0.03 0.03 0.03 0.03 0.04 0.02 0.01 0.01 0.02 0.02 0.04 0.05 0.04 0.04 0.05 0.05 0.07 0.07 0.06
0.00 0.00 0.01 0.00 0.04 0.13 0.11 0.10 0.11 0.13 0.09 0.07 0.07 0.05 0.07 0.07 0.08 0.08 0.07 0.06 0.07 0.07 0.08 0.10 0.07 0.06 0.06 0.06 0.06 0.04 0.02 0.02 0.03 0.03 0.04 0.05 0.04 0.04 0.06 0.04 0.04 0.05 0.07
0.00 0.01 0.01 0.01 0.02 0.08 0.10 0.09 0.10 0.13 0.12 0.09 0.08 0.09 0.08 0.07 0.07 0.08 0.08 0.08 0.06 0.07 0.10 0.09 0.08 0.07 0.09 0.09 0.05 0.05 0.03 0.02 0.03 0.03 0.05 0.05 0.04 0.05 0.07 0.05 0.03 0.03 0.05
0.00 0.01 0.01 0.01 0.01 0.03 0.04 0.06 0.09 0.13 0.13 0.10 0.09 0.10 0.07 0.06 0.06 0.08 0.08 0.08 0.06 0.08 0.12 0.12 0.11 0.11 0.11 0.10 0.05 0.05 0.03 0.02 0.02 0.03 0.04 0.04 0.04 0.04 0.04 0.06 0.07 0.05 0.03
0.00 0.00 0.00 0.01 0.01 0.02 0.02 0.03 0.07 0.16 0.14 0.12 0.10 0.08 0.06 0.06 0.06 0.10 0.10 0.10 0.09 0.09 0.12 0.13 0.11 0.11 0.10 0.10 0.10 0.09 0.07 0.04 0.03 0.02 0.02 0.03 0.03 0.03 0.04 0.06 0.06 0.07 0.06
0.00 0.00 0.00 0.01 0.01 0.01 0.01 0.02 0.05 0.12 0.10 0.08 0.08 0.07 0.05 0.06 0.09 0.09 0.13 0.10 0.09 0.11 0.13 0.13 0.11 0.09 0.08 0.09 0.10 0.12 0.10 0.06 0.03 0.01 0.02 0.03 0.03 0.04 0.03 0.03 0.03 0.05 0.05
0.00 0.00 0.00 0.00 0.01 0.01 0.01 0.02 0.04 0.08 0.05 0.04 0.04 0.06 0.05 0.06 0.10 0.12 0.11 0.11 0.12 0.12 0.14 0.13 0.10 0.08 0.09 0.08 0.08 0.10 0.10 0.09 0.06 0.03 0.02 0.02 0.02 0.05 0.02 0.02 0.03 0.04 0.04
0.00 0.00 0.00 0.00 0.01 0.01 0.01 0.02 0.02 0.01 0.02 0.02 0.03 0.04 0.05 0.05 0.07 0.11 0.11 0.12 0.13 0.11 0.13 0.10 0.07 0.08 0.09 0.10 0.09 0.09 0.08 0.08 0.09 0.07 0.05 0.04 0.04 0.04 0.04 0.03 0.03 0.04 0.05
0.00 0.01 0.01 0.02 0.03 0.05 0.03 0.02 0.02 0.01 0.02 0.02 0.02 0.03 0.05 0.05 0.06 0.09 0.13 0.13 0.13 0.11 0.10 0.10 0.09 0.08 0.06 0.07 0.08 0.07 0.06 0.06 0.07 0.06 0.08 0.09 0.07 0.05 0.04 0.04 0.03 0.03 0.03
0.00 0.00 0.01 0.01 0.02 0.03 0.03 0.02 0.01 0.01 0.01 0.02 0.02 0.03 0.03 0.04 0.05 0.07 0.12 0.14 0.12 0.09 0.08 0.09 0.08 0.07 0.07 0.07 0.07 0.06 0.06 0.07 0.07 0.07 0.07 0.11 0.11 0.10 0.09 0.06 0.04 0.03 0.04

GEFSSE_prec_meanprec_222.txt.gz
QPF
0.12 0.14 0.14 0.15 0.20 0.24 0.21 0.23 0.25 0.23 0.22 0.22 0.19 0.20 0.17 0.17 0.24 0.29 0.22 0.16 0.18 0.23 0.25 0.18 0.14 0.12 0.12 0.11 0.11 0.10 0.10 0.09 0.06 0.06 0.07 0.08 0.09 0.09 0.05 0.04 0.05 0.04 0.04
0.09 0.11 0.12 0.16 0.21 0.20 0.20 0.23 0.21 0.19 0.19 0.20 0.19 0.20 0.18 0.16 0.16 0.17 0.18 0.18 0.20 0.23 0.20 0.15 0.11 0.10 0.09 0.08 0.10 0.11 0.10 0.11 0.10 0.08 0.07 0.06 0.06 0.07 0.07 0.07 0.09 0.09 0.06
0.05 0.07 0.13 0.20 0.22 0.19 0.17 0.16 0.14 0.15 0.15 0.17 0.18 0.21 0.18 0.17 0.19 0.18 0.21 0.23 0.24 0.22 0.18 0.15 0.10 0.08 0.07 0.05 0.05 0.07 0.08 0.08 0.11 0.10 0.08 0.06 0.05 0.04 0.04 0.07 0.07 0.07 0.06
0.03 0.05 0.07 0.12 0.13 0.11 0.11 0.12 0.12 0.10 0.10 0.13 0.16 0.16 0.19 0.21 0.23 0.22 0.24 0.23 0.24 0.22 0.19 0.16 0.12 0.09 0.07 0.05 0.04 0.05 0.06 0.04 0.06 0.09 0.11 0.10 0.07 0.04 0.04 0.04 0.04 0.06 0.05
0.03 0.03 0.04 0.06 0.07 0.08 0.09 0.11 0.11 0.09 0.09 0.11 0.11 0.12 0.16 0.18 0.18 0.21 0.20 0.17 0.19 0.20 0.19 0.17 0.12 0.08 0.06 0.05 0.04 0.04 0.03 0.03 0.07 0.11 0.10 0.10 0.09 0.05 0.03 0.04 0.04 0.06 0.04
0.04 0.03 0.03 0.05 0.05 0.06 0.08 0.17 0.14 0.10 0.09 0.10 0.08 0.07 0.09 0.11 0.12 0.15 0.15 0.15 0.16 0.15 0.14 0.14 0.11 0.07 0.05 0.05 0.04 0.03 0.02 0.03 0.07 0.08 0.06 0.06 0.05 0.05 0.03 0.03 0.04 0.05 0.03
0.02 0.02 0.03 0.04 0.03 0.04 0.07 0.16 0.14 0.10 0.10 0.09 0.07 0.07 0.09 0.10 0.12 0.12 0.13 0.16 0.16 0.15 0.12 0.10 0.09 0.06 0.03 0.04 0.03 0.03 0.03 0.04 0.08 0.06 0.06 0.07 0.04 0.03 0.03 0.03 0.04 0.05 0.03
0.01 0.03 0.04 0.05 0.05 0.05 0.07 0.12 0.12 0.11 0.10 0.07 0.06 0.07 0.09 0.08 0.11 0.13 0.14 0.16 0.16 0.17 0.14 0.11 0.09 0.06 0.04 0.04 0.04 0.03 0.03 0.04 0.05 0.05 0.05 0.05 0.03 0.01 0.02 0.03 0.03 0.03 0.02
0.01 0.03 0.04 0.05 0.06 0.07 0.08 0.12 0.10 0.09 0.09 0.07 0.08 0.08 0.08 0.08 0.10 0.11 0.15 0.17 0.17 0.17 0.15 0.11 0.09 0.07 0.04 0.03 0.03 0.03 0.04 0.05 0.06 0.05 0.06 0.05 0.01 0.01 0.01 0.01 0.01 0.02 0.01
0.02 0.03 0.03 0.04 0.05 0.09 0.09 0.09 0.10 0.10 0.09 0.09 0.11 0.12 0.13 0.12 0.13 0.12 0.14 0.16 0.17 0.15 0.14 0.11 0.07 0.07 0.04 0.02 0.03 0.03 0.03 0.03 0.05 0.06 0.06 0.04 0.01 0.01 0.01 0.01 0.01 0.02 0.01
0.03 0.04 0.04 0.04 0.04 0.05 0.05 0.08 0.09 0.09 0.09 0.09 0.09 0.12 0.16 0.22 0.23 0.20 0.21 0.20 0.18 0.16 0.13 0.10 0.08 0.06 0.04 0.03 0.03 0.02 0.02 0.03 0.06 0.05 0.04 0.03 0.02 0.01 0.01 0.01 0.02 0.02 0.02
0.03 0.03 0.05 0.03 0.03 0.03 0.05 0.12 0.17 0.13 0.10 0.11 0.09 0.10 0.14 0.22 0.35 0.34 0.34 0.28 0.25 0.19 0.13 0.09 0.07 0.04 0.04 0.04 0.03 0.02 0.02 0.03 0.04 0.04 0.05 0.03 0.02 0.02 0.02 0.02 0.03 0.03 0.02
0.01 0.03 0.04 0.04 0.04 0.05 0.08 0.09 0.11 0.10 0.09 0.10 0.09 0.09 0.12 0.15 0.27 0.39 0.37 0.35 0.32 0.21 0.16 0.11 0.08 0.05 0.04 0.07 0.05 0.02 0.02 0.02 0.02 0.03 0.04 0.02 0.02 0.02 0.03 0.02 0.03 0.03 0.03
0.01 0.02 0.07 0.07 0.06 0.05 0.06 0.06 0.04 0.06 0.06 0.08 0.08 0.08 0.09 0.12 0.17 0.24 0.24 0.24 0.22 0.17 0.16 0.11 0.08 0.06 0.05 0.06 0.03 0.02 0.02 0.02 0.03 0.04 0.04 0.01 0.01 0.01 0.02 0.03 0.02 0.02 0.03
0.01 0.01 0.07 0.11 0.08 0.06 0.07 0.08 0.04 0.04 0.05 0.05 0.07 0.09 0.09 0.08 0.10 0.12 0.14 0.14 0.12 0.10 0.09 0.09 0.07 0.07 0.06 0.06 0.03 0.01 0.01 0.02 0.03 0.03 0.03 0.02 0.01 0.01 0.01 0.01 0.02 0.02 0.03
0.01 0.02 0.05 0.13 0.10 0.07 0.06 0.07 0.05 0.03 0.03 0.02 0.04 0.07 0.09 0.08 0.08 0.08 0.07 0.09 0.08 0.05 0.05 0.05 0.05 0.05 0.07 0.06 0.04 0.02 0.02 0.02 0.02 0.03 0.04 0.04 0.02 0.01 0.02 0.02 0.02 0.01 0.03
0.01 0.01 0.02 0.07 0.11 0.09 0.08 0.08 0.06 0.03 0.03 0.03 0.04 0.05 0.06 0.08 0.10 0.09 0.10 0.10 0.08 0.05 0.05 0.05 0.05 0.04 0.05 0.05 0.05 0.03 0.01 0.01 0.02 0.04 0.06 0.07 0.05 0.03 0.03 0.04 0.03 0.02 0.02
0.00 0.01 0.01 0.01 0.06 0.11 0.10 0.08 0.06 0.05 0.04 0.04 0.04 0.04 0.05 0.07 0.09 0.10 0.10 0.10 0.09 0.08 0.07 0.07 0.06 0.05 0.07 0.07 0.07 0.05 0.03 0.03 0.02 0.03 0.05 0.05 0.05 0.04 0.03 0.04 0.04 0.04 0.03
0.00 0.01 0.02 0.02 0.04 0.10 0.11 0.09 0.08 0.07 0.05 0.04 0.04 0.04 0.05 0.07 0.07 0.07 0.09 0.11 0.10 0.09 0.09 0.06 0.07 0.08 0.10 0.11 0.07 0.04 0.04 0.03 0.02 0.02 0.02 0.03 0.04 0.05 0.05 0.04 0.03 0.04 0.03
0.00 0.01 0.01 0.02 0.03 0.05 0.10 0.10 0.11 0.08 0.06 0.05 0.04 0.05 0.07 0.06 0.06 0.10 0.09 0.10 0.10 0.11 0.11 0.09 0.12 0.12 0.13 0.12 0.06 0.05 0.04 0.04 0.03 0.03 0.02 0.04 0.04 0.03 0.05 0.08 0.06 0.05 0.04
0.00 0.01 0.01 0.02 0.03 0.04 0.07 0.10 0.11 0.10 0.08 0.07 0.04 0.04 0.04 0.04 0.05 0.11 0.13 0.12 0.10 0.13 0.13 0.10 0.11 0.13 0.12 0.10 0.10 0.09 0.07 0.04 0.05 0.04 0.03 0.04 0.04 0.05 0.07 0.09 0.09 0.08 0.06
0.00 0.01 0.01 0.01 0.02 0.03 0.04 0.04 0.08 0.10 0.08 0.08 0.07 0.08 0.04 0.04 0.06 0.08 0.11 0.10 0.10 0.14 0.14 0.11 0.11 0.12 0.11 0.11 0.11 0.14 0.15 0.13 0.09 0.04 0.04 0.06 0.06 0.08 0.07 0.07 0.07 0.09 0.08
0.00 0.01 0.01 0.01 0.03 0.03 0.03 0.03 0.04 0.07 0.08 0.09 0.10 0.10 0.06 0.04 0.03 0.05 0.09 0.09 0.10 0.07 0.11 0.11 0.09 0.10 0.11 0.11 0.12 0.12 0.15 0.16 0.14 0.09 0.07 0.06 0.07 0.07 0.05 0.04 0.05 0.07 0.09
0.00 0.00 0.01 0.01 0.03 0.03 0.04 0.04 0.04 0.04 0.05 0.07 0.07 0.07 0.06 0.03 0.02 0.02 0.05 0.08 0.10 0.09 0.12 0.08 0.09 0.10 0.12 0.14 0.13 0.10 0.10 0.11 0.13 0.13 0.08 0.06 0.08 0.08 0.06 0.04 0.06 0.09 0.13
0.00 0.00 0.01 0.02 0.03 0.07 0.07 0.04 0.02 0.03 0.05 0.05 0.06 0.08 0.07 0.05 0.03 0.03 0.05 0.06 0.07 0.10 0.11 0.10 0.12 0.08 0.08 0.10 0.11 0.10 0.10 0.10 0.09 0.11 0.12 0.10 0.08 0.08 0.08 0.08 0.09 0.09 0.12
0.00 0.01 0.01 0.02 0.02 0.02 0.03 0.03 0.02 0.03 0.05 0.06 0.08 0.09 0.07 0.07 0.06 0.05 0.06 0.06 0.06 0.09 0.10 0.11 0.10 0.09 0.09 0.09 0.09 0.09 0.10 0.11 0.10 0.10 0.11 0.11 0.12 0.10 0.06 0.07 0.08 0.07 0.08